     2.11           OBSERVATION DATA    G (GPS)             RINEX VERSION / TYPE
teqc 2010Oct21 OPUS Account 20111027 18:42:40UTC            PGM / RUN BY / DATE
R 1525                                                      MARKER NAME
3024                                                        MARKER NUMBER
CSMIDDLETON NGS                                             OBSERVER / AGENCY
4624K01584 TRIMBLE NETR5 4.41                               REC # / TYPE / VERS
60177755 TRM41249.00 NONE                                   ANT # / TYPE
  -761326.3298 -5553059.2783  3033709.0382                  APPROX POSITION XYZ
        2.0000        0.0000        0.0000                  ANTENNA: DELTA H/E/N
     1     1                                                WAVELENGTH FACT L1/2
     5    L1    L2    C1    P1    P2                        # / TYPES OF OBSERV
    15                                                      LEAP SECONDS
  2011     8    18     0     0    0.0000000     GPS         TIME OF FIRST OBS
                                                            END OF HEADER
 11  8 18  0  0  0.0000000  0  8G28G04G10G12G17G05G09G02
 127417587.05416  99286525.47253  24246782.477                    24246794.695
 109921824.21418  85653507.47556  20917404.500                    20917412.816
 110845959.60818  86373569.23756  21093261.438                    21093269.953
 116711826.62817  90944322.67917  22209520.586                    22209528.977
 119017978.78517  92741273.00717  22648339.117                    22648347.895
 121124009.88817  94382412.40117  23049127.203                    23049137.605
 120214763.33517  93673930.44754  22876118.648                    22876128.824
 108854646.87018  84821791.33956  20714297.602                    20714303.281
 11  8 18  0  0 30.0000000  0  8G28G04G10G12G17G05G09G02
 127519123.005 6  99365644.21143  24266104.695                    24266116.219
 109987167.401 8  85704424.22146  20929839.195                    20929847.488
 110810948.270 8  86346287.71246  21086598.898                    21086607.777
 116631453.795 7  90881694.545 7  22194225.930                    22194233.926
 119062741.510 7  92776153.011 7  22656857.180                    22656865.441
 121021582.621 7  94302599.059 7  23029636.633                    23029646.582
 120278097.361 7  93723281.63444  22888171.023                    22888180.754
 108836179.836 8  84807401.46546  20710783.016                    20710788.832
 11  8 18  0  1  0.0000000  0  8G28G04G10G12G17G05G09G02
 127620855.451 6  99444916.06143  24285463.305                    24285476.180
 110052774.271 8  85755546.45346  20942323.273                    20942332.031
 110776505.660 8  86319449.35346  21080044.867                    21080053.578
 116551366.753 7  90819289.102 7  22178986.063                    22178993.543
 119107625.059 7  92811127.156 6  22665398.227                    22665406.563
 120919289.611 7  94222890.331 7  23010170.586                    23010180.277
 120341789.437 7  93772911.79344  22900291.023                    22900300.988
 108818057.504 8  84793280.17646  20707334.508                    20707340.453
 11  8 18  0  1 30.0000000  0  8G28G04G10G12G17G05G09G02
 127722782.406 7  99524339.46543  24304860.102                    24304872.133
 110118642.536 8  85806872.34446  20954857.695                    20954866.195
 110742633.442 8  86293055.45746  21073598.883                    21073607.738
 116471567.880 7  90757108.218 7  22163800.594                    22163808.582
 119152629.801 7  92846195.729 6  22673963.234                    22673970.844
 120817133.843 7  94143288.562 7  22990730.516                    22990741.168
 120405836.324 6  93822818.42444  22912478.750                    22912488.902
 108800279.052 8  84779426.84546  20703951.258                    20703957.406
 11  8 18  0  2  0.0000000  0  8G28G04G10G12G17G05G09G02
 127824903.932 6  99603914.49343  24324292.836                    24324305.250
 110184771.793 8  85858401.62246  20967441.992                    20967450.824
 110709335.461 8  86267109.00846  21067262.844                    21067271.398
 116392061.609 8  90695155.336 7  22148671.086                    22148679.129
 119197758.031 7  92881360.546 7  22682550.766                    22682558.465
 120715120.094 7  94063797.423 7  22971318.414                    22971328.242
 120470236.666 7  93873000.45844  22924733.523                    22924743.762
 108782845.634 8  84765842.37646  20700633.758                    20700639.563
 11  8 18  0  2 30.0000000  0  7G04G10G12G17G05G09G02
 110251157.917 8  85910131.04346  20980074.977                    20980083.598
 110676611.795 8  86241610.08346  21061035.266                    21061044.180
 116312849.030 8  90633431.296 7  22133597.398                    22133605.129
 119243009.165 7  92916621.153 7  22691162.203                    22691169.730
 120613249.534 7  93984417.873 6  22951932.430                    22951942.254
 120534985.487 7  93923454.03644  22937054.859                    22937065.246
 108765754.685 8  84752524.76546  20697381.867                    20697387.590
 11  8 18  0  3  0.0000000  0  7G04G10G12G17G05G09G02
 110317798.138 8  85962058.47246  20992756.078                    20992764.641
 110644463.771 8  86216559.70046  21054917.875                    21054926.227
 116233932.288 7  90571937.786 7  22118580.141                    22118588.293
 119288383.261 7  92951977.548 7  22699795.664                    22699804.242
 120511524.744 7  93905151.929 6  22932574.797                    22932584.941
 120600079.334 6  93974176.48744  22949442.039                    22949451.773
 108749005.123 8  84739473.17746  20694194.164                    20694200.035
 11  8 18  0  3 30.0000000  0  7G04G10G12G17G05G09G02
 110384690.258 8  86014182.18246  21005485.469                    21005493.879
 110612893.348 8  86191959.39446  21048910.211                    21048918.887
 116155313.993 7  90510676.822 7  22103619.266                    22103627.098
 119333881.164 7  92987430.416 7  22708453.625                    22708462.453
 120409949.188 7  93826002.241 6  22913245.383                    22913255.246
 120665514.859 7  94025165.14344  22961894.016                    22961903.918
 108732596.406 8  84726687.17646  20691071.852                    20691077.863
 11  8 18  0  4  0.0000000  0  7G04G10G12G17G05G09G02
 110451832.113 8  86066500.49446  21018261.836                    21018270.613
 110581902.357 8  86167810.60946  21043012.906                    21043021.449
 116076996.846 8  90449650.514 7  22088715.719                    22088723.926
 119379503.313 7  93022980.095 7  22717135.492                    22717144.309
 120308525.747 7  93746971.068 6  22893945.453                    22893954.555
 120731288.965 7  94076417.63544  22974410.805                    22974420.848
 108716527.622 8  84714166.05846  20688014.109                    20688019.902
 11  8 18  0  4 30.0000000  0  7G04G10G12G17G05G09G02
 110519220.974 8  86119011.26746  21031085.703                    21031094.117
 110551492.092 8  86144114.31146  21037225.922                    21037234.781
 115998983.110 8  90388860.640 7  22073870.539                    22073878.426
 119425250.136 7  93058626.904 7  22725840.555                    22725849.828
 120207256.987 7  93668060.483 6  22874674.297                    22874684.563
 120797398.083 7  94127931.15444  22986990.906                    22987001.145
 108700797.597 8  84701908.90546  20685020.219                    20685026.629
 11  8 18  0  5  0.0000000  0  7G04G10G12G17G05G09G02
 110586854.765 8  86171712.91046  21043955.563                    21043964.316
 110521664.186 8  86120871.81546  21031549.727                    21031558.180
 115921275.697 8  90328309.457 7  22059083.305                    22059091.551
 119471122.281 7  93094371.404 7  22734569.594                    22734579.223
 120106146.123 7  93589272.903 6  22855433.633                    22855442.668
 120863839.045 7  94179703.26645  22999634.367                    22999644.445
 108685405.783 8  84689915.29546  20682091.570                    20682097.426
 11  8 18  0  5 30.0000000  0  7G04G10G12G17G05G09G02
 110654731.104 8  86224603.53346  21056872.359                    21056881.070
 110492420.340 8  86098084.43346  21025984.609                    21025993.020
 115843877.114 7  90267998.909 7  22044354.711                    22044362.781
 119517120.696 7  93130214.280 7  22743323.008                    22743331.871
 120005196.647 7  93510611.059 6  22836223.500                    22836233.234
 120930608.538 7  94231731.36544  23012339.898                    23012350.207
 108670351.691 8  84678184.85146  20679226.719                    20679232.805
 11  8 18  0  6  0.0000000  0  7G04G10G12G17G05G09G02
 110722847.978 8  86277681.59246  21069834.648                    21069842.969
 110463762.626 8  86075753.76846  21020531.477                    21020540.223
 115766790.195 7  90207931.214 7  22029685.703                    22029693.746
 119563246.233 7  93166156.249 6  22752099.969                    22752109.285
 119904411.081 7  93432076.980 6  22817044.461                    22817054.051
 120997703.528 7  94284013.10944  23025107.594                    23025118.031
 108655634.591 8  84666716.99746  20676426.180                    20676432.313
 11  8 18  0  6 30.0000000  0  7G04G10G12G17G05G09G02
 110791203.361 8  86330945.51546  21082842.344                    21082851.078
 110435692.957 8  86053881.32146  21015190.023                    21015198.527
 115690017.719 7  90148108.530 7  22015075.914                    22015083.891
 119609499.496 7  93202197.725 6  22760902.461                    22760910.953
 119803792.747 7  93353673.194 6  22797897.250                    22797906.836
 121065120.859 7  94336546.01945  23037937.242                    23037947.328
 108641253.886 8  84655511.25746  20673689.609                    20673695.613
 11  8 18  0  7  0.0000000  0  7G04G10G12G17G05G09G02
 110859794.609 8  86384393.22046  21095894.734                    21095903.234
 110408212.246 8  86032467.80946  21009960.141                    21009968.980
 115613561.996 7  90088532.664 7  22000527.188                    22000535.172
 119655880.811 7  93238338.975 6  22769727.461                    22769737.008
 119703344.575 7  93275402.002 7  22778782.516                    22778792.570
 121132856.964 7  94389327.34844  23050826.664                    23050836.902
 108627208.312 8  84644566.67446  20671016.992                    20671022.691
 11  8 18  0  7 30.0000000  0  7G04G10G12G17G05G09G02
 110928619.116 8  86438022.68946  21108990.953                    21109000.047
 110381322.128 8  86011514.49646  21004843.727                    21004852.336
 115537425.402 7  90029205.486 7  21986038.883                    21986047.188
 119702390.836 7  93274580.527 6  22778578.875                    22778587.363
 119603069.329 7  93197265.562 7  22759700.461                    22759710.332
 121200908.476 7  94442354.44244  23063776.750                    23063786.293
 108613496.957 8  84633882.52547  20668407.625                    20668413.602
 11  8 18  0  8  0.0000000  0  8G30G04G10G12G17G05G09G02
 128055338.93816  99783277.06953  24368086.633                    24368096.078
 110997674.385 8  86491831.96946  21122132.023                    21122141.102
 110355023.784 8  85991022.31146  20999839.273                    20999847.469
 115461610.185 7  89970128.705 7  21971611.773                    21971619.746
 119749030.101 7  93310922.764 7  22787453.797                    22787463.504
 119502969.495 7  93119265.785 7  22740652.313                    22740661.578
 121269271.873 7  94495624.57344  23076786.047                    23076796.234
 108600118.511 8  84623457.78046  20665861.719                    20665867.754
 11  8 18  0  8 30.0000000  0  8G30G04G10G12G17G05G09G02
 127949509.484 6  99700812.61543  24347948.555                    24347957.637
 111066958.716 8  86545819.73646  21135316.172                    21135325.234
 110329319.381 8  85970992.93746  20994947.906                    20994956.254
 115386119.627 7  89911304.887 7  21957246.359                    21957253.930
 119795799.348 7  93347366.304 7  22796354.602                    22796363.813
 119403048.952 7  93041405.744 7  22721637.969                    22721647.531
 121337944.296 7  94549135.51844  23089853.156                    23089863.813
 108587072.959 8  84613292.43046  20663379.477                    20663385.355
 11  8 18  0  9  0.0000000  0  8G30G04G10G12G17G05G09G02
 127843841.987 6  99618474.33243  24327839.852                    24327849.523
 111136469.825 8  86599984.23046  21148544.172                    21148553.004
 110304209.898 8  85951427.12246  20990169.641                    20990178.129
 115310956.287 8  89852736.068 7  21942943.094                    21942951.109
 119842699.257 7  93383911.640 7  22805278.805                    22805288.016
 119303310.286 7  92963687.432 7  22702658.219                    22702667.801
 121406922.202 7  94602884.48444  23102979.313                    23102989.766
 108574359.002 8  84603385.47246  20660959.938                    20660966.484
 11  8 18  0  9 30.0000000  0  8G30G04G10G12G17G05G09G02
 127738338.923 6  99536264.19543  24307764.195                    24307772.859
 111206205.205 8  86654323.46846  21161814.508                    21161823.461
 110279696.974 8  85932326.17846  20985504.891                    20985513.133
 115236122.480 8  89794424.020 7  21928702.625                    21928710.512
 119889730.448 7  93420559.301 7  22814228.453                    22814237.953
 119203756.529 7  92886113.189 7  22683713.867                    22683723.117
 121476202.084 7  94656868.77744  23116162.773                    23116173.496
 108561975.769 8  84593736.20746  20658603.578                    20658609.523
 11  8 18  0 10  0.0000000  0  8G30G04G10G12G17G05G09G02
 127633003.151 6  99454184.41543  24287718.500                    24287728.449
 111276162.444 8  86708835.60046  21175126.852                    21175135.625
 110255781.912 8  85913691.09246  20980953.852                    20980962.004
 115161620.808 7  89736370.778 7  21914525.484                    21914533.234
 119936893.759 7  93457309.891 7  22823203.211                    22823212.625
 119104390.795 7  92808685.447 7  22664805.250                    22664814.156
 121545780.710 7  94711085.86544  23129403.211                    23129413.902
 108549922.608 8  84584344.16246  20656309.914                    20656315.836
 11  8 18  0 10 30.0000000  0  8G30G04G10G12G17G05G09G02
 127527837.349 6  99372237.11443  24267706.031                    24267715.953
 111346339.702 8  86763519.16446  21188481.008                    21188489.840
 110232466.262 8  85895523.07846  20976516.930                    20976525.379
 115087453.985 8  89678578.449 7  21900412.297                    21900420.176
 119984189.260 7  93494163.469 6  22832203.703                    22832212.902
 119005216.330 7  92731406.758 7  22645932.156                    22645941.605
 121615654.844 7  94765533.21044  23142700.188                    23142710.543
 108538198.403 8  84575208.44146  20654078.719                    20654084.734
 11  8 18  0 11  0.0000000  0  8G30G04G10G12G17G05G09G02
 127422844.376 6  99290424.46843  24247726.180                    24247736.441
 111416734.240 8  86818372.05646  21201876.492                    21201884.957
 110209751.237 8  85877823.08446  20972194.719                    20972203.242
 115013624.516 8  89621048.992 7  21886362.734                    21886370.906
 120031618.292 7  93531121.113 6  22841229.172                    22841238.012
 118906235.715 7  92654279.114 7  22627096.977                    22627106.684
 121685820.799 7  94820207.95144  23156052.531                    23156062.469
 108526802.541 8  84566328.57046  20651910.398                    20651916.184
 11  8 18  0 11 30.0000000  0  8G30G04G10G12G17G05G09G02
 127318026.905 6  99208748.62443  24227781.219                    24227790.559
 111487344.111 8  86873392.72646  21215313.586                    21215322.223
 110187638.113 8  85860592.09846  20967986.688                    20967994.734
 114940135.220 8  89563784.629 7  21872378.172                    21872386.469
 120079181.283 7  93568183.147 7  22850280.281                    22850289.145
 118807451.924 7  92577304.808 7  22608299.188                    22608308.688
 121756275.303 7  94875107.50944  23169459.445                    23169470.418
 108515733.944 8  84557703.71046  20649804.156                    20649809.945
 11  8 18  0 12  0.0000000  0  8G30G04G10G12G17G05G09G02
 127213387.779 6  99127211.69143  24207868.367                    24207878.402
 111558167.049 8  86928579.42446  21228790.477                    21228799.258
 110166128.159 8  85843831.12946  20963893.453                    20963901.547
 114866988.178 7  89506786.953 7  21858458.930                    21858466.691
 120126878.749 7  93605349.955 7  22859356.477                    22859365.523
 118708867.984 7  92500486.257 7  22589538.539                    22589548.609
 121827015.066 7  94930229.33844  23182921.273                    23182931.273
 108504991.661 8  84549333.12946  20647759.680                    20647765.691
 11  8 18  0 12 30.0000000  0  8G30G04G10G12G17G05G09G02
 127108929.791 6  99045815.93343  24187990.633                    24187999.820
 111629200.829 8  86983930.42046  21242308.016                    21242315.980
 110145222.925 8  85827541.34946  20959915.188                    20959923.598
 114794186.230 8  89450058.182 7  21844604.977                    21844612.516
 120174710.933 7  93642621.727 7  22868459.102                    22868467.723
 118610487.178 7  92423825.973 7  22570818.094                    22570827.090
 121898037.035 7  94985571.08644  23196436.273                    23196445.988
 108494574.918 8  84541216.20346  20645777.086                    20645783.879
 11  8 18  0 13  0.0000000  0  8G30G04G10G12G17G05G09G02
 127004655.599 6  98964563.38143  24168147.672                    24168157.508
 111700443.058 8  87039443.83346  21255864.766                    21255873.332
 110124923.247 8  85811723.43846  20956052.352                    20956060.551
 114721731.760 7  89393600.183 7  21830817.242                    21830825.375
 120222678.682 7  93679999.158 7  22877587.109                    22877595.398
 118512312.249 7  92347326.113 7  22552135.469                    22552144.828
 121969337.291 7  95041129.67244  23210003.992                    23210014.371
 108484482.441 8  84533351.95046  20643856.781                    20643862.871
 11  8 18  0 13 30.0000000  0  8G30G04G10G12G17G05G09G02
 126900568.000 6  98883456.17843  24148340.219                    24148349.641
 111771891.590 8  87095118.01246  21269460.523                    21269469.559
 110105230.320 8  85796378.31646  20952304.453                    20952313.262
 114649627.450 7  89337415.067 7  21817096.164                    21817104.230
 120270782.862 7  93717482.887 7  22886740.391                    22886750.348
 118414345.928 7  92270988.806 7  22533493.383                    22533502.711
 122040912.811 7  95096902.75144  23223624.617                    23223634.297
 108474713.652 8  84525739.92546  20641997.891                    20642003.723
 11  8 18  0 14  0.0000000  0  8G30G04G10G12G17G05G09G02
 126796669.712 6  98802496.56143  24128569.672                    24128578.805
 111843543.973 8  87150951.03846  21283095.805                    21283104.805
 110086145.496 8  85781507.03846  20948672.953                    20948681.148
 114577875.755 8  89281504.683 7  21803442.328                    21803449.859
 120319024.235 7  93755073.511 7  22895920.570                    22895930.367
 118316591.531 7  92194816.642 7  22514891.320                    22514900.465
 122112760.067 7  95152887.57544  23237296.688                    23237306.758
 108465267.638 8  84518379.41146  20640200.375                    20640205.961
 11  8 18  0 14 30.0000000  0  8G30G04G10G12G17G05G09G02
 126692963.781 6  98721686.81743  24108834.406                    24108844.121
 111915398.388 8  87206941.48946  21296768.914                    21296778.352
 110067670.281 8  85767110.78646  20945157.250                    20945165.961
 114506479.569 8  89225871.338 7  21789856.203                    21789864.008
 120367402.991 7  93792771.199 7  22905125.938                    22905136.590
 118219052.120 7  92118812.004 7  22496329.961                    22496339.520
 122184875.935 7  95209081.69444  23251019.875                    23251029.949
 108456143.433 8  84511269.66246  20638463.859                    20638470.301
 11  8 18  0 15  0.0000000  0  9G30G04G10G12G17G05G09G25G02
 126589452.838 6  98641029.01143  24089136.844                    24089146.520
 111987452.431 8  87263087.49946  21310480.836                    21310489.719
 110049805.431 8  85753190.14346  20941757.875                    20941766.078
 114435441.402 8  89170516.976 7  21776337.898                    21776346.219
 120415920.020 7  93830576.608 7  22914359.320                    22914368.801
 118121730.758 7  92042977.266 7  22477810.352                    22477819.371
 122257256.787 7  95265482.31944  23264793.688                    23264803.113
 129614913.76616 100998531.81116  24664867.719                    24664879.582
 108447339.877 8  84504409.76046  20636789.141                    20636795.137
 11  8 18  0 15 30.0000000  0  9G30G04G10G12G17G05G09G25G02
 126486139.338 6  98560525.03343  24069477.477                    24069486.922
 112059703.907 8  87319387.34546  21324229.672                    21324238.855
 110032552.005 8  85739745.91546  20938474.586                    20938482.930
 114364763.308 7  89115443.187 7  21762888.445                    21762895.914
 120464575.673 7  93868490.075 7  22923618.313                    22923627.953
 118024630.258 7  91967314.643 7  22459332.539                    22459341.754
 122329899.098 7  95322086.63344  23278617.016                    23278626.711
 129511628.012 7 100918049.448 6  24645213.297                    24645225.371
 108438856.046 8  84497798.98746  20635174.633                    20635180.074
 11  8 18  0 16  0.0000000  0  9G30G04G10G12G17G05G09G25G02
 126383026.271 7  98480177.26944  24049855.336                    24049864.621
 112132150.412 8  87375839.16346  21338015.859                    21338024.484
 110015910.975 8  85726778.91446  20935307.828                    20935316.168
 114294447.710 8  89060651.858 7  21749507.805                    21749515.703
 120513370.793 7  93906512.221 7  22932903.477                    22932913.320
 117927753.378 7  91891826.246 7  22440897.750                    22440906.941
 122402799.457 7  95378892.03144  23292489.750                    23292499.594
 129408445.967 6 100837647.904 6  24625578.039                    24625590.059
 108430690.783 8  84491436.46846  20633620.680                    20633626.629
 11  8 18  0 16 30.0000000  0  9G30G04G10G12G17G05G09G25G02
 126280116.441 6  98399987.82543  24030272.367                    24030281.688
 112204789.637 8  87432441.16345  21351838.508                    21351846.945
 109999883.497 8  85714289.99646  20932257.719                    20932266.098
 114224497.633 7  89006145.373 7  21736196.516                    21736204.762
 120562305.999 7  93944643.515 6  22942215.672                    22942224.934
 117831103.383 7  91816514.640 7  22422505.438                    22422514.414
 122475954.466 7  95435895.89444  23306410.945                    23306421.145
 129305370.137 6 100757329.145 6  24605963.047                    24605974.871
 108422843.187 8  84485321.46146  20632127.445                    20632133.223
 11  8 18  0 17  0.0000000  0  9G30G04G10G12G17G05G09G25G02
 126177412.737 6  98319959.00643  24010728.180                    24010737.727
 112277619.599 8  87489191.77745  21365697.672                    21365706.328
 109984470.671 8  85702280.02246  20929324.719                    20929333.477
 114154915.313 7  88951925.429 7  21722955.305                    21722963.449
 120611381.999 6  93982884.513 6  22951554.297                    22951562.914
 117734682.968 7  91741381.955 7  22404157.477                    22404166.766
 122549361.041 7  95493095.75144  23320379.133                    23320389.508
 129202403.077 6 100677095.134 6  24586368.508                    24586381.082
 108415312.332 8  84479453.26646  20630694.406                    20630699.953
 11  8 18  0 17 30.0000000  0  9G30G04G10G12G17G05G09G25G02
 126074918.045 6  98240093.10143  23991224.195                    23991233.543
 112350638.464 8  87546089.58346  21379592.547                    21379601.496
 109969673.592 8  85690749.84946  20926509.016                    20926517.305
 114085703.340 7  88897994.069 7  21709785.000                    21709793.043
 120660599.301 7  94021235.587 6  22960920.078                    22960929.758
 117638495.331 7  91666430.641 7  22385853.266                    22385862.484
 122623015.809 7  95550489.01444  23334394.992                    23334405.418
 129099547.461 6 100596947.973 6  24566796.102                    24566808.602
 108408097.509 8  84473831.33447  20629321.313                    20629327.137
 11  8 18  0 18  0.0000000  0  9G30G04G10G12G17G05G09G25G02
 125972634.936 6  98160392.04643  23971761.297                    23971770.441
 112423843.695 7  87603132.61046  21393523.539                    21393531.852
 109955493.135 8  85679700.15546  20923810.703                    20923819.285
 114016864.593 7  88844353.526 7  21696684.977                    21696693.227
 120709958.861 7  94059697.552 6  22970313.250                    22970322.336
 117542543.407 7  91591662.991 7  22367594.688                    22367603.969
 122696914.953 7  95608072.72344  23348458.148                    23348467.777
 128996805.533 6 100516889.399 6  24547244.766                    24547257.285
 108401197.426 8  84468454.66046  20628008.250                    20628014.195
 11  8 18  0 18 30.0000000  0  9G30G04G10G12G17G05G09G25G02
 125870566.486 6  98080858.22043  23952337.648                    23952346.672
 112497233.216 8  87660319.23746  21407489.180                    21407498.051
 109941930.205 8  85669131.66546  20921229.305                    20921237.883
 113948400.997 7  88791005.327 7  21683657.031                    21683665.020
 120759460.717 7  94098270.384 6  22979733.500                    22979742.105
 117446830.350 7  91517081.473 7  22349380.000                    22349389.734
 122771055.574 7  95665844.57844  23362566.281                    23362577.523
 128894179.985 6 100436921.499 6  24527716.078                    24527727.590
 108394611.303 8  84463322.63346  20626755.055                    20626760.684
 11  8 18  0 19  0.0000000  0  9G30G04G10G12G17G05G09G25G02
 125768715.295 6  98001493.70743  23932955.891                    23932965.121
 112570804.820 8  87717647.75246  21421489.258                    21421497.629
 109928985.590 8  85659044.97246  20918766.359                    20918774.625
 113880315.326 7  88737951.597 7  21670700.492                    21670708.734
 120809105.494 7  94136954.591 6  22989181.320                    22989189.551
 117351359.246 7  91442688.479 7  22331213.016                    22331221.824
 122845434.042 6  95723801.75544  23376720.680                    23376730.715
 128791673.077 6 100357046.046 6  24508209.875                    24508222.031
 108388337.850 8  84458434.22946  20625561.258                    20625566.863
 11  8 18  0 19 30.0000000  0  9G30G04G10G12G17G05G09G25G02
 125667084.191 6  97922300.69643  23913615.570                    23913624.770
 112644556.270 8  87775116.40546  21435523.539                    21435532.188
 109916660.264 8  85649440.84746  20916421.156                    20916429.355
 113812610.000 8  88685194.227 7  21657816.758                    21657824.484
 120858894.220 7  94175750.972 6  22998655.680                    22998664.094
 117256132.403 7  91368485.823 7  22313091.570                    22313101.020
 122920046.868 7  95781941.57744  23390918.656                    23390929.230
 128689287.443 6 100277265.082 6  24488725.797                    24488738.883
 108382376.015 8  84453788.64346  20624426.516                    20624432.602
 11  8 18  0 20  0.0000000  0  9G30G04G10G12G17G05G09G25G02
 125565675.992 7  97843281.37543  23894318.461                    23894327.977
 112718485.631 8  87832723.69645  21449591.820                    21449600.672
 109904954.892 8  85640319.79446  20914193.703                    20914201.957
 113745287.559 7  88632735.202 7  21645005.891                    21645013.617
 120908827.620 7  94214660.095 6  23008157.383                    23008165.789
 117161153.204 7  91294476.138 7  22295017.758                    22295026.637
 122994890.666 6  95840261.36044  23405160.383                    23405171.859
 128587025.611 6 100197580.620 6  24469265.820                    24469278.895
 108376725.248 8  84449385.46046  20623351.281                    20623357.004
 11  8 18  0 20 30.0000000  0  9G30G04G10G12G17G05G09G25G02
 125464493.703 6  97764438.06943  23875063.453                    23875073.695
 112792590.678 8  87890467.87545  21463693.711                    21463702.098
 109893870.683 8  85631682.77146  20912084.367                    20912092.566
 113678350.585 7  88580576.545 7  21632267.742                    21632275.727
 120958905.813 7  94253682.026 6  23017687.148                    23017695.906
 117066424.778 7  91220661.843 7  22276991.797                    22277000.434
 123069962.236 7  95898758.63944  23419446.703                    23419457.332
 128484890.136 6 100117994.612 6  24449829.984                    24449842.957
 108371384.557 8  84445223.90147  20622334.750                    20622340.813
 11  8 18  0 21  0.0000000  0  9G30G04G10G12G17G05G09G25G02
 125363539.777 6  97685772.69943  23855853.289                    23855862.602
 112866868.973 8  87948347.06545  21477828.367                    21477837.160
 109883407.844 8  85623529.93146  20910093.445                    20910101.758
 113611801.092 7  88528719.820 7  21619603.945                    21619612.035
 121009129.303 7  94292817.157 6  23027244.305                    23027252.457
 116971949.477 7  91147044.798 7  22259013.508                    22259022.277
 123145257.765 7  95957430.41444  23433774.844                    23433785.898
 128382883.201 6 100038508.761 6  24430419.148                    24430430.750
 108366351.895 8  84441302.36246  20621377.391                    20621382.879
 11  8 18  0 21 30.0000000  0  9G30G04G10G12G17G05G09G25G02
 125262817.375 6  97607287.72143  23836686.078                    23836695.711
 112941318.646 8  88006359.77345  21491995.977                    21492004.465
 109873567.265 8  85615861.98046  20908220.563                    20908229.297
 113545641.847 7  88477167.183 7  21607014.727                    21607022.355
 121059499.093 7  94332066.317 6  23036829.656                    23036838.348
 116877730.960 7  91073627.852 7  22241084.188                    22241093.141
 123220774.050 7  96016274.24644  23448145.281                    23448155.441
 128281007.614 6  99959125.234 6  24411032.828                    24411044.785
 108361627.050 8  84437620.67146  20620478.086                    20620484.035
 11  8 18  0 22  0.0000000  0  9G30G04G10G12G17G05G09G25G02
 125162329.490 6  97528985.48543  23817564.156                    23817573.680
 113015937.825 8  88064504.57145  21506195.297                    21506203.730
 109864350.363 8  85608679.99946  20906466.703                    20906475.207
 113479875.699 7  88425920.850 7  21594499.711                    21594507.355
 121110015.868 7  94371429.996 6  23046442.547                    23046451.570
 116783771.992 7  91000413.138 7  22223204.219                    22223213.305
 123296507.824 7  96075287.48344  23462557.852                    23462567.613
 128179266.140 6  99879846.205 6  24391671.898                    24391684.414
 108357209.276 8  84434178.26846  20619637.539                    20619643.008
 11  8 18  0 22 30.0000000  0  9G30G04G10G12G17G05G09G25G02
 125062078.713 6  97450868.00743  23798486.711                    23798496.016
 113090723.893 8  88122779.39745  21520426.656                    21520434.953
 109855757.384 8  85601984.20646  20904831.289                    20904839.543
 113414504.680 7  88374982.399 7  21582059.883                    21582067.598
 121160680.016 7  94410908.518 7  23056083.445                    23056092.430
 116690075.231 7  90927402.753 7  22205374.656                    22205383.621
 123372455.465 7  96134467.38444  23477009.172                    23477019.699
 128077660.962 6  99800673.399 6  24372337.234                    24372349.777
 108353096.891 8  84430973.81446  20618855.219                    20618860.773
 11  8 18  0 23  0.0000000  0  9G30G04G10G12G17G05G09G25G02
 124962067.536 6  97372937.22643  23779455.672                    23779464.414
 113165674.953 8  88181182.80145  21534689.422                    21534698.113
 109847788.703 8  85595774.86546  20903314.617                    20903323.129
 113349531.056 8  88324353.606 7  21569695.836                    21569703.313
 121211491.960 7  94450502.200 6  23065752.328                    23065761.602
 116596643.625 7  90854598.978 7  22187595.195                    22187603.988
 123448613.631 7  96193811.34344  23491502.156                    23491512.781
 127976194.455 7  99721608.634 6  24353028.883                    24353041.008
 108349288.728 8  84428006.42846  20618130.594                    20618136.367
 11  8 18  0 23 30.0000000  0  9G30G04G10G12G17G05G09G25G02
 124862299.136 6  97295195.63843  23760470.039                    23760478.805
 113240788.868 8  88239713.09846  21548983.055                    21548992.020
 109840445.096 8  85590052.59946  20901917.711                    20901926.199
 113284957.644 7  88274036.672 7  21557408.078                    21557415.871
 121262452.543 7  94490211.704 7  23075449.320                    23075459.352
 116503480.247 7  90782004.209 7  22169866.789                    22169875.379
 123524978.848 7  96253316.65044  23506033.430                    23506044.957
 127874869.360 7  99642654.070 6  24333747.688                    24333759.117
 108345783.959 8  84425275.44846  20617463.359                    20617469.285
 11  8 18  0 24  0.0000000  0  9G30G04G10G12G17G05G09G25G02
 124762776.310 6  97217645.43143  23741532.008                    23741540.738
 113316063.715 8  88298368.81545  21563307.086                    21563316.355
 109833726.860 7  85584817.62946  20900639.258                    20900647.234
 113220786.714 8  88224033.354 7  21545196.555                    21545204.313
 121313562.165 7  94530037.319 6  23085175.125                    23085185.480
 116410588.027 7  90709620.709 7  22152189.828                    22152198.609
 123601547.898 7  96312980.75344  23520604.484                    23520615.449
 127773688.263 7  99563811.684 6  24314493.219                    24314505.020
 108342581.571 8  84422780.09846  20616854.031                    20616859.793
 11  8 18  0 24 30.0000000  0  9G30G04G10G12G17G05G09G25G02
 124663501.920 6  97140288.81343  23722640.211                    23722649.070
 113391497.307 8  88357148.21345  21577662.086                    21577670.738
 109827634.866 7  85580070.63746  20899479.969                    20899488.102
 113157020.451 7  88174345.355 7  21533062.422                    21533070.012
 121364821.632 7  94569979.708 6  23094930.000                    23094939.719
 116317969.983 7  90637450.892 7  22134564.875                    22134573.910
 123678317.191 7  96372800.90244  23535213.328                    23535224.086
 127672653.672 7  99485083.483 6  24295266.891                    24295279.395
 108339680.469 8  84420519.51446  20616301.922                    20616307.820
 11  8 18  0 25  0.0000000  0  9G30G04G10G12G17G05G09G25G02
 124564478.936 6  97063128.05743  23703797.492                    23703806.574
 113467087.616 8  88416049.74345  21592046.094                    21592055.020
 109822169.895 7  85575812.24846  20898439.727                    20898448.258
 113093661.607 7  88124974.826 7  21521005.391                    21521013.695
 121416231.437 7  94610039.250 6  23104712.688                    23104722.172
 116225629.208 7  90565497.116 7  22116992.930                    22117001.945
 123755283.384 7  96432774.46444  23549859.344                    23549869.523
 127571768.325 7  99406471.541 6  24276068.523                    24276080.953
 108337079.703 8  84418492.95046  20615806.938                    20615812.547
 11  8 18  0 25 30.0000000  0  9G30G04G10G12G17G05G09G25G02
 124465709.761 6  96986165.15643  23685000.984                    23685011.281
 113542832.263 8  88475071.50845  21606460.430                    21606468.828
 109817332.354 8  85572042.75746  20897519.266                    20897527.402
 113030712.354 7  88075923.457 7  21509026.734                    21509034.039
 121467791.978 7  94650216.229 6  23114524.930                    23114534.418
 116133568.645 7  90493761.672 7  22099474.602                    22099483.066
 123832442.962 7  96492898.73544  23564542.422                    23564552.621
 127471034.464 6  99327977.631 6  24256900.320                    24256911.918
 108334777.760 8  84416699.24546  20615368.945                    20615374.672
 11  8 18  0 26  0.0000000  0  9G30G04G10G12G17G05G09G25G02
 124367197.695 6  96909402.59843  23666255.758                    23666264.703
 113618729.731 8  88534212.36145  21620902.609                    21620911.113
 109813122.890 7  85568762.66746  20896717.969                    20896726.504
 112968175.357 8  88027193.323 7  21497126.148                    21497133.844
 121519504.150 7  94690511.408 6  23124364.750                    23124374.465
 116041790.817 7  90422246.562 7  22082009.336                    22082018.391
 123909792.805 7  96553171.26444  23579261.719                    23579272.355
 127370454.963 6  99249604.006 6  24237760.414                    24237772.309
 108332774.168 8  84415138.01846  20614987.547                    20614993.430
 11  8 18  0 26 30.0000000  0  9G30G04G10G12G17G05G09G25G02
 124268945.565 6  96832842.57843  23647557.844                    23647568.035
 113694777.659 8  88593470.46045  21635374.148                    21635382.691
 109809541.602 8  85565972.08546  20896036.781                    20896045.207
 112906052.966 7  87978786.266 7  21485304.836                    21485312.508
 121571368.632 7  94730925.225 6  23134234.242                    23134243.695
 115950298.775 7  90350954.131 7  22064599.406                    22064608.371
 123987329.198 7  96613589.10944  23594016.422                    23594027.406
 127270032.463 6  99171352.719 6  24218650.805                    24218662.391
 108331067.656 8  84413808.26946  20614662.766                    20614668.773
 11  8 18  0 27  0.0000000  0  9G30G04G10G12G17G05G09G25G02
 124170956.003 6  96756487.18943  23628911.766                    23628921.473
 113770973.901 8  88652844.11745  21649873.797                    21649882.219
 109806588.952 7  85563671.34146  20895475.164                    20895483.109
 112844347.460 7  87930704.053 7  21473561.984                    21473569.609
 121623385.900 7  94771458.113 6  23144132.945                    23144143.055
 115859095.350 7  90279886.587 7  22047243.906                    22047252.418
 124065048.917 7  96674149.88344  23608805.945                    23608816.129
 127169769.324 6  99093225.642 6  24199571.148                    24199583.000
 108329656.927 8  84412709.01246  20614394.398                    20614400.270
 11  8 18  0 27 30.0000000  0  9G30G04G10G12G17G05G09G25G02
 124073231.901 6  96680338.66443  23610314.766                    23610324.621
 113847316.600 8  88712331.91545  21664401.320                    21664410.273
 109804265.568 8  85561860.92846  20895032.555                    20895041.426
 112783061.151 8  87882948.505 7  21461899.961                    21461907.496
 121675556.433 7  94812110.425 6  23154060.953                    23154069.945
 115768183.274 7  90209046.077 7  22029943.906                    22029953.129
 124142948.598 6  96734850.81044  23623630.180                    23623640.828
 127069668.302 7  99015224.881 6  24180522.453                    24180534.637
 108328540.852 8  84411839.35046  20614182.008                    20614187.672
 11  8 18  0 28  0.0000000  0  9G30G04G10G12G17G05G09G25G02
 123975775.979 6  96604399.04644  23591769.813                    23591779.527
 113923803.540 8  88771932.10245  21678956.086                    21678965.395
 109802571.671 7  85560541.03346  20894710.086                    20894718.680
 112722196.427 8  87835521.467 7  21450317.891                    21450325.316
 121727880.715 7  94852882.530 6  23164018.180                    23164027.516
 115677565.758 7  90138435.091 7  22012699.836                    22012708.512
 124221024.635 7  96795689.21344  23638487.258                    23638498.527
 126969731.731 6  98937352.261 6  24161505.266                    24161517.172
 108327718.161 8  84411198.30646  20614025.039                    20614031.043
 11  8 18  0 28 30.0000000  0  9G30G04G10G12G17G05G09G25G02
 123878591.210 7  96528670.77044  23573276.289                    23573285.754
 114000432.820 8  88831643.19945  21693538.844                    21693547.766
 109801507.427 8  85559711.76946  20894507.336                    20894516.137
 112661755.564 8  87788424.697 7  21438815.914                    21438823.512
 121780359.212 7  94893774.822 6  23174004.688                    23174013.258
 115587245.995 8  90068056.105 7  21995512.898                    21995521.031
 124299273.791 7  96856662.51144  23653377.492                    23653388.688
 126869962.375 7  98859609.958 6  24142519.328                    24142531.551
 108327188.065 8  84410785.25146  20613924.281                    20613930.199
 11  8 18  0 29  0.0000000  0  9G30G04G10G12G17G05G09G25G02
 123781680.226 7  96453155.82743  23554834.289                    23554843.688
 114077202.354 8  88891463.59645  21708147.672                    21708156.660
 109801073.141 8  85559373.38546  20894424.695                    20894433.332
 112601740.858 8  87741660.013 7  21427395.859                    21427403.398
 121832992.701 7  94934787.893 6  23184020.195                    23184029.129
 115497226.244 7  89997910.918 7  21978381.508                    21978390.191
 124377692.340 6  96917767.81743  23668300.148                    23668310.711
 126770362.712 7  98781999.891 6  24123566.297                    24123578.309
 108326949.219 8  84410599.14946  20613879.078                    20613884.973
 11  8 18  0 29 30.0000000  0  9G30G04G10G12G17G05G09G25G02
 123685046.165 7  96377856.61744  23536446.094                    23536454.816
 114154110.257 8  88951391.80345  21722782.719                    21722791.500
 109801269.446 8  85559526.37346  20894462.609                    20894470.543
 112542154.997 8  87695229.509 7  21416056.859                    21416064.641
 121885781.642 7  94975922.062 6  23194065.773                    23194075.168
 115407509.810 7  89928002.070 7  21961309.289                    21961318.340
 124456277.179 7  96979002.72544  23683254.766                    23683264.566
 126670935.543 7  98704524.254 6  24104645.664                    24104657.945
 108327000.782 8  84410639.34046  20613888.797                    20613894.883
 11  8 18  0 30  0.0000000  0  9G30G04G10G12G17G05G09G25G02
 123588691.718 7  96302775.31644  23518110.266                    23518119.480
 114231154.364 8  89011426.14445  21737443.148                    21737452.461
 109802096.313 8  85560170.70546  20894619.180                    20894627.742
 112483000.193 8  87649134.893 7  21404800.336                    21404807.723
 121938726.685 7  95017177.909 6  23204140.680                    23204149.703
 115318099.325 7  89858331.613 7  21944295.211                    21944303.973
 124535024.886 6  97040364.51644  23698239.719                    23698250.336
 126571683.386 6  98627185.001 6  24085758.172                    24085770.730
 108327341.538 8  84410904.86846  20613953.773                    20613959.328
 11  8 18  0 30 30.0000000  0  9G30G04G10G12G17G05G09G25G02
 123492619.998 7  96227914.28744  23499828.383                    23499836.969
 114308333.084 8  89071565.36645  21752129.906                    21752138.691
 109803554.118 7  85561306.67746  20894897.117                    20894905.051
 112424279.042 8  87603378.198 7  21393625.930                    21393633.500
 121991828.531 7  95058555.923 6  23214246.563                    23214254.293
 115228997.926 7  89788902.024 7  21927339.633                    21927348.012
 124613932.267 7  97101850.71344  23713255.266                    23713266.887
 126472609.119 7  98549984.343 6  24066906.188                    24066917.109
 108327970.690 8  84411395.11146  20614073.320                    20614079.180
 11  8 18  0 31  0.0000000  0  9G30G04G10G12G17G05G09G25G02
 123396833.332 7  96153275.40444  23481600.930                    23481609.891
 114385644.033 8  89131807.64445  21766841.828                    21766850.184
 109805642.584 8  85562934.08246  20895294.461                    20895302.543
 112365992.769 8  87557960.362 7  21382534.555                    21382542.000
 122045087.353 7  95100056.276 6  23224380.641                    23224389.375
 115140208.016 7  89719715.146 7  21910443.328                    21910452.098
 124692995.377 7  97163458.27444  23728300.984                    23728312.031
 126373714.801 7  98472923.942 6  24048087.273                    24048098.254
 108328886.199 8  84412108.49247  20614247.633                    20614253.410
 11  8 18  0 31 30.0000000  0  9G30G04G10G12G17G05G09G25G02
 123301334.882 7  96078861.07644  23463427.758                    23463436.852
 114463085.314 8  89192151.47345  21781578.773                    21781587.773
 109808362.183 7  85565053.27146  20895812.219                    20895820.512
 112308144.398 8  87512883.741 7  21371526.266                    21371534.152
 122098503.997 7  95141679.593 6  23234545.039                    23234554.043
 115051732.780 7  89650773.462 7  21893607.328                    21893616.215
 124772211.113 6  97225184.76944  23743375.320                    23743385.891
 126275003.387 7  98396006.056 6  24029303.047                    24029313.844
 108330087.499 8  84413044.57146  20614476.469                    20614482.148
 11  8 18  0 32  0.0000000  0  9G30G04G10G12G17G05G09G25G02
 123206127.378 7  96004673.47044  23445310.555                    23445319.180
 114540654.932 8  89252595.29745  21796339.734                    21796348.652
 109811713.181 8  85567664.46646  20896449.938                    20896457.953
 112250735.930 8  87468149.921 7  21360601.719                    21360609.125
 122152078.879 7  95183426.200 6  23244741.297                    23244749.332
 114963574.974 7  89582079.128 7  21876831.594                    21876839.891
 124851576.255 7  97287027.69044  23758477.438                    23758488.270
 126176477.404 7  98319232.657 6  24010553.742                    24010565.645
 108331573.342 8  84414202.38146  20614759.367                    20614764.824
 11  8 18  0 32 30.0000000  0  9G30G04G10G12G17G05G09G25G02
 123111213.717 7  95930714.80944  23427248.961                    23427257.984
 114618351.135 8  89313137.76945  21811125.047                    21811133.629
 109815695.726 7  85570767.76546  20897207.734                    20897215.941
 112193769.803 7  87423760.767 7  21349761.555                    21349768.996
 122205812.636 7  95225296.619 6  23254965.805                    23254974.785
 114875737.575 7  89513634.439 7  21860116.445                    21860125.164
 124931087.467 7  97348984.41944  23773608.555                    23773618.547
 126078139.465 7  98242605.792 6  23991840.375                    23991851.793
 108333342.777 7  84415581.15946  20615095.781                    20615101.340
 11  8 18  0 33  0.0000000  0  9G30G04G10G12G17G05G09G25G02
 123016596.834 7  95856987.37443  23409243.703                    23409252.441
 114696171.936 8  89373777.35945  21825933.633                    21825942.457
 109820309.711 7  85574363.09546  20898085.297                    20898093.770
 112137248.406 7  87379718.163 7  21339005.625                    21339013.102
 122259705.739 7  95267291.186 6  23265221.539                    23265230.281
 114788223.521 7  89445441.741 7  21843462.727                    21843471.305
 125010741.076 7  97411052.14344  23788765.859                    23788776.129
 125979992.313 7  98166127.585 6  23973163.555                    23973175.090
 108335394.539 7  84417179.92546  20615486.328                    20615492.148
 11  8 18  0 33 30.0000000  0  9G30G04G10G12G17G05G09G25G02
 122922279.468 7  95783493.37444  23391295.891                    23391304.492
 114774115.239 8  89434512.35645  21840765.430                    21840774.758
 109825555.174 7  85578450.48346  20899083.953                    20899091.773
 112081174.085 7  87336023.913 7  21328334.969                    21328342.777
 122313758.948 6  95309410.525 6  23275507.578                    23275516.242
 114701035.440 7  89377503.023 7  21826871.836                    21826880.422
 125090533.743 7  97473228.20344  23803950.234                    23803960.637
 125882038.490 7  98089800.026 6  23954522.883                    23954534.961
 108337727.357 8  84418997.70346  20615930.070                    20615935.957
 11  8 18  0 34  0.0000000  0  9G30G04G10G12G17G05G09G25G02
 122828264.633 7  95710235.08044  23373405.641                    23373413.945
 114852179.358 8  89495341.53245  21855620.789                    21855629.125
 109831432.195 8  85583029.98846  20900202.070                    20900210.504
 112025548.834 8  87292679.606 7  21317750.266                    21317757.766
 122367972.650 7  95351654.919 6  23285823.688                    23285832.746
 114614176.155 7  89309820.523 7  21810342.719                    21810351.508
 125170462.177 7  97535510.06444  23819158.945                    23819171.211
 125784280.786 7  98013625.293 7  23935920.844                    23935932.781
 108340340.265 8  84421033.74146  20616427.547                    20616433.039
 11  8 18  0 34 30.0000000  0  9G30G04G10G12G17G05G09G25G02
 122734554.718 7  95637214.41744  23355572.695                    23355582.016
 114930362.094 8  89556263.11645  21870498.406                    21870507.215
 109837940.490 8  85588101.39346  20901440.398                    20901448.773
 111970374.668 8  87249686.773 7  21307250.742                    21307258.383
 122422347.230 7  95394024.692 6  23296171.109                    23296180.617
 114527648.385 7  89242396.347 7  21793876.859                    21793885.793
 125250523.132 7  97597895.15044  23834395.711                    23834406.375
 125686721.469 7  97937605.149 6  23917355.438                    23917366.969
 108343231.785 7  84423286.88246  20616977.430                    20616982.945
 11  8 18  0 35  0.0000000  0  9G30G04G10G12G17G05G09G25G02
 122641153.005 7  95564433.90544  23337799.070                    23337808.047
 115008661.742 8  89617275.80545  21885398.609                    21885407.023
 109845080.173 8  85593664.80346  20902799.211                    20902807.574
 111915654.236 8  87207047.511 7  21296837.445                    21296845.098
 122476883.256 7  95436520.210 6  23306549.398                    23306558.090
 114441455.032 7  89175232.747 7  21777474.813                    21777483.453
 125330713.199 7  97660380.87144  23849654.430                    23849666.086
 125589363.554 7  97861741.944 7  23898828.711                    23898840.871
 108346401.182 7  84425756.54946  20617580.609                    20617586.297
 11  8 18  0 35 30.0000000  0  9G30G04G10G12G17G05G09G25G02
 122548062.145 6  95491895.62144  23320084.227                    23320093.281
 115087076.379 8  89678378.08245  21900320.039                    21900328.898
 109852851.168 7  85599720.13246  20904277.969                    20904286.305
 111861389.367 8  87164763.236 7  21286511.297                    21286519.477
 122531581.373 7  95479142.105 6  23316958.648                    23316967.309
 114355599.235 7  89108332.187 7  21761136.992                    21761145.391
 125411028.757 7  97722964.35844  23864938.359                    23864949.559
 125492209.549 7  97786037.607 7  23880341.297                    23880353.109
 108349847.134 8  84428441.71046  20618236.367                    20618242.234
 11  8 18  0 36  0.0000000  0  9G30G04G10G12G17G05G09G25G02
 122455285.123 6  95419601.89344  23302429.672                    23302438.738
 115165604.099 8  89739568.49145  21915263.508                    21915272.934
 109861253.491 8  85606267.41446  20905877.000                    20905885.137
 111807582.591 7  87122835.886 7  21276272.305                    21276279.609
 122586442.448 7  95521890.965 6  23327397.320                    23327407.125
 114270083.381 7  89041696.527 7  21744863.969                    21744872.563
 125491466.751 7  97785643.29843  23880245.352                    23880255.871
 125395262.189 7  97710494.288 6  23861892.492                    23861903.953
 108353568.721 8  84431341.65646  20618944.563                    20618950.613
 11  8 18  0 36 30.0000000  0  9G30G04G10G12G17G05G09G25G02
 122362824.647 7  95347554.82744  23284834.992                    23284844.164
 115244242.990 8  89800845.53145  21930227.703                    21930237.301
 109870286.799 8  85613306.36946  20907595.727                    20907604.434
 111754236.064 7  87081267.197 7  21266120.781                    21266128.293
 122641466.308 7  95564766.593 6  23337868.805                    23337877.926
 114184910.202 7  88975327.865 7  21728656.250                    21728664.637
 125572023.567 6  97848414.77043  23895574.773                    23895584.809
 125298524.067 7  97635113.959 6  23843485.078                    23843495.586
 108357564.396 8  84434455.16046  20619705.273                    20619710.887
 11  8 18  0 37  0.0000000  0  9G30G04G10G12G17G05G09G25G02
 122270683.480 6  95275756.58444  23267300.539                    23267310.277
 115322991.270 8  89862207.82245  21945213.352                    21945222.621
 109879951.067 8  85620836.98346  20909435.242                    20909443.457
 111701351.661 8  87040058.589 7  21256057.109                    21256064.605
 122696653.744 7  95607769.748 6  23348370.617                    23348379.684
 114100082.856 8  88909228.698 7  21712513.844                    21712522.195
 125652695.907 7  97911276.26744  23910926.750                    23910937.250
 125201997.745 7  97559898.686 6  23825115.367                    23825126.781
 108361832.963 8  84437781.32846  20620517.289                    20620522.852
 11  8 18  0 37 30.0000000  0  9G30G04G10G12G17G05G09G25G02
 122178864.509 7  95204209.40744  23249827.742                    23249837.531
 115401846.849 8  89923653.71445  21960219.344                    21960228.691
 109890245.830 8  85628858.89246  20911394.141                    20911402.117
 111648931.456 7  86999211.687 7  21246082.070                    21246089.563
 122752005.236 7  95650900.730 7  23358903.680                    23358913.043
 114015603.800 7  88843400.917 7  21696437.875                    21696446.418
 125733480.523 7  97974225.23843  23926299.188                    23926310.246
 125105685.853 7  97484850.509 6  23806787.883                    23806799.266
 108366373.186 8  84441319.16546  20621380.969                    20621386.703
 11  8 18  0 38  0.0000000  0  9G30G04G10G12G17G05G09G25G02
 122087370.448 7  95132915.41044  23232417.320                    23232426.711
 115480808.111 8  89985181.94145  21975245.313                    21975253.820
 109901171.084 8  85637372.07746  20913472.820                    20913481.137
 111596977.593 8  86958728.165 7  21236195.453                    21236203.148
 122807521.192 7  95694159.867 6  23369468.234                    23369477.465
 113931475.706 8  88777846.630 7  21680428.750                    21680437.375
 125814373.829 6  98037258.92543  23941692.695                    23941703.426
 125009591.090 7  97409971.500 6  23788501.375                    23788512.883
 108371184.088 8  84445067.93346  20622296.914                    20622302.527
 11  8 18  0 38 30.0000000  0  9G30G04G10G12G17G05G09G25G02
 121996203.669 6  95061876.42044  23215068.859                    23215077.598
 115559872.543 8  90046790.57545  21990290.750                    21990299.551
 109912726.086 8  85646375.99146  20915672.148                    20915680.156
 111545491.836 8  86918609.401 7  21226398.039                    21226405.801
 122863201.720 7  95737547.241 6  23380064.164                    23380072.688
 113847700.899 8  88712567.607 7  21664487.039                    21664495.672
 125895372.300 6  98100374.57744  23957105.430                    23957116.949
 124913715.637 7  97335263.357 6  23770257.305                    23770268.590
 108376263.688 8  84449026.08346  20623263.133                    20623269.699
 11  8 18  0 39  0.0000000  0  9G30G04G10G12G17G05G09G25G02
 121905367.591 7  94991095.12844  23197783.469                    23197792.375
 115639039.082 7  90108478.76045  22005355.070                    22005364.793
 109924911.341 8  85655871.00546  20917990.453                    20917998.605
 111494477.161 7  86878857.713 7  21216690.352                    21216697.383
 122919048.120 7  95781063.880 6  23390691.219                    23390699.879
 113764283.231 8  88647566.890 7  21648613.266                    21648621.801
 125976473.048 6  98163569.88043  23972537.844                    23972550.258
 124818062.848 7  97260728.732 6  23752055.430                    23752065.980
 108381611.982 8  84453193.59646  20624281.070                    20624286.617
 11  8 18  0 39 30.0000000  0  9G30G04G10G12G17G05G09G25G02
 121814865.394 7  94920573.98644  23180561.000                    23180570.359
 115718305.936 8  90170245.09845  22020439.695                    22020448.629
 109937726.338 8  85665856.73446  20920428.820                    20920436.992
 111443935.510 8  86839474.611 7  21207072.695                    21207079.598
 122975060.827 7  95824710.144 6  23401349.633                    23401359.551
 113681224.966 7  88582846.217 7  21632807.805                    21632816.504
 126057672.987 6  98226842.44343  23987990.898                    23988002.109
 124722635.561 7  97186369.827 6  23733895.656                    23733907.098
 108387227.881 8  84457569.63446  20625349.797                    20625355.191
 11  8 18  0 40  0.0000000  0  9G30G04G10G12G17G05G09G25G02
 121724699.202 7  94850314.67944  23163403.102                    23163412.223
 115797670.890 7  90232087.93245  22035541.688                    22035551.387
 109951170.429 8  85676332.66046  20922987.031                    20922995.520
 111393868.728 8  86800461.544 7  21197545.391                    21197552.824
 123031239.851 7  95868485.979 6  23412040.539                    23412049.152
 113598528.673 7  88518407.605 7  21617070.930                    21617079.336
 126138968.467 6  98290189.46144  24003461.242                    24003471.875
 124627435.991 7  97112188.368 6  23715780.266                    23715791.414
 108393109.241 8  84462152.52247  20626468.867                    20626474.801
 11  8 18  0 40 30.0000000  0  9G30G04G10G12G17G05G09G25G02
 121634872.141 7  94780319.61244  23146310.070                    23146318.754
 115877132.482 8  90294006.03445  22050663.117                    22050672.434
 109965243.534 8  85687298.72746  20925665.594                    20925673.613
 111344279.008 8  86761820.206 7  21188108.250                    21188116.012
 123087586.285 7  95912392.221 6  23422762.570                    23422771.957
 113516196.989 7  88454253.096 7  21601404.000                    21601412.492
 126220356.071 7  98353608.29144  24018949.570                    24018959.879
 124532466.985 7  97038186.576 6  23697707.523                    23697718.875
 108399255.456 8  84466941.80546  20627638.477                    20627643.898
 11  8 18  0 41  0.0000000  0  9G30G04G10G12G17G05G09G25G02
 121545387.178 7  94710591.14244  23129281.195                    23129290.184
 115956689.040 8  90355998.13845  22065802.828                    22065810.969
 109979945.189 8  85698754.56346  20928462.859                    20928471.203
 111295168.781 8  86723552.498 7  21178763.234                    21178770.797
 123144100.144 7  95956428.967 6  23433516.773                    23433526.273
 113434233.204 8  88390385.269 7  21585806.867                    21585814.988
 126301832.791 7  98417096.56944  24034453.039                    24034464.922
 124437731.423 7  96964366.692 6  23679680.594                    23679691.285
 108405665.467 8  84471936.64646  20628858.086                    20628863.965
 11  8 18  0 41 30.0000000  0  9G30G04G10G12G17G05G09G25G02
 121456246.825 7  94641131.17744  23112318.070                    23112327.086
 116036338.547 7  90418062.66045  22080959.391                    22080967.430
 109995274.991 8  85710699.87646  20931380.047                    20931388.203
 111246539.394 8  86685659.462 7  21169509.227                    21169516.852
 123200781.913 7  96000596.528 6  23444302.711                    23444312.410
 113352640.018 8  88326806.212 7  21570279.938                    21570288.316
 126383395.163 6  98480651.56144  24049974.406                    24049985.531
 124343231.717 7  96890730.586 6  23661697.688                    23661708.598
 108412337.743 8  84477135.84046  20630127.945                    20630133.465
 11  8 18  0 42  0.0000000  0  9G30G04G10G12G17G05G09G25G02
 121367453.962 7  94571941.97444  23095421.680                    23095430.000
 116116079.192 7  90480198.20445  22096133.219                    22096141.242
 110011232.460 8  85723134.27546  20934416.836                    20934424.949
 111198392.965 8  86648142.763 7  21160347.367                    21160354.855
 123257632.282 7  96044895.461 6  23455121.445                    23455131.113
 113271419.308 7  88263517.397 7  21554823.852                    21554832.238
 126465039.834 6  98544270.68244  24065510.609                    24065521.797
 124248970.592 7  96817280.405 6  23643760.313                    23643771.805
 108419271.298 8  84482538.63446  20631447.242                    20631452.855
 11  8 18  0 42 30.0000000  0  9G30G04G10G12G17G05G09G25G02
 121279011.403 7  94503025.74944  23078590.859                    23078600.223
 116195909.133 7  90542403.33745  22111324.391                    22111332.570
 110027817.008 8  85736057.31146  20937572.773                    20937580.688
 111150731.719 8  86611004.126 7  21151277.453                    21151284.930
 123314651.587 7  96089326.078 6  23465972.594                    23465981.117
 113190574.284 7  88200521.326 7  21539439.750                    21539448.137
 126546763.692 7  98607951.51944  24081062.641                    24081073.777
 124154950.749 7  96744018.275 6  23625868.391                    23625880.363
 108426464.827 8  84488144.00146  20632815.984                    20632821.680
 11  8 18  0 43  0.0000000  0  9G30G04G10G12G17G05G09G25G02
 121190921.779 7  94434384.52644  23061828.391                    23061837.617
 116275826.686 7  90604676.73445  22126531.555                    22126541.285
 110045027.981 8  85749468.46046  20940848.031                    20940856.027
 111103557.497 8  86574244.988 7  21142300.703                    21142308.164
 123371840.233 7  96133888.584 6  23476854.680                    23476863.426
 113110107.397 7  88137819.923 7  21524127.117                    21524135.688
 126628563.146 7  98671691.28144  24096628.820                    24096639.445
 124061174.746 7  96670946.127 6  23608023.977                    23608034.770
 108433917.086 8  84493950.98446  20634234.523                    20634240.145
 11  8 18  0 43 30.0000000  0  9G30G04G10G12G17G05G09G25G02
 121103187.980 7  94366020.56144  23045133.328                    23045142.250
 116355830.189 7  90667017.08145  22141756.430                    22141765.395
 110062864.882 8  85763367.34946  20944242.109                    20944250.574
 111056872.754 8  86537867.279 7  21133416.984                    21133424.492
 123429198.869 7  96178583.556 6  23487769.898                    23487778.551
 113030021.444 7  88075415.341 7  21508887.734                    21508896.004
 126710435.119 7  98735487.54644  24112208.977                    24112218.934
 123967645.371 7  96598066.163 7  23590225.070                    23590236.773
 108441627.029 8  84499958.75546  20635701.734                    20635707.016
 11  8 18  0 44  0.0000000  0  9G30G04G10G12G17G05G09G25G02
 121015812.556 7  94297935.84244  23028506.430                    23028514.875
 116435917.675 7  90729422.90845  22156996.352                    22157005.191
 110081327.078 8  85777753.47446  20947755.313                    20947763.637
 111010678.631 8  86501871.850 7  21124626.375                    21124633.730
 123486727.820 7  96223411.272 6  23498717.320                    23498726.727
 112950318.909 8  88013309.517 7  21493720.375                    21493728.371
 126792376.014 6  98799337.52643  24127801.000                    24127811.254
 123874365.007 7  96525380.252 6  23572474.984                    23572486.191
 108449592.919 8  84506165.96046  20637217.133                    20637222.852
 11  8 18  0 44 30.0000000  0  9G30G04G10G12G17G05G09G25G02
 120928798.741 7  94230132.90144  23011947.313                    23011957.422
 116516087.818 7  90791893.13545  22172252.211                    22172261.508
 110100414.212 8  85792626.57846  20951387.461                    20951395.879
 110964977.765 8  86466260.793 7  21115929.914                    21115937.309
 123544427.422 7  96268371.933 6  23509696.758                    23509706.168
 112871002.955 8  87951504.939 7  21478627.227                    21478635.680
 126874382.850 6  98863238.86444  24143406.930                    24143417.598
 123781336.831 7  96452890.853 6  23554771.742                    23554783.324
 108457814.386 8  84512572.30946  20638781.820                    20638787.582
 11  8 18  0 45  0.0000000  0  9G30G04G10G12G17G05G09G25G02
 120842149.159 7  94162613.79744  22995459.234                    22995468.547
 116596338.842 7  90854426.34345  22187523.461                    22187532.922
 110120125.471 8  85807986.01146  20955138.602                    20955146.723
 110919771.779 8  86431035.367 7  21107327.500                    21107334.980
 123602298.257 7  96313466.061 6  23520709.914                    23520719.059
 112792075.850 8  87890003.345 7  21463607.836                    21463616.289
 126956452.362 6  98927189.02444  24159024.078                    24159035.762
 123688563.402 7  96380599.947 6  23537118.352                    23537128.914
 108466290.130 8  84519176.79646  20640394.914                    20640400.039
 11  8 18  0 45 30.0000000  0  9G30G04G10G12G17G05G09G25G02
 120755866.100 7  94095380.30144  22979040.453                    22979049.469
 116676668.435 7  90917020.79245  22202809.984                    22202818.535
 110140459.830 8  85823830.97146  20959007.555                    20959016.344
 110875062.294 8  86396196.805 7  21098819.836                    21098826.492
 123660340.557 7  96358693.771 6  23531755.406                    23531763.906
 112713539.724 8  87828806.423 7  21448662.695                    21448670.723
 127038580.935 6  98991185.22743  24174652.789                    24174664.203
 123596046.900 7  96308509.231 6  23519512.828                    23519523.797
 108475017.787 8  84525977.58046  20642055.547                    20642061.121
 11  8 18  0 46  0.0000000  0  9G30G04G10G12G17G05G09G25G02
 120669952.809 7  94028434.91944  22962691.516                    22962699.777
 116757075.428 7  90979675.56745  22218110.266                    22218119.316
 110161417.057 8  85840161.29546  20962996.219                    20963003.844
 110830851.639 8  86361746.957 7  21090406.484                    21090414.215
 123718554.968 7  96404055.617 6  23542832.570                    23542842.297
 112635397.764 8  87767916.633 7  21433793.055                    21433801.484
 127120765.822 6  99055225.25144  24190291.984                    24190303.355
 123503790.446 7  96236621.146 6  23501957.352                    23501967.926
 108483997.236 8  84532974.55646  20643764.211                    20643770.043
 11  8 18  0 46 30.0000000  0  9G30G04G10G12G17G05G09G25G02
 120584412.033 7  93961779.83644  22946412.898                    22946422.594
 116837558.215 7  91042389.37845  22233426.000                    22233434.773
 110182996.665 8  85856976.58146  20967102.211                    20967110.168
 110787141.706 8  86327687.305 7  21082088.797                    21082096.645
 123776941.929 7  96449551.914 6  23553943.289                    23553952.840
 112557652.431 8  87707335.904 7  21418998.289                    21419006.777
 127203003.660 6  99119306.61543  24205941.023                    24205952.625
 123411796.762 7  96164937.818 7  23484451.297                    23484462.332
 108493227.291 8  84540166.81646  20645520.313                    20645526.020
 11  8 18  0 47  0.0000000  0  9G30G04G10G12G17G05G09G25G02
 120499246.324 7  93895417.00544  22930206.609                    22930215.148
 116918115.088 7  91105160.92745  22248755.508                    22248764.918
 110205197.638 8  85874276.04646  20971327.086                    20971335.645
 110743934.257 8  86294019.174 7  21073866.773                    21073873.910
 123835501.852 7  96495182.990 7  23565086.648                    23565096.469
 112480306.326 8  87647066.263 7  21404279.719                    21404287.898
 127285290.958 6  99183426.47643  24221599.688                    24221611.582
 123320068.398 7  96093461.270 7  23466995.352                    23467007.023
 108502706.419 8  84547553.16046  20647324.500                    20647330.367
 11  8 18  0 47 30.0000000  0  9G30G04G10G12G17G05G09G25G02
 120414458.583 7  93829348.69644  22914072.297                    22914081.105
 116998744.216 7  91167988.80045  22264098.555                    22264107.762
 110228019.230 8  85892059.10446  20975669.789                    20975677.531
 110701231.205 8  86260744.085 7  21065740.516                    21065747.707
 123894235.240 7  96540949.183 6  23576263.102                    23576273.109
 112403362.114 8  87587109.774 7  21389637.836                    21389646.031
 127367624.579 6  99247582.43443  24237266.961                    24237278.621
 123228608.085 7  96022193.548 7  23449591.398                    23449602.297
 108512433.667 8  84555132.85146  20649175.242                    20649181.082
 11  8 18  0 48  0.0000000  0  9G30G04G10G12G17G05G09G25G02
 120330051.586 7  93763577.07744  22898009.672                    22898018.504
 117079444.292 7  91230871.93545  22279455.703                    22279463.957
 110251460.436 8  85910324.99946  20980130.758                    20980138.480
 110659034.707 8  86227863.718 7  21057711.133                    21057718.129
 123953142.305 7  96586850.772 6  23587472.867                    23587482.715
 112326822.390 8  87527468.487 7  21375073.219                    21375081.047
 127450001.375 6  99311771.98843  24252942.438                    24252955.453
 123137418.621 7  95951136.885 6  23432238.055                    23432249.043
 108522407.832 8  84562904.94146  20651073.164                    20651079.184
 11  8 18  0 48 30.0000000  0  9G30G04G10G12G17G05G09G25G02
 120246027.995 7  93698104.20244  22882021.141                    22882029.199
 117160213.290 7  91293808.77945  22294825.805                    22294834.598
 110275521.096 8  85929073.55846  20984708.922                    20984717.059
 110617346.285 8  86195379.261 7  21049777.516                    21049784.836
 124012223.606 7  96632888.097 7  23598715.914                    23598726.086
 112250689.583 8  87468144.261 7  21360584.906                    21360593.258
 127532417.937 6  99375992.53443  24268626.813                    24268639.094
 123046502.596 7  95880293.288 6  23414937.711                    23414948.422
 108532627.586 8  84570868.38746  20653018.391                    20653023.738
 11  8 18  0 49  0.0000000  0  9G30G04G10G12G17G05G09G25G02
 120162390.222 7  93632931.98344  22866105.023                    22866113.918
 117241049.639 7  91356798.10945  22310208.094                    22310216.961
 110300199.505 8  85948303.49446  20989405.719                    20989413.656
 110576167.421 8  86163291.848 7  21041941.742                    21041948.738
 124071479.461 6  96679061.467 6  23609991.078                    23610002.012
 112174965.979 8  87409138.894 7  21346175.359                    21346183.406
 127614871.100 6  99440241.63443  24284316.789                    24284328.852
 122955862.448 7  95809664.659 6  23397689.008                    23397700.414
 108543091.353 8  84579021.97246  20655009.367                    20655015.016
 11  8 18  0 49 30.0000000  0  9G30G04G10G12G17G05G09G25G02
 120079141.174 7  93568062.66844  22850263.047                    22850271.883
 117321951.850 7  91419838.74845  22325603.336                    22325612.301
 110325494.874 8  85968014.18846  20994218.969                    20994226.387
 110535500.466 8  86131603.334 7  21034202.914                    21034210.410
 124130910.239 7  96725371.115 6  23621300.656                    23621310.801
 112099654.383 8  87350454.579 7  21331843.758                    21331851.918
 127697357.807 6  99504516.92643  24300013.938                    24300025.406
 122865501.032 7  95739253.248 6  23380493.688                    23380505.004
 108553798.175 8  84587364.95446  20657046.789                    20657052.715
 11  8 18  0 50  0.0000000  0  9G30G04G10G12G17G05G09G25G02
 119996283.347 7  93503498.20944  22834495.789                    22834504.520
 117402917.788 7  91482929.07344  22341010.461                    22341019.492
 110351406.313 8  85988204.92346  20999149.930                    20999157.914
 110495346.272 8  86100314.372 7  21026561.594                    21026568.801
 124190516.344 6  96771817.406 6  23632643.148                    23632653.461
 112024756.882 8  87292092.922 7  21317591.383                    21317599.691
 127779874.528 6  99568815.53743  24315716.531                    24315728.961
 122775420.824 7  95669060.955 6  23363352.398                    23363363.387
 108564746.466 8  84595896.08646  20659130.148                    20659135.758
 11  8 18  0 50 30.0000000  0  9G30G04G10G12G17G05G09G25G02
 119913819.929 7  93439241.05344  22818803.070                    22818811.941
 117483946.555 7  91546068.36045  22356429.898                    22356438.945
 110377933.482 8  86008875.45446  21004198.063                    21004205.875
 110455707.353 8  86069426.917 7  21019019.078                    21019026.504
 124250298.073 6  96818400.529 6  23644019.438                    23644030.020
 111950276.367 8  87234056.193 7  21303418.391                    21303426.809
 127862418.436 6  99633135.33443  24331424.922                    24331436.336
 122685624.876 7  95599090.133 7  23346264.500                    23346276.008
 108575935.910 8  84604615.13846  20661259.359                    20661265.000
 11  8 18  0 51  0.0000000  0  9G30G04G10G12G17G05G09G25G02
 119831753.455 7  93375293.20844  22803186.625                    22803195.465
 117565036.399 7  91609255.22345  22371860.633                    22371870.051
 110405074.804 8  86030024.54846  21009362.188                    21009370.555
 110416585.169 8  86038942.111 7  21011574.352                    21011581.746
 124310255.642 6  96865120.717 6  23655429.391                    23655439.211
 111876215.439 8  87176346.429 7  21289324.797                    21289333.148
 127944986.248 6  99697473.81043  24347136.344                    24347147.871
 122596115.784 7  95529342.830 6  23329231.422                    23329242.430
 108587364.982 8  84613520.90646  20663434.367                    20663440.016
 11  8 18  0 51 30.0000000  0  9G30G04G10G12G17G05G09G25G02
 119750086.346 7  93311656.55144  22787646.055                    22787655.039
 117646185.555 7  91672488.26945  22387303.391                    22387312.242
 110432829.462 8  86051651.56146  21014643.727                    21014652.156
 110377981.439 8  86008861.300 7  21004228.102                    21004235.555
 124370389.634 6  96911978.330 6  23666872.656                    23666882.793
 111802576.243 8  87118965.270 7  21275312.234                    21275319.902
 128027574.594 7  99761828.30544  24362853.172                    24362863.512
 122506895.971 7  95459820.951 6  23312253.508                    23312264.578
 108599032.171 8  84622612.21846  20665654.578                    20665660.176
 11  8 18  0 52  0.0000000  0  9G30G04G10G12G17G05G09G25G02
 119668821.502 7  93248333.35844  22772181.539                    22772190.563
 117727392.498 7  91735766.38745  22402756.227                    22402765.395
 110461196.687 7  86073755.92446  21020041.867                    21020050.520
 110339898.315 8  85979186.158 7  20996981.273                    20996988.625
 124430700.549 6  96958973.797 6  23678350.070                    23678359.469
 111729361.562 8  87061914.922 7  21261379.648                    21261387.410
 128110180.489 7  99826196.46544  24378572.758                    24378583.875
 122417968.362 7  95390526.759 6  23295331.133                    23295341.867
 108610936.649 8  84631888.43146  20667919.922                    20667925.750
 11  8 18  0 52 30.0000000  0  9G30G04G10G12G17G05G09G25G02
 119587961.248 7  93185325.41344  22756794.180                    22756802.754
 117808655.390 7  91799088.10045  22418220.063                    22418229.563
 110490174.841 8  86096336.31446  21025556.414                    21025564.863
 110302336.380 8  85949917.135 7  20989833.180                    20989840.895
 124491188.526 6  97006107.234 6  23689859.766                    23689869.527
 111656573.284 8  87005196.822 7  21247528.141                    21247536.777
 128192800.470 6  99890575.57544  24394294.555                    24394306.551
 122329335.238 7  95321462.033 6  23278464.695                    23278475.281
 108623076.541 8  84641348.08646  20670229.633                    20670235.496
 11  8 18  0 53  0.0000000  0  9G30G04G10G12G17G05G09G25G02
 119507508.456 7  93122634.96644  22741484.961                    22741492.840
 117889972.953 7  91862452.39545  22433694.461                    22433704.066
 110519763.126 8  86119392.13246  21031186.898                    21031195.344
 110265298.208 8  85921056.247 7  20982785.078                    20982792.148
 124551854.091 7  97053379.122 6  23701404.734                    23701413.840
 111584214.064 8  86948813.052 7  21233758.844                    21233767.172
 128275431.454 6  99954963.24143  24410018.211                    24410029.988
 122240999.525 7  95252629.044 6  23261654.742                    23261665.684
 108635451.165 8  84650990.64646  20672584.914                    20672590.500
 11  8 18  0 53 30.0000000  0  9G30G04G10G12G17G05G09G25G02
 119427465.894 7  93060264.19244  22726253.219                    22726261.355
 117971343.702 7  91925858.15245  22449179.148                    22449188.074
 110549960.704 8  86142922.72346  21036933.297                    21036942.246
 110228785.495 8  85892604.789 7  20975837.000                    20975844.633
 124612697.579 7  97100789.619 6  23712981.992                    23712991.348
 111512286.696 8  86892765.800 7  21220071.242                    21220079.246
 128358070.698 6 100019357.36143  24425744.414                    24425756.031
 122152964.089 7  95184030.060 7  23244902.633                    23244913.293
 108648059.432 8  84660815.27347  20674984.109                    20674990.242
 11  8 18  0 54  0.0000000  0  9G30G04G10G12G17G05G09G25G02
 119347836.073 7  92998215.04744  22711099.758                    22711108.508
 118052766.043 7  91989304.14545  22464673.352                    22464681.613
 110580765.942 8  86166926.82246  21042795.289                    21042803.141
 110192799.322 8  85864563.631 7  20968989.188                    20968996.523
 124673719.207 6  97148338.916 6  23724593.547                    23724604.465
 111440793.352 8  86837056.734 7  21206466.664                    21206474.633
 128440714.586 7 100083755.11243  24441471.492                    24441482.379
 122065231.346 7  95115666.950 6  23228207.805                    23228218.375
 108660900.000 8  84670820.91746  20677427.758                    20677432.875
 11  8 18  0 54 30.0000000  0  9G30G04G10G12G17G05G09G25G02
 119268621.566 7  92936489.48044  22696026.805                    22696034.848
 118134238.302 7  92052789.02645  22480176.641                    22480185.359
 110612177.670 7  86191403.50546  21048772.641                    21048780.984
 110157341.424 8  85836934.111 7  20962241.508                    20962248.594
 124734919.112 7  97196027.151 6  23736240.789                    23736249.660
 111369736.202 8  86781687.564 7  21192944.703                    21192952.957
 128523360.068 6 100148154.04543  24457198.406                    24457209.484
 121977803.894 7  95047541.700 6  23211570.695                    23211581.465
 108673971.215 8  84681006.26046  20679914.977                    20679920.434
 11  8 18  0 55  0.0000000  0  9G30G04G10G12G17G05G09G25G02
 119189825.036 7  92875089.64344  22681032.156                    22681040.023
 118215759.264 7  92116311.81444  22495689.953                    22495698.988
 110644195.353 8  86216352.35446  21054865.648                    21054873.605
 110122413.500 8  85809717.541 7  20955595.109                    20955602.305
 124796297.971 6  97243854.852 6  23747921.094                    23747930.109
 111299117.512 8  86726660.050 7  21179506.531                    21179514.773
 128606003.967 6 100212551.83543  24472925.031                    24472936.004
 121890684.511 7  94979656.510 6  23194992.602                    23195002.977
 108687272.278 8  84691370.71846  20682446.180                    20682452.066
 11  8 18  0 55 30.0000000  0  9G30G04G10G12G17G05G09G25G02
 119111449.280 7  92814017.67944  22666117.469                    22666125.566
 118297327.250 7  92179871.24345  22511211.664                    22511220.711
 110676817.503 8  86241772.21946  21061073.563                    21061081.191
 110088017.303 8  85782915.325 7  20949049.875                    20949056.715
 124857856.089 6  97291822.215 6  23759634.336                    23759644.410
 111228940.285 8  86671976.520 8  21166152.672                    21166160.320
 128688643.337 6 100276946.00343  24488650.398                    24488662.000
 121803875.988 7  94912013.565 6  23178473.359                    23178483.281
 108700802.083 8  84701913.42046  20685020.523                    20685026.152
 11  8 18  0 56  0.0000000  0  9G30G04G10G12G17G05G09G25G02
 119033496.912 7  92753275.62044  22651283.281                    22651291.355
 118378940.961 7  92243466.35345  22526742.016                    22526751.297
 110710042.923 8  86267662.15846  21067396.172                    21067403.777
 110054154.177 8  85756528.474 7  20942605.734                    20942613.395
 124919593.441 6  97339929.268 6  23771382.281                    23771392.848
 111159206.590 8  86617638.633 7  21152882.172                    21152890.328
 128771274.961 6 100341334.14743  24504375.406                    24504387.133
 121717381.017 7  94844614.948 6  23162013.422                    23162023.965
 108714559.329 8  84712633.34446  20687638.492                    20687644.234
 11  8 18  0 56 30.0000000  0  9G30G04G10G12G17G05G09G25G02
 118955970.504 7  92692865.47944  22636530.680                    22636538.824
 118460599.058 7  92307096.03744  22542280.945                    22542289.766
 110743870.213 8  86294021.08746  21073833.227                    21073840.926
 110020825.845 8  85730558.348 7  20936263.531                    20936270.914
 124981510.873 6  97388176.613 6  23783164.781                    23783174.559
 111089918.569 8  86563648.008 7  21139696.875                    21139705.199
 128853895.909 6 100405713.96743  24520096.906                    24520108.848
 121631202.165 7  94777462.673 7  23145614.219                    23145625.656
 108728543.294 8  84723529.93646  20690299.961                    20690305.266
 11  8 18  0 57  0.0000000  0  9G30G04G10G12G17G05G09G25G02
 118878872.139 7  92632788.85044  22621859.156                    22621867.004
 118542299.460 7  92370758.67345  22557828.344                    22557837.645
 110778297.601 8  86320847.64146  21080384.266                    21080392.621
 109988033.173 8  85705005.615 7  20930023.180                    20930030.199
 125043608.235 6  97436564.127 6  23794981.555                    23794991.797
 111021078.413 8  86510006.367 7  21126597.086                    21126605.418
 128936502.619 6 100470082.70743  24535816.578                    24535828.016
 121545341.710 7  94710558.486 6  23129275.453                    23129285.961
 108742751.537 8  84734601.29246  20693003.383                    20693009.328
 11  8 18  0 57 30.0000000  0  9G30G04G10G12G17G05G09G25G02
 118802204.797 7  92573048.12944  22607269.891                    22607277.941
 118624040.962 7  92434453.36644  22573383.086                    22573392.457
 110813324.171 8  86348141.08646  21087049.570                    21087057.781
 109955777.918 8  85679871.659 7  20923885.313                    20923892.801
 125105885.847 6  97485092.136 6  23806833.055                    23806843.070
 110952688.747 8  86456715.753 7  21113583.273                    21113591.113
 129019092.408 6 100534438.24243  24551533.469                    24551545.023
 121459802.563 7  94643904.656 6  23112998.117                    23113008.000
 108757183.593 8  84745847.03046  20695750.023                    20695755.219
 11  8 18  0 58  0.0000000  0  9G30G04G10G12G17G05G09G25G02
 118725971.232 7  92513645.38744  22592763.063                    22592771.754
 118705822.320 7  92498179.09544  22588945.391                    22588954.422
 110848949.018 8  86375900.70846  21093828.813                    21093836.594
 109924062.140 8  85655158.061 7  20917850.094                    20917857.336
 125168344.416 6  97533761.107 6  23818718.227                    23818728.547
 110884751.893 8  86403777.994 7  21100654.883                    21100663.316
 129101662.180 6 100598778.16343  24567245.477                    24567257.902
 121374587.635 7  94577503.496 6  23096781.969                    23096792.512
 108771838.574 8  84757266.49746  20698538.336                    20698544.309
 11  8 18  0 58 30.0000000  0  9G30G04G10G12G17G05G09G25G02
 118650173.810 7  92454582.50844  22578338.891                    22578347.547
 118787642.225 7  92561934.85444  22604515.125                    22604524.059
 110885170.734 8  86404125.43246  21100721.852                    21100729.563
 109892886.800 8  85630865.589 7  20911917.461                    20911924.797
 125230983.21116  97582571.31316  23830638.234                    23830648.285
 110817270.042 8  86351194.770 7  21087813.688                    21087821.824
 129184208.774 6 100663100.03243  24582953.258                    24582966.488
 121289699.378 7  94511356.867 6  23080627.922                    23080638.676
 108786715.086 8  84768858.59146  20701369.383                    20701375.250
 11  8 18  0 59  0.0000000  0  9G30G04G10G12G17G05G09G25G02
 118574815.053 7  92395861.44845  22563998.547                    22564007.625
 118869498.935 7  92625719.28444  22620092.039                    22620100.660
 110921987.530 8  86432813.86946  21107727.219                    21107735.559
 109862253.331 8  85606995.356 7  20906088.555                    20906095.516
 125293803.954 6  97631522.537 6  23842591.891                    23842603.082
 110750245.357 8  86298967.786 7  21075059.344                    21075067.613
 129266729.069 6 100727401.37542  24598657.219                    24598669.340
 121205140.391 7  94445466.824 6  23064536.820                    23064547.617
 108801811.789 8  84780622.25546  20704242.406                    20704248.020
 11  8 18  0 59 30.0000000  0  9G30G04G10G12G17G05G09G25G02
 118499897.425 7  92337484.11844  22549742.211                    22549750.824
 118951391.097 7  92689531.36444  22635675.797                    22635684.707
 110959398.025 8  86461964.91646  21114846.039                    21114854.531
 109832163.089 8  85583548.406 7  20900362.039                    20900369.277
 125356806.336 6  97680615.262 6  23854581.266                    23854591.875
 110683679.932 8  86247098.650 7  21062392.813                    21062400.586
 129349220.006 6 100791679.90343  24614355.109                    24614367.289
 121120913.309 7  94379835.394 6  23048509.039                    23048519.520
 108817127.695 8  84792556.73546  20707156.516                    20707162.684
 11  8 18  1  0  0.0000000  0  9G30G04G10G12G17G05G09G25G02
 118425423.306 7  92279452.37044  22535569.984                    22535578.531
 119033317.117 7  92753369.79744  22651265.734                    22651274.957
 110997400.400 8  86491577.18246  21122078.414                    21122086.484
 109802617.432 8  85560525.819 7  20894739.641                    20894747.383
 125419990.444 6  97729849.606 6  23866604.602                    23866615.090
 110617575.988 8  86195589.123 7  21049813.148                    21049821.465
 129431678.360 6 100855933.06743  24630046.648                    24630058.605
 121037020.488 7  94314464.406 6  23032544.734                    23032554.930
 108832660.984 8  84804660.59446  20710112.313                    20710118.406
 11  8 18  1  0 30.0000000  0  9G30G04G10G12G17G05G09G25G02
 118351395.353 7  92221768.29244  22521483.398                    22521491.941
 119115275.668 7  92817233.57645  22666862.063                    22666870.859
 111035993.719 8  86521649.89846  21129422.469                    21129430.367
 109773617.749 8  85537928.658 7  20889221.227                    20889228.793
 125483356.569 6  97779225.798 6  23878662.508                    23878673.152
 110551935.740 8  86144440.909 7  21037322.023                    21037330.352
 129514101.262 5 100920158.59243  24645730.359                    24645742.617
 120953464.727 7  94249356.084 6  23016644.633                    23016654.879
 108848410.819 8  84816933.20646  20713109.781                    20713115.578
 11  8 18  1  1  0.0000000  0  9G30G04G10G12G17G05G09G25G02
 118277816.219 7  92164433.93544  22507481.484                    22507490.266
 119197265.639 7  92881121.86844  22682463.992                    22682473.246
 111075176.364 8  86552181.84246  21136878.758                    21136886.523
 109745165.418 8  85515758.010 7  20883807.094                    20883814.496
 125546904.939 6  97828743.969 6  23890756.297                    23890766.332
 110486761.699 8  86093655.968 7  21024920.234                    21024928.090
 129596485.804 6 100984354.21342  24661408.141                    24661420.465
 120870248.862 7  94184512.614 6  23000808.953                    23000819.664
 108864376.335 8  84829373.87146  20716147.883                    20716153.555
 11  8 18  1  1 30.0000000  0  9G30G04G10G12G17G05G09G25G02
 118204688.280 7  92107451.16744  22493565.820                    22493574.590
 119279285.699 7  92945033.61344  22698072.031                    22698080.527
 111114946.946 8  86583171.92646  21144446.625                    21144454.586
 109717262.174 8  85494015.230 7  20878497.492                    20878504.480
 125610635.834 6  97878404.383 6  23902884.172                    23902894.059
 110422055.791 8  86043235.819 7  21012606.656                    21012615.105
 129678828.798 6 101048517.42243  24677078.016                    24677089.660
 120787375.316 7  94119935.888 7  22985038.539                    22985049.152
 108880556.028 8  84841981.43246  20719226.766                    20719232.438
 11  8 18  1  2  0.0000000  0  9G30G04G10G12G17G05G09G25G02
 118132013.908 7  92050821.79744  22479736.227                    22479744.227
 119361334.049 7  93008967.35044  22713685.156                    22713694.598
 111155303.994 8  86614618.97346  21152126.539                    21152134.441
 109689908.800 8  85472700.902 7  20873292.125                    20873299.035
 125674549.754 6  97928207.431 6  23915046.695                    23915056.520
 110357820.217 8  85993182.161 7  21000383.211                    21000391.031
 129761127.124 6 101112645.82143  24692739.063                    24692750.324
 120704846.717 7  94055627.943 6  22969334.305                    22969344.977
 108896948.588 8  84854754.85546  20722345.977                    20722351.793
 11  8 18  1  2 30.0000000  0  9G30G04G10G12G17G05G09G25G02
 118059795.497 7  91994547.72344  22465993.664                    22466001.879
 119443409.539 7  93072922.23844  22729303.828                    22729313.258
 111196245.481 8  86646521.44746  21159917.227                    21159925.266
 109663106.049 8  85451815.648 7  20868191.594                    20868198.934
 125738646.595 7  97978153.039 6  23927243.578                    23927254.320
 110294057.057 8  85943496.619 7  20988249.648                    20988257.359
 129843377.711 6 101176737.00743  24708391.102                    24708403.004
 120622665.547 7  93991590.692 7  22953695.719                    22953706.074
 108913553.087 8  84867693.43246  20725505.867                    20725511.340
 11  8 18  1  3  0.0000000  0  9G30G04G10G12G17G05G09G25G02
 117988035.730 7  91938631.04844  22452337.953                    22452346.398
 119525510.951 7  93136897.35544  22744927.133                    22744936.262
 111237770.183 8  86678878.35946  21167819.242                    21167827.250
 109636856.168 8  85431361.213 7  20863196.656                    20863203.582
 125802926.629 6  98028241.333 6  23939475.734                    23939486.664
 110230768.319 8  85894180.756 7  20976205.695                    20976213.738
 129925578.012 6 101240788.99943  24724033.570                    24724045.426
 120540834.560 7  93927826.321 7  22938123.641                    22938134.215
 108930368.414 8  84880796.29846  20728705.656                    20728711.320
 11  8 18  1  3 30.0000000  0  9G30G04G10G12G17G05G09G25G02
 117916736.921 7  91883073.55144  22438770.617                    22438778.355
 119607636.860 7  93200891.57644  22760554.875                    22760564.047
 111279876.227 8  86711688.27246  21175831.594                    21175839.414
 109611159.949 8  85411338.182 7  20858306.664                    20858313.891
 125867390.010 7  98078472.581 6  23951743.297                    23951753.199
 110167956.199 8  85845236.276 7  20964253.578                    20964261.434
 130007724.711 6 101304799.24243  24739665.820                    24739677.934
 120459356.328 7  93864336.808 7  22922618.523                    22922628.988
 108947393.173 8  84894062.36246  20731945.297                    20731951.105
 11  8 18  1  4  0.0000000  0  9G30G04G10G12G17G05G09G25G02
 117845901.541 7  91827877.16544  22425290.766                    22425299.039
 119689785.859 7  93264903.76244  22776187.984                    22776196.680
 111322562.156 8  86744950.04346  21183954.570                    21183962.457
 109586018.515 8  85391747.472 7  20853522.984                    20853530.066
 125932037.201 6  98128846.982 6  23964045.039                    23964054.660
 110105622.838 8  85796664.862 7  20952391.633                    20952399.457
 130089814.763 6 101368765.31643  24755287.273                    24755298.801
 120378233.425 7  93801124.186 7  22907181.070                    22907192.629
 108964626.257 8  84907490.74546  20735224.680                    20735230.492
 11  8 18  1  4 30.0000000  0  9G30G04G10G12G17G05G09G25G02
 117775531.928 7  91773043.71144  22411900.227                    22411908.254
 119771956.776 7  93328933.05044  22791824.242                    22791833.227
 111365826.301 8  86778662.36645  21192187.172                    21192195.324
 109561433.021 8  85372589.951 7  20848844.195                    20848851.000
 125996868.069 7  98179364.542 6  23976382.227                    23976392.703
 110043770.583 8  85748468.321 7  20940621.539                    20940629.496
 130171845.441 6 101432685.21243  24770897.508                    24770909.148
 120297468.397 7  93738190.422 7  22891812.219                    22891823.051
 108982066.482 8  84921080.53346  20738543.445                    20738549.016
 11  8 18  1  5  0.0000000  0  9G30G04G10G12G17G05G09G25G02
 117705630.347 7  91718574.94145  22398598.102                    22398606.543
 119854148.069 7  93392978.17744  22807465.063                    22807474.133
 111409667.080 8  86812824.03245  21200530.148                    21200537.867
 109537404.499 8  85353866.437 7  20844271.578                    20844278.512
 126061882.758 6  98230025.353 6  23988753.266                    23988763.434
 109982400.624 8  85700647.616 7  20928943.008                    20928951.063
 130253813.567 6 101496556.28243  24786495.414                    24786506.590
 120217063.686 7  93675537.417 6  22876511.688                    22876522.277
 108999712.398 8  84934830.61046  20741901.375                    20741907.387
 11  8 18  1  5 30.0000000  0  9G30G04G10G12G17G05G09G25G02
 117636199.443 7  91664472.94444  22385385.859                    22385394.148
 119936358.786 7  93457038.45044  22823108.836                    22823117.480
 111454082.673 8  86847433.59346  21208981.883                    21208989.563
 109513934.886 8  85335578.443 7  20839805.695                    20839812.891
 126127081.821 6  98280829.788 6  24001160.961                    24001169.910
 109921515.440 8  85653204.642 7  20917356.992                    20917364.918
 130335716.436 6 101560376.49043  24802080.547                    24802092.832
 120137022.101 7  93613167.365 7  22861280.023                    22861291.004
 109017563.342 8  84948740.45346  20745298.273                    20745304.387
 11  8 18  1  6  0.0000000  0  9G30G04G10G12G17G05G09G25G02
 117567241.539 7  91610739.53045  22372263.727                    22372271.324
 120018587.539 7  93521112.76344  22838756.797                    22838765.379
 111499071.485 7  86882489.81945  21217542.664                    21217550.141
 109491024.648 8  85317726.314 7  20835445.680                    20835452.594
 126192465.280 6  98331777.914 6  24013602.375                    24013612.449
 109861117.311 8  85606141.199 7  20905863.586                    20905871.945
 130417550.711 6 101624143.28543  24817652.852                    24817665.727
 120057346.164 7  93551082.222 7  22846118.852                    22846129.949
 109035617.950 8  84962808.98446  20748733.867                    20748739.984
 11  8 18  1  6 30.0000000  0  9G30G04G10G12G17G05G09G25G02
 117498758.876 7  91557376.42545  22359232.078                    22359240.438
 120100832.813 7  93585200.00744  22854406.984                    22854416.191
 111544631.431 8  86917991.07546  21226212.313                    21226220.785
 109468674.719 8  85300310.794 7  20831192.695                    20831199.879
 126258033.269 6  98382869.864 6  24026079.391                    24026089.379
 109801207.986 8  85559458.636 7  20894463.227                    20894471.488
 130499313.758 6 101687854.54042  24833212.016                    24833225.281
 119978038.288 7  93489283.880 6  22831026.984                    22831037.188
 109053874.783 8  84977035.09246  20752208.133                    20752213.734
 11  8 18  1  7  0.0000000  0  9G30G04G10G12G17G05G09G25G02
 117430753.870 7  91504385.53845  22346290.586                    22346298.820
 120183093.600 7  93649299.31044  22870060.664                    22870070.395
 111590761.168 7  86953936.33945  21234991.031                    21234998.695
 109446886.380 8  85283332.868 7  20827046.578                    20827053.844
 126323786.102 6  98434105.789 6  24038592.406                    24038602.191
 109741789.447 8  85513158.512 7  20883155.836                    20883164.465
 130581002.467 6 101751507.82442  24848757.820                    24848769.785
 119899101.144 7  93427774.429 6  22816005.617                    22816015.836
 109072332.960 8  84991418.09546  20755720.508                    20755726.195
 11  8 18  1  7 30.0000000  0  9G30G04G10G12G17G05G09G25G02
 117363228.886 7  91451768.68345  22333441.633                    22333449.707
 120265368.671 7  93713409.74144  22885717.813                    22885727.043
 111637458.734 8  86990324.05945  21243876.844                    21243885.074
 109425660.936 8  85266793.577 7  20823006.891                    20823014.941
 126389724.079 6  98485485.968 6  24051140.367                    24051149.934
 109682863.711 8  85467242.378 7  20871942.797                    20871951.070
 130662614.188 5 101815101.18743  24864287.789                    24864300.102
 119820537.291 7  93366555.843 6  22801055.477                    22801066.020
 109090991.260 8  85005957.04846  20759271.273                    20759277.406
 11  8 18  1  8  0.0000000  0  8G30G04G10G12G17G05G25G02
 117296186.644 7  91399528.01345  22320683.398                    22320692.086
 120347657.133 7  93777530.61044  22901375.828                    22901385.609
 111684722.793 8  87027153.21445  21252871.391                    21252879.305
 109404999.569 8  85250693.822 7  20819075.516                    20819083.113
 126455847.539 6  98537010.732 6  24063721.867                    24063732.934
 109624433.208 8  85421712.160 7  20860824.102                    20860832.113
 119742349.732 7  93305630.460 7  22786176.430                    22786187.195
 109109849.011 8  85020651.40346  20762859.844                    20762865.352
 11  8 18  1  8 30.0000000  0  8G30G04G10G12G17G05G25G02
 117229629.030 7  91347664.97145  22308018.266                    22308026.652
 120429957.368 7  93841660.59844  22917037.156                    22917046.566
 111732551.097 8  87064422.03346  21261972.711                    21261980.391
 109384902.996 8  85235034.163 7  20815251.367                    20815258.547
 126522156.091 6  98588679.729 6  24076340.680                    24076350.773
 109566499.296 8  85376568.871 7  20849799.570                    20849807.793
 119664540.539 7  93244999.916 6  22771370.719                    22771380.578
 109128904.592 8  85035499.91546  20766485.758                    20766491.457
 11  8 18  1  9  0.0000000  0  8G30G04G10G12G17G05G25G02
 117163558.197 7  91296181.23545  22295445.102                    22295453.930
 120512267.972 7  93905798.68944  22932701.156                    22932709.141
 111780941.719 8  87102129.01645  21271180.656                    21271189.070
 109365371.900 8  85219815.135 8  20811534.570                    20811542.059
 126588649.957 6  98640493.095 6  24088993.820                    24089004.043
 109509063.749 8  85331813.939 8  20838869.984                    20838877.844
 119587112.058 7  93184666.044 7  22756636.273                    22756645.926
 109148156.825 8  85050501.65946  20770149.406                    20770154.984
 11  8 18  1  9 30.0000000  0  8G30G04G10G12G17G05G25G02
 117097976.341 7  91245078.55045  22282965.391                    22282974.016
 120594587.845 7  93969944.01344  22948365.453                    22948374.047
 111829892.573 8  87140272.55846  21280496.094                    21280503.723
 109346407.399 8  85205037.612 7  20807925.492                    20807933.074
 126655329.255 6  98692450.936 6  24101682.617                    24101692.859
 109452128.634 8  85287448.941 7  20828035.461                    20828043.613
 119510066.814 7  93124630.812 6  22741975.016                    22741984.895
 109167604.375 8  85065655.59546  20773850.234                    20773856.066
 11  8 18  1 10  0.0000000  0  8G30G04G10G12G17G05G25G02
 117032886.216 7  91194359.01145  22270579.359                    22270587.797
 120676916.068 7  94034095.86944  22964032.172                    22964040.617
 111879402.381 8  87178851.63346  21289917.492                    21289925.551
 109328010.721 8  85190702.546 7  20804425.078                    20804432.699
 126722194.085 6  98744553.372 6  24114406.695                    24114416.602
 109395695.793 8  85243475.340 8  20817296.563                    20817304.547
 119433407.766 7  93064896.520 7  22727386.938                    22727396.918
 109187246.682 8  85080961.29546  20777587.781                    20777593.699
 11  8 18  1 10 30.0000000  0  8G30G04G10G12G17G05G25G02
 116968289.148 7  91144023.66945  22258286.914                    22258295.082
 120759250.829 7  94098252.77244  22979700.656                    22979710.125
 111929468.324 8  87217864.07646  21299444.930                    21299452.813
 109310181.912 8  85176809.967 7  20801032.297                    20801039.426
 126789244.361 6  98796800.315 6  24127166.469                    24127175.773
 109339766.664 8  85199894.234 8  20806653.461                    20806661.535
 119357136.653 8  93005464.512 6  22712873.352                    22712883.141
 109207081.423 8  85096416.93546  20781362.320                    20781367.762
 11  8 18  1 11  0.0000000  0  8G30G04G10G12G17G05G25G02
 116904188.235 7  91094074.96445  22246088.234                    22246096.680
 120841591.518 7  94162414.31044  22995369.578                    22995379.504
 111980089.262 8  87257308.95746  21309077.836                    21309085.531
 109292922.800 8  85163361.309 7  20797748.141                    20797754.934
 126856480.505 6  98849192.096 6  24139960.266                    24139970.371
 109284343.879 8  85156707.681 8  20796106.930                    20796114.672
 119281256.671 7  92946337.282 6  22698433.609                    22698443.777
 109227108.623 8  85112022.55746  20785173.211                    20785179.293
 11  8 18  1 11 30.0000000  0  8G30G04G10G12G17G05G25G02
 116840585.233 7  91044514.24245  22233985.164                    22233993.566
 120923936.768 7  94226579.42844  23011039.070                    23011048.582
 112031262.777 8  87297184.44746  21318815.641                    21318824.070
 109276233.861 8  85150356.953 7  20794571.984                    20794579.605
 126923902.584 7  98901728.776 6  24152790.719                    24152800.945
 109229428.558 8  85113916.555 8  20785656.922                    20785664.969
 119205769.914 7  92887516.486 6  22684068.867                    22684078.836
 109247326.568 8  85127776.80346  20789020.797                    20789026.395
 11  8 18  1 12  0.0000000  0  8G30G04G10G12G17G05G25G02
 116777482.478 7  90995343.31145  22221977.281                    22221985.988
 121006285.245 7  94290747.09044  23026709.969                    23026718.754
 112082987.111 8  87337489.12345  21328658.469                    21328666.602
 109260115.987 8  85137797.566 7  20791505.055                    20791512.742
 126991510.708 6  98954410.402 6  24165656.008                    24165665.609
 109175022.738 8  85071522.430 8  20775303.922                    20775312.016
 119130678.937 7  92829004.071 7  22669779.688                    22669789.578
 109267734.236 8  85143678.88946  20792904.164                    20792910.105
 11  8 18  1 12 30.0000000  0  8G30G04G10G12G17G05G25G02
 116714881.956 7  90946563.73145  22210064.938                    22210072.539
 121088636.069 7  94354916.58344  23042380.219                    23042389.785
 112135260.183 7  87378221.39645  21338605.406                    21338613.398
 109244569.896 8  85125683.745 7  20788546.766                    20788554.152
 127059304.891 7  99007237.023 6  24178556.961                    24178566.441
 109121128.000 8  85029526.570 8  20765047.719                    20765056.184
 119055986.149 7  92770801.945 7  22655565.969                    22655576.551
 109288330.448 8  85159727.88646  20796823.492                    20796829.109
 11  8 18  1 13  0.0000000  0  8G30G04G10G12G17G05G25G02
 116652786.336 7  90898177.57945  22198248.211                    22198256.703
 121170988.550 7  94419087.29944  23058051.055                    23058061.066
 112188080.451 7  87419380.04145  21348656.953                    21348665.395
 109229596.586 8  85114016.228 7  20785697.773                    20785705.125
 127127285.646 7  99060209.012 6  24191493.453                    24191503.809
 109067746.434 8  84987930.574 7  20754889.805                    20754897.594
 118981694.480 8  92712912.385 7  22641429.117                    22641439.199
 109309114.942 8  85175923.59746  20800778.852                    20800784.523
 11  8 18  1 13 30.0000000  0  8G30G04G10G12G17G05G25G02
 116591197.188 7  90850186.07945  22186528.594                    22186536.555
 121253340.815 7  94483257.88844  23073722.539                    23073732.168
 112241444.951 8  87460962.79245  21358811.992                    21358820.488
 109215196.390 8  85102795.311 7  20782957.367                    20782964.602
 127195452.262 6  99113325.849 6  24204464.805                    24204474.250
 109014879.544 8  84946735.624 8  20744829.484                    20744837.293
 118907805.767 8  92655336.825 7  22627368.398                    22627378.910
 109330085.333 8  85192264.15946  20804769.164                    20804774.770
 11  8 18  1 14  0.0000000  0  8G30G04G10G12G17G05G25G02
 116530116.847 7  90802591.03545  22174905.203                    22174913.434
 121335691.899 7  94547427.52744  23089393.188                    23089402.504
 112295352.085 7  87502968.35046  21369070.266                    21369078.230
 109201370.321 8  85092021.752 7  20780326.266                    20780333.699
 127263805.223 6  99166587.871 6  24217471.727                    24217480.809
 108962529.131 8  84905943.121 8  20734867.742                    20734875.273
 118834322.664 8  92598077.307 7  22613384.492                    22613395.176
 109351241.000 8  85208749.09546  20808795.297                    20808800.738
 11  8 18  1 14 30.0000000  0  8G30G04G10G12G17G05G25G02
 116469547.451 7  90755394.15045  22163378.859                    22163386.754
 121418040.854 6  94611595.49944  23105063.266                    23105073.086
 112349799.994 7  87545395.29145  21379430.656                    21379439.176
 109188119.321 8  85081696.300 7  20777804.508                    20777812.164
 127332344.445 6  99219995.033 6  24230514.313                    24230524.348
 108910696.798 8  84865554.320 8  20725004.344                    20725011.844
 118761247.613 7  92541135.773 7  22599478.961                    22599488.746
 109372580.796 8  85225377.52946  20812855.672                    20812861.605
 11  8 18  1 15  0.0000000  0  8G30G04G10G12G17G05G25G02
 116409491.176 7  90708597.08745  22151951.047                    22151959.301
 121500386.739 7  94675761.10944  23120733.883                    23120743.508
 112404786.605 7  87588242.01745  21389894.648                    21389902.129
 109175443.836 8  85071819.302 7  20775392.523                    20775400.250
 127401070.228 6  99273547.600 5  24243592.828                    24243601.727
 108859384.227 8  84825570.537 8  20715239.633                    20715247.449
 118688583.188 7  92484514.184 7  22585651.344                    22585661.898
 109394103.811 8  85242148.71946  20816951.195                    20816956.789
 11  8 18  1 15 30.0000000  0  8G30G04G10G12G17G05G25G02
 116349950.144 7  90662201.50645  22140620.555                    22140629.227
 121582728.376 7  94739923.40644  23136403.086                    23136413.027
 112460309.638 8  87631506.71145  21400460.250                    21400468.301
 109163344.935 8  85062391.590 7  20773090.188                    20773097.336
 127469982.496 6  99327245.467 5  24256706.430                    24256715.496
 108808593.234 8  84785993.176 8  20705574.609                    20705582.051
 118616331.815 7  92428214.479 7  22571902.406                    22571912.836
 109415808.983 8  85259061.85046  20821081.828                    20821087.637
 11  8 18  1 16  0.0000000  0  8G30G04G10G12G17G05G25G02
 116290926.018 7  90616208.71145  22129388.578                    22129396.270
 121665064.417 6  94804081.34844  23152070.633                    23152080.734
 112516366.622 8  87675187.49345  21411127.508                    21411135.723
 109151822.349 8  85053412.971 7  20770897.625                    20770904.852
 127539081.396 6  99381088.775 6  24269855.438                    24269865.602
 108758324.955 8  84746823.120 8  20696008.750                    20696016.887
 118544495.598 7  92372238.251 7  22558232.328                    22558242.945
 109437694.889 8  85276115.80146  20825246.766                    20825252.473
 11  8 18  1 16 30.0000000  0  8G30G04G10G12G17G05G25G02
 116232420.839 7  90570620.27345  22118255.305                    22118263.379
 121747393.991 7  94868234.25644  23167737.898                    23167747.539
 112572955.486 7  87719282.70445  21421896.313                    21421904.020
 109140876.877 8  85044884.024 8  20768814.320                    20768821.879
 127608366.524 6  99435077.174 5  24283039.758                    24283048.887
 108708581.251 8  84708061.816 7  20686542.461                    20686550.395
 118473076.814 7  92316587.303 7  22544641.820                    22544652.012
 109459760.146 8  85293309.52246  20829445.461                    20829451.301
 11  8 18  1 17  0.0000000  0  8G30G04G10G12G17G05G25G02
 116174437.034 7  90525438.08745  22107221.320                    22107229.574
 121829715.974 6  94932381.22544  23183402.617                    23183412.945
 112630074.509 8  87763791.03645  21432765.555                    21432773.648
 109130509.604 8  85036805.639 7  20766841.805                    20766849.258
 127677838.444 6  99489211.098 5  24296260.297                    24296268.996
 108659363.650 8  84669710.475 7  20677176.766                    20677184.871
 118402078.236 7  92261263.776 7  22531131.281                    22531141.906
 109482004.288 8  85310642.63246  20833678.297                    20833684.383
 11  8 18  1 17 30.0000000  0  9G30G04G10G12G17G05G29G25G02
 116116976.393 7  90480663.57745  22096287.148                    22096295.215
 121912029.493 7  94996521.61844  23199066.648                    23199076.887
 112687721.413 7  87808710.70745  21443735.758                    21443743.391
 109120720.943 8  85029178.115 7  20764978.859                    20764986.516
 127747496.769 6  99543490.299 5  24309515.617                    24309525.051
 108610673.603 8  84631770.212 8  20667911.453                    20667919.672
 129552329.52516 100949913.55615  24652995.703                    24653004.270
 118331502.111 7  92206269.427 7  22517700.992                    22517711.332
 109504426.006 8  85328114.09646  20837944.961                    20837950.953
 11  8 18  1 18  0.0000000  0  9G30G04G10G12G17G05G29G25G02
 116060041.504 7  90436298.73545  22085452.234                    22085460.461
 121994334.013 7  95060655.00544  23214729.102                    23214739.012
 112745894.391 8  87854040.30245  21454805.570                    21454813.633
 109111512.032 7  85022002.336 7  20763226.594                    20763234.227
 127817342.194 6  99597915.266 5  24322806.289                    24322816.102
 108562513.515 8  84594242.906 8  20658746.758                    20658754.750
 129472860.988 6 100887990.147 6  24637873.406                    24637882.824
 118261351.324 7  92151606.521 7  22504351.672                    22504362.078
 109527024.911 8  85345723.63746  20842245.523                    20842251.125
 11  8 18  1 18 30.0000000  0  9G30G04G10G12G17G05G29G25G02
 116003634.215 7  90392344.99645  22074717.992                    22074726.770
 122076628.706 7  95124780.73344  23230389.555                    23230398.344
 112804591.738 8  87899778.49845  21465975.148                    21465982.996
 109102883.346 8  85015278.693 8  20761584.820                    20761591.855
 127887374.480 6  99652485.844 6  24336133.383                    24336143.000
 108514884.709 8  84557129.581 7  20649683.367                    20649691.129
 129393315.739 7 100826006.944 6  24622736.656                    24622746.508
 118191628.249 7  92097276.887 7  22491084.063                    22491094.129
 109549799.731 8  85363470.24146  20846579.430                    20846584.859
 11  8 18  1 19  0.0000000  0  9G30G04G10G12G17G05G29G25G02
 115947756.190 7  90348803.68145  22064085.445                    22064093.676
 122158911.700 7  95188897.37344  23246047.500                    23246055.605
 112863810.317 7  87945922.84645  21477243.688                    21477251.789
 109094834.985 8  85009007.248 7  20760052.977                    20760060.348
 127957593.217 6  99707201.795 6  24349495.031                    24349505.469
 108467788.262 8  84520431.083 8  20640721.234                    20640729.035
 129313693.696 6 100763963.893 6  24607584.727                    24607594.426
 118122334.819 7  92043282.030 7  22477897.641                    22477907.633
 109572749.121 8  85381352.88746  20850946.781                    20850951.898
 11  8 18  1 19 30.0000000  0  9G30G04G10G12G17G05G29G25G02
 115892408.933 7  90305675.92145  22053553.023                    22053561.230
 122241181.871 7  95253003.99644  23261702.203                    23261711.430
 112923547.369 8  87992471.21045  21488611.461                    21488619.375
 109087367.220 8  85003188.212 7  20758631.758                    20758639.813
 128027998.325 6  99762062.852 5  24362893.469                    24362902.625
 108421225.117 8  84484148.150 8  20631860.828                    20631868.355
 129233995.035 6 100701861.063 6  24592418.453                    24592427.730
 118053472.920 7  91989623.428 7  22464793.258                    22464804.012
 109595871.243 8  85399370.12946  20855346.508                    20855352.539
 11  8 18  1 20  0.0000000  0  9G30G04G10G12G17G05G29G25G02
 115837594.502 7  90262963.37045  22043121.883                    22043130.438
 122323438.332 6  95317099.93043  23277354.742                    23277363.785
 112983800.929 8  88039422.03245  21500077.805                    21500085.273
 109080480.247 8  84997821.738 7  20757321.086                    20757328.945
 128098589.896 6  99817069.248 6  24376326.398                    24376335.883
 108375197.186 8  84448282.272 8  20623101.602                    20623109.648
 129154220.619 6 100639699.211 6  24577238.086                    24577247.988
 117985045.114 7  91936303.088 7  22451771.883                    22451782.203
 109619165.781 8  85417521.72846  20859779.313                    20859785.016
 11  8 18  1 20 30.0000000  0  9G30G04G10G12G17G05G29G25G02
 115783314.563 7  90220667.31645  22032792.820                    22032801.230
 122405679.959 6  95381184.30843  23293005.125                    23293013.922
 113044568.431 8  88086773.33545  21511640.898                    21511648.641
 109074174.137 8  84992907.883 7  20756121.438                    20756128.855
 128169367.561 6  99872220.685 6  24389795.445                    24389804.934
 108329705.521 8  84412834.255 8  20614444.930                    20614452.742
 129074370.778 7 100577478.607 6  24562043.836                    24562052.500
 117917053.447 7  91883322.560 7  22438834.266                    22438844.098
 109642630.887 8  85435806.23346  20864244.727                    20864250.324
 11  8 18  1 21  0.0000000  0  9G30G04G10G12G17G05G29G25G02
 115729571.371 7  90178789.49545  22022566.352                    22022574.387
 122487906.043 6  95445256.57344  23308653.102                    23308660.840
 113105847.841 7  88134523.54445  21523301.820                    21523310.074
 109068449.883 8  84988447.423 7  20755032.055                    20755039.738
 128240331.666 6  99927517.363 6  24403298.109                    24403309.125
 108284751.799 8  84377805.413 8  20605890.656                    20605897.879
 128994446.223 6 100515199.809 6  24546834.602                    24546842.855
 117849500.516 7  91830683.920 7  22425979.000                    22425989.551
 109666266.180 8  85454223.36246  20868742.156                    20868748.242
 11  8 18  1 21 30.0000000  0  9G30G04G10G12G17G05G29G25G02
 115676366.728 7  90137331.34845  22012441.469                    22012450.082
 122570115.727 6  95509316.08244  23324296.406                    23324305.707
 113167637.129 7  88182671.03745  21535060.234                    21535068.387
 109063307.925 8  84984440.705 7  20754053.859                    20754061.188
 128311482.058 6  99982959.195 6  24416838.305                    24416848.508
 108240337.294 8  84343196.734 8  20597438.258                    20597446.180
 128914447.611 6 100452863.263 6  24531610.773                    24531620.129
 117782388.687 7  91778389.000 7  22413208.016                    22413218.270
 109690070.465 8  85472772.16946  20873271.898                    20873277.793
 11  8 18  1 22  0.0000000  0  9G30G04G10G12G17G05G29G25G02
 115623702.115 8  90096294.00845  22002419.844                    22002428.082
 122652307.822 6  95573361.83244  23339938.094                    23339947.145
 113229933.468 7  88231213.65745  21546914.953                    21546923.188
 109058748.383 8  84980887.804 7  20753185.992                    20753193.543
 128382818.566 6 100038546.038 6  24430413.180                    24430424.090
 108196463.123 8  84309009.112 8  20589089.836                    20589097.023
 128834374.957 6 100390469.085 6  24516373.523                    24516383.199
 117715719.822 7  91726439.225 7  22400521.094                    22400531.266
 109714042.102 8  85491451.36946  20877833.828                    20877839.340
 11  8 18  1 22 30.0000000  0  9G30G04G10G12G17G05G29G25G02
 115571579.714 7  90055679.18345  21992501.055                    21992509.340
 122734481.563 6  95637393.32444  23355575.156                    23355583.602
 113292734.887 7  88280149.82045  21558865.633                    21558873.715
 109054771.749 8  84977789.127 7  20752429.359                    20752436.570
 128454341.284 6 100094277.985 6  24444024.398                    24444034.477
 108153131.279 8  84275244.063 8  20580843.930                    20580851.535
 128754229.650 6 100328018.251 6  24501122.023                    24501132.121
 117649496.626 7  91674836.747 7  22387919.352                    22387930.098
 109738180.836 8  85510260.78246  20882427.039                    20882432.715
 11  8 18  1 23  0.0000000  0  9G30G04G10G12G17G05G29G25G02
 115520001.532 7  90015488.42945  21982686.289                    21982694.465
 122816636.195 7  95701409.90844  23371208.352                    23371217.285
 113356039.120 8  88329477.81645  21570912.242                    21570919.680
 109051378.182 7  84975144.783 7  20751783.531                    20751790.969
 128526050.090 6 100150154.939 6  24457669.883                    24457679.723
 108110342.902 8  84241902.505 8  20572701.430                    20572709.254
 128674012.264 6 100265511.283 6  24485857.039                    24485866.543
 117583721.472 7  91623583.385 7  22375402.328                    22375413.453
 109762485.704 8  85529199.64746  20887052.070                    20887057.996
 11  8 18  1 23 30.0000000  0  9G30G04G10G12G17G05G29G25G02
 115468969.089 7  89975722.90845  21972974.719                    21972983.086
 122898770.702 7  95765410.84044  23386837.359                    23386847.359
 113419843.523 8  88379195.53345  21583053.367                    21583061.953
 109048568.186 8  84972955.175 7  20751248.750                    20751256.219
 128597944.802 6 100206176.781 6  24471350.344                    24471360.375
 108068099.138 8  84208985.313 8  20564662.430                    20564670.160
 128593723.179 6 100202948.410 6  24470579.586                    24470587.918
 117518396.371 7  91572680.722 7  22362971.914                    22362982.098
 109786955.538 8  85548267.05346  20891708.633                    20891714.027
 11  8 18  1 24  0.0000000  0  9G30G04G10G12G17G05G29G25G02
 115418483.903 8  89936383.84045  21963368.141                    21963376.102
 122980883.846 6  95829395.13244  23402462.883                    23402473.141
 113484145.870 8  88429301.26645  21595290.063                    21595297.926
 109046341.412 8  84971220.020 8  20750825.109                    20750832.699
 128670025.523 6 100262343.557 6  24485067.023                    24485077.031
 108026400.919 8  84176493.226 8  20556727.617                    20556735.156
 128513362.778 6 100140329.934 6  24455286.430                    24455295.727
 117453523.368 7  91522130.356 7  22350626.859                    22350637.352
 109811588.927 8  85567461.91446  20896396.516                    20896401.844
 11  8 18  1 24 30.0000000  0  9G30G04G10G12G17G05G29G25G02
 115368547.938 8  89897472.75645  21953865.461                    21953873.410
 123062975.168 7  95893362.38544  23418084.492                    23418093.984
 113548943.830 8  88479793.18745  21607620.258                    21607628.273
 109044698.527 8  84969939.844 7  20750512.648                    20750519.816
 128742291.989 6 100318655.071 6  24498819.734                    24498829.285
 107985249.909 8  84144427.537 8  20548896.813                    20548904.594
 128432931.833 6 100077656.594 6  24439981.367                    24439990.336
 117389104.827 7  91471934.119 7  22338368.195                    22338378.652
 109836385.209 8  85586783.67446  20901114.797                    20901120.289
 11  8 18  1 25  0.0000000  0  8G30G04G10G12G05G29G25G02
 115319163.376 7  89858991.33545  21944467.617                    21944476.094
 123145044.024 7  95957312.14944  23433701.688                    23433711.152
 113614235.410 8  88530669.73645  21620045.094                    21620052.680
 109043640.189 7  84969115.165 8  20750311.148                    20750318.672
 107944647.714 8  84112789.484 8  20541170.695                    20541178.160
 128352431.498 6 100014929.109 5  24424661.359                    24424671.336
 117325143.494 7  91422094.138 7  22326197.164                    22326207.191
 109861343.493 8  85606231.70046  20905864.516                    20905869.883
 11  8 18  1 25 30.0000000  0  8G30G04G10G12G05G29G25G02
 115270331.288 8  89820940.39945  21935175.508                    21935183.430
 123227088.950 6  96021243.25943  23449314.453                    23449323.449
 113680017.623 8  88581928.60645  21632562.891                    21632570.527
 109043165.939 8  84968745.626 7  20750220.977                    20750228.438
 107904594.911 8  84081579.538 8  20533548.664                    20533557.148
 128271861.983 6  99952147.702 5  24409330.367                    24409339.180
 117261640.992 7  91372611.706 7  22314112.953                    22314123.328
 109886462.204 8  85625804.72846  20910644.258                    20910649.914
 11  8 18  1 26  0.0000000  0  8G30G04G10G12G05G29G25G02
 115222053.802 8  89783321.61945  21925988.344                    21925996.422
 123309109.850 6  96085155.66143  23464922.773                    23464931.398
 113746288.649 8  88633568.38245  21645174.000                    21645181.953
 109043276.577 8  84968831.848 7  20750241.992                    20750249.277
 107865093.118 8  84050798.956 8  20526031.688                    20526039.145
 128191224.280 7  99889313.129 6  24393985.219                    24393994.398
 117198599.859 7  91323488.781 7  22302116.516                    22302126.543
 109911741.483 8  85645502.88346  20915454.328                    20915460.477
 11  8 18  1 26 30.0000000  0  8G30G04G10G12G05G29G25G02
 115174332.205 8  89746136.01645  21916906.945                    21916915.762
 123391105.068 6  96149048.04343  23480525.391                    23480534.750
 113813045.166 8  88685586.44745  21657877.813                    21657885.137
 109043971.538 7  84969373.382 7  20750374.367                    20750382.066
 107826143.105 8  84020448.332 8  20518619.930                    20518627.723
 128110518.671 7  99826425.702 6  24378628.328                    24378637.242
 117136021.859 7  91274726.757 7  22290208.289                    22290219.012
 109937179.443 8  85665324.68946  20920295.250                    20920300.941
 11  8 18  1 27  0.0000000  0  8G30G04G10G12G05G29G25G02
 115127167.751 7  89709384.53645  21907932.031                    21907940.047
 123473073.683 6  96212919.70943  23496123.344                    23496133.289
 113880284.497 8  88737980.72945  21670672.680                    21670679.961
 109045250.543 8  84970370.011 7  20750617.563                    20750625.016
 107787745.835 8  83990528.419 8  20511313.000                    20511320.836
 128029745.526 6  99763485.691 6  24363257.578                    24363266.203
 117073908.849 7  91226327.047 7  22278388.359                    22278398.805
 109962774.766 8  85685269.10846  20925165.914                    20925171.582
 11  8 18  1 27 30.0000000  0  8G30G04G10G12G05G29G25G02
 115080562.302 8  89673068.64045  21899063.492                    21899071.309
 123555015.193 6  96276770.24143  23511716.945                    23511725.605
 113948004.679 7  88790749.70545  21683559.117                    21683567.172
 109047113.958 8  84971822.019 7  20750972.070                    20750979.766
 107749902.496 8  83961040.146 8  20504111.758                    20504119.613
 127948905.886 6  99700493.832 6  24347873.555                    24347882.973
 117012263.271 7  91178291.579 7  22266657.883                    22266668.328
 109988526.852 8  85705335.68646  20930065.992                    20930071.984
 11  8 18  1 28  0.0000000  0  8G30G04G10G12G05G29G25G02
 115034517.532 8  89637189.62745  21890301.141                    21890308.703
 123636928.724 6  96340598.98643  23527304.555                    23527313.570
 114016203.007 8  88843891.26745  21696537.266                    21696544.605
 109049561.878 8  84973729.507 8  20751438.031                    20751445.457
 107712614.158 8  83931984.325 8  20497016.008                    20497023.527
 127868000.558 6  99637450.785 6  24332477.727                    24332487.262
 116951087.272 8  91130622.010 7  22255016.609                    22255026.402
 110014434.645 8  85725523.58546  20934996.422                    20935002.117
 11  8 18  1 28 30.0000000  0  8G30G04G10G12G05G29G25G02
 114989034.741 8  89601748.52445  21881646.016                    21881654.180
 123718813.380 6  96404405.20944  23542887.211                    23542896.426
 114084876.914 8  88897403.40645  21709604.836                    21709613.238
 109052594.097 8  84976092.281 7  20752014.867                    20752022.410
 107675881.846 8  83903361.781 8  20490025.984                    20490033.832
 127787030.072 6  99574356.968 6  24317069.445                    24317078.539
 116890382.749 8  91083319.824 7  22243464.602                    22243474.891
 110040496.914 8  85745831.85046  20939956.203                    20939961.691
 11  8 18  1 29  0.0000000  0  8G30G04G10G12G05G29G25G02
 114944115.420 8  89566746.47045  21873098.586                    21873106.152
 123800668.096 7  96468188.13944  23558463.148                    23558472.848
 114154023.595 7  88951283.92045  21722763.625                    21722771.934
 109056210.479 8  84978910.250 7  20752703.109                    20752710.465
 107639706.382 8  83875173.145 8  20483142.063                    20483149.535
 127705994.889 6  99511212.738 6  24301648.906                    24301658.605
 116830151.650 8  91036386.539 7  22232002.906                    22232013.215
 110066712.488 8  85766259.58146  20944944.516                    20944950.180
 11  8 18  1 29 30.0000000  0  8G30G04G10G12G05G29G25G02
 114899761.753 8  89532185.19245  21864658.422                    21864666.273
 123882492.821 7  96531947.67244  23574033.711                    23574043.430
 114223641.396 8  89005531.58045  21736010.969                    21736018.871
 109060411.796 8  84982184.005 7  20753502.531                    20753509.770
 107604089.479 8  83847419.755 8  20476364.203                    20476371.992
 127624896.257 6  99448019.023 6  24286216.961                    24286226.031
 116770396.752 8  90989824.310 7  22220631.844                    22220641.996
 110093081.458 8  85786806.83346  20949962.523                    20949968.152
 11  8 18  1 30  0.0000000  0  8G30G04G10G12G05G29G25G02
 114855974.925 8  89498065.59645  21856326.164                    21856334.313
 123964286.406 7  96595682.93944  23589598.742                    23589607.777
 114293727.622 8  89060144.23545  21749348.383                    21749355.957
 109065197.580 8  84985913.190 7  20754413.367                    20754420.887
 107569031.944 8  83820102.215 8  20469692.906                    20469700.273
 127543734.704 6  99384776.319 6  24270772.391                    24270781.113
 116711119.785 8  90943634.504 7  22209351.859                    22209361.676
 110119602.531 8  85807472.61946  20955008.633                    20955014.422
 11  8 18  1 30 30.0000000  0  8G30G04G10G12G05G29G25G02
 114812756.345 8  89464388.80445  21848101.188                    21848110.055
 124046048.219 7  96659393.44544  23605157.164                    23605166.645
 114364279.237 7  89115119.53145  21762773.617                    21762781.645
 109070567.760 8  84990097.754 7  20755435.234                    20755442.211
 107534534.446 8  83793221.093 8  20463128.438                    20463135.918
 127462511.157 6  99321485.289 6  24255315.813                    24255324.914
 116652322.802 8  90897818.727 7  22198163.555                    22198173.293
 110146274.569 8  85828256.02746  20960084.594                    20960090.266
 11  8 18  1 31  0.0000000  0  8G30G04G10G12G05G29G25G02
 114770107.112 8  89431155.64345  21839985.883                    21839993.621
 124127776.919 7  96723078.11943  23620710.109                    23620719.180
 114435293.358 7  89170455.22045  21776287.055                    21776295.539
 109076521.738 8  84994737.215 7  20756568.305                    20756575.426
 107500597.698 8  83766776.897 8  20456670.492                    20456677.945
 127381225.744 6  99258146.073 6  24239847.875                    24239856.211
 116594007.408 8  90852378.174 7  22187066.406                    22187076.324
 110173096.030 8  85849155.87646  20965188.602                    20965193.773
 11  8 18  1 31 30.0000000  0  8G30G04G10G12G05G29G25G02
 114728028.518 8  89398367.12345  21831977.852                    21831986.164
 124209471.852 7  96786736.46144  23636255.617                    23636265.172
 114506767.680 7  89226149.49845  21789888.141                    21789896.488
 109083059.414 8  84999831.506 7  20757812.297                    20757819.430
 107467222.869 8  83740770.569 8  20450319.453                    20450327.148
 127299879.313 6  99194759.292 6  24224368.063                    24224376.145
 116536175.532 8  90807314.414 7  22176060.695                    22176071.363
 110200066.031 8  85870171.46546  20970321.102                    20970327.051
 11  8 18  1 32  0.0000000  0  8G30G04G10G12G05G29G25G02
 114686522.757 8  89366024.99145  21824079.969                    21824088.063
 124291132.850 6  96850368.35844  23651795.609                    23651804.840
 114578700.366 7  89282200.95045  21803576.680                    21803584.734
 109090181.347 8  85005381.059 7  20759167.461                    20759174.992
 107434410.965 8  83715202.879 8  20444075.414                    20444083.344
 127218473.454 6  99131326.223 6  24208876.594                    24208885.430
 116478829.984 7  90762629.589 7  22165148.344                    22165158.816
 110227184.563 8  85891302.79346  20975481.352                    20975486.887
 11  8 18  1 32 30.0000000  0  8G30G04G10G12G05G29G25G02
 114645590.822 8  89334129.98745  21816291.000                    21816299.051
 124372758.909 6  96913973.04943  23667328.781                    23667337.297
 114651088.098 7  89338606.97945  21817351.852                    21817359.262
 109097886.620 8  85011385.172 7  20760633.555                    20760640.832
 107402162.704 8  83690074.394 8  20437938.867                    20437946.367
 127137008.246 6  99067846.924 6  24193374.203                    24193382.645
 116421972.306 8  90718324.905 7  22154328.875                    22154339.375
 110254450.078 8  85912548.65846  20980670.031                    20980675.789
 11  8 18  1 33  0.0000000  0  8G30G04G10G12G05G29G25G02
 114605234.267 8  89302683.31045  21808611.453                    21808619.480
 124454349.436 6  96977550.07843  23682854.133                    23682864.496
 114723928.593 7  89395365.82345  21831212.336                    21831220.387
 109106175.490 8  85017844.024 7  20762211.484                    20762218.551
 107370479.214 8  83665386.000 8  20431909.414                    20431917.379
 127055485.059 6  99004322.409 6  24177860.453                    24177869.668
 116365604.652 8  90674402.095 7  22143602.406                    22143612.590
 110281862.139 8  85933908.71946  20985885.945                    20985891.781
 11  8 18  1 33 30.0000000  0  8G30G04G10G12G05G29G25G02
 114565454.085 8  89271685.76045  21801041.320                    21801049.590
 124535903.744 6  97041098.87143  23698373.711                    23698383.281
 114797218.980 7  89452475.21345  21845159.289                    21845166.832
 109115047.311 8  85024757.127 7  20763899.500                    20763907.012
 107339360.785 8  83641137.896 8  20425987.758                    20425995.504
 126973904.311 7  98940753.062 6  24162336.586                    24162345.336
 116309728.776 8  90630862.465 7  22132969.328                    22132979.586
 110309419.363 8  85955381.87746  20991130.250                    20991136.254
 11  8 18  1 34  0.0000000  0  8G30G04G10G12G05G29G25G02
 114526251.668 8  89241138.42845  21793581.625                    21793589.813
 124617420.826 6  97104618.64943  23713885.297                    23713895.051
 114870956.351 8  89509932.93545  21859190.945                    21859197.988
 109124501.785 8  85032124.236 7  20765698.352                    20765705.918
 107308808.507 8  83617330.967 8  20420173.930                    20420181.434
 126892266.694 6  98877139.388 6  24146801.375                    24146810.234
 116254346.513 8  90587707.453 7  22122430.852                    22122440.855
 110337120.810 8  85976967.43746  20996401.398                    20996407.215
 11  8 18  1 34 30.0000000  0  8G30G04G10G12G05G29G25G02
 114487628.244 8  89211042.25045  21786231.609                    21786239.395
 124698900.064 6  97168108.92343  23729390.859                    23729399.762
 114945138.625 7  89567737.31845  21873307.273                    21873315.137
 109134539.006 8  85039945.424 7  20767608.586                    20767615.879
 107278823.030 8  83593965.684 8  20414468.078                    20414475.648
 126810573.151 6  98813482.160 6  24131255.250                    24131264.992
 116199459.842 8  90544938.628 7  22111986.109                    22111996.695
 110364965.636 8  85998664.71146  21001700.102                    21001705.668
 11  8 18  1 35  0.0000000  0  8G30G04G10G12G05G29G25G02
 114449585.103 8  89181398.23445  21778992.242                    21779000.426
 124780340.869 7  97231569.23243  23744889.523                    23744896.922
 115019762.774 7  89625886.01445  21887507.344                    21887515.938
 109145157.933 8  85048219.908 7  20769629.164                    20769636.621
 107249405.115 8  83571042.664 8  20408869.625                    20408877.590
 126728824.667 6  98749782.062 6  24115699.617                    24115707.891
 116145070.639 8  90502557.450 7  22101636.195                    22101646.141
 110392952.942 8  86020473.00846  21007025.867                    21007031.844
 11  8 18  1 35 30.0000000  0  8G30G04G10G12G05G29G25G02
 114412123.210 8  89152207.14845  21771863.602                    21771871.672
 124861742.371 7  97294998.94543  23760378.859                    23760386.414
 115094825.952 7  89684376.80245  21901791.945                    21901799.953
 109156358.488 8  85056947.595 7  20771761.047                    20771768.094
 107220555.325 8  83548562.341 8  20403379.945                    20403387.441
 126647021.839 6  98686039.614 6  24100133.188                    24100141.523
 116091180.622 8  90460565.227 7  22091381.484                    22091391.516
 110421081.642 8  86042391.49746  21012378.742                    21012384.449
 11  8 18  1 36  0.0000000  0  8G30G04G10G12G05G29G25G02
 114375243.828 8  89123469.95745  21764845.523                    21764853.719
 124943103.797 7  97358397.46043  23775862.406                    23775869.113
 115170325.646 7  89743207.73245  21916159.430                    21916167.234
 109168140.055 8  85066128.034 7  20774002.469                    20774009.898
 107192274.307 8  83526525.208 8  20397998.219                    20398005.723
 126565165.400 7  98622255.435 6  24084556.180                    24084564.813
 116037791.606 8  90418963.383 7  22081221.727                    22081231.871
 110449350.743 7  86064419.37646  21017757.898                    21017763.539
 11  8 18  1 36 30.0000000  0  8G30G04G10G12G05G29G25G02
 114338948.564 7  89095187.93845  21757939.086                    21757946.621
 125024424.844 7  97421764.48743  23791336.188                    23791345.023
 115246259.367 7  89802376.87545  21930608.664                    21930616.715
 109180502.824 8  85075761.345 7  20776355.445                    20776362.770
 107164562.906 8  83504931.944 8  20392724.906                    20392732.477
 126483256.614 7  98558430.461 6  24068968.891                    24068977.949
 115984905.870 8  90377753.739 7  22071157.805                    22071168.043
 110477759.862 8  86086556.35446  21023164.188                    21023169.574
 11  8 18  1 37  0.0000000  0  8G30G04G10G12G05G29G25G02
 114303237.969 8  89067361.49045  21751143.609                    21751151.434
 125105704.575 7  97485099.39943  23806803.086                    23806812.379
 115322624.014 7  89861881.79645  21945140.484                    21945149.277
 109193445.692 8  85085846.688 7  20778818.063                    20778825.582
 107137421.590 8  83483782.887 8  20387560.008                    20387567.547
 126401295.913 7  98494565.005 6  24053373.047                    24053381.559
 115932524.722 8  90336937.254 7  22061190.156                    22061200.484
 110506307.504 8  86108801.27946  21028596.602                    21028602.035
 11  8 18  1 37 30.0000000  0  8G30G04G10G12G05G29G25G02
 114268113.636 7  89039991.87145  21744459.688                    21744467.691
 125186942.624 7  97548401.82143  23822263.125                    23822272.070
 115399417.144 7  89921720.59545  21959753.594                    21959762.148
 109206968.805 8  85096384.166 7  20781391.945                    20781398.609
 107110851.141 8  83463078.672 8  20382503.703                    20382511.453
 126319284.505 7  98430660.084 6  24037766.688                    24037775.359
 115880650.340 8  90296515.661 7  22051318.906                    22051329.121
 110534993.299 8  86131153.85546  21034055.641                    21034061.168
 11  8 18  1 38  0.0000000  0  8G30G04G10G12G05G29G25G02
 114233576.749 7  89013080.01545  21737887.484                    21737895.875
 125268138.411 7  97611671.27544  23837713.422                    23837723.289
 115476636.473 7  89981891.51545  21974448.133                    21974456.625
 109221071.579 8  85107373.337 7  20784075.039                    20784082.738
 107084852.276 8  83442819.841 8  20377556.445                    20377563.449
 126237223.463 6  98366716.453 6  24022150.695                    24022158.918
 115829284.714 8  90256490.495 7  22041544.273                    22041554.141
 110563816.531 8  86153613.52146  21039540.227                    21039545.941
 11  8 18  1 38 30.0000000  0  8G30G04G10G12G05G29G25G02
 114199628.011 7  88986626.43645  21731427.164                    21731435.422
 125349291.008 7  97674907.07544  23853156.898                    23853165.676
 115554278.671 7  90042391.93845  21989222.508                    21989230.973
 109235753.209 8  85118813.570 7  20786868.977                    20786876.445
 107059425.235 8  83423006.588 8  20372717.844                    20372725.289
 126155112.967 6  98302734.290 6  24006525.078                    24006534.523
 115778429.115 8  90216862.765 7  22031866.781                    22031876.715
 110592775.669 8  86176179.09946  21045050.906                    21045056.590
 11  8 18  1 39  0.0000000  0  8G30G04G10G12G05G29G25G02
 114166268.836 7  88960632.28245  21725079.000                    21725087.500
 125430400.115 7  97738108.98944  23868591.211                    23868599.859
 115632341.164 7  90103219.84945  22004077.766                    22004085.523
 109251013.103 8  85130704.387 7  20789773.281                    20789780.215
 107034571.002 8  83403639.685 8  20367988.070                    20367995.828
 126072954.549 6  98238714.776 6  23990890.938                    23990900.207
 115728085.755 8  90177634.178 7  22022286.625                    22022296.621
 110621870.468 8  86198850.37646  21050587.375                    21050592.781
 11  8 18  1 39 30.0000000  0  8G30G04G10G12G05G29G25G02
 114133500.397 7  88935098.42745  21718843.453                    21718851.320
 125511465.306 7  97801276.68344  23884017.547                    23884026.379
 115710821.529 7  90164373.39145  22019012.375                    22019019.848
 109266851.124 8  85143045.702 7  20792786.594                    20792794.633
 107010289.930 8  83384719.387 8  20363367.742                    20363374.945
 125990749.377 6  98174658.830 6  23975248.023                    23975256.609
 115678256.430 8  90138806.152 7  22012804.336                    22012814.602
 110651100.234 8  86221626.83746  21056149.789                    21056155.309
 11  8 18  1 40  0.0000000  0  8G30G04G10G12G05G29G25G02
 114101322.943 7  88910025.08845  21712720.438                    21712728.539
 125592485.293 6  97864409.13643  23899434.945                    23899443.734
 115789716.522 7  90225850.00845  22034025.438                    22034032.906
 109283266.597 8  85155836.974 8  20795910.836                    20795918.453
 106986582.146 8  83366245.827 8  20358856.055                    20358863.551
 125908497.517 6  98110566.487 6  23959596.109                    23959604.840
 115628942.167 8  90100379.440 7  22003420.188                    22003430.602
 110680463.406 8  86244507.24546  21061737.031                    21061742.438
 11  8 18  1 40 30.0000000  0  8G30G04G10G12G05G29G25G02
 114069737.691 7  88885413.20445  21706710.117                    21706717.594
 125673459.777 6  97927506.14643  23914843.563                    23914852.348
 115869023.315 7  90287647.48445  22049116.516                    22049125.098
 109300258.035 8  85169077.060 7  20799143.891                    20799151.758
 106963447.970 8  83348219.219 8  20354454.133                    20354461.348
 125826200.502 6  98046438.948 6  23943935.695                    23943944.605
 115580144.854 8  90062355.578 7  21994134.406                    21994144.816
 110709959.173 8  86267490.97446  21067350.086                    21067355.344
 11  8 18  1 41  0.0000000  0  8G30G04G10G12G05G29G25G02
 114038746.093 8  88861263.92645  21700812.445                    21700820.410
 125754388.651 6  97990567.61243  23930243.445                    23930252.352
 115948739.718 7  90349764.15945  22064286.578                    22064294.027
 109317825.590 8  85182766.079 8  20802486.648                    20802494.309
 106940888.521 8  83330640.455 8  20350160.734                    20350168.535
 125743859.327 6  97982276.965 6  23928266.680                    23928275.059
 115531866.744 8  90024736.269 7  21984947.469                    21984957.613
 110739587.541 8  86290577.99846  21072988.328                    21072993.617
 11  8 18  1 41 30.0000000  0  8G30G04G10G12G05G29G25G02
 114008348.364 7  88837577.40345  21695027.773                    21695035.563
 125835270.521 6  98053592.48543  23945635.016                    23945644.211
 116028862.296 7  90412197.36045  22079534.078                    22079540.746
 109335968.010 8  85196903.028 7  20805939.359                    20805946.395
 106918903.422 8  83313509.235 8  20345977.156                    20345984.527
 125661474.628 7  97918081.092 6  23912588.625                    23912598.195
 115484108.715 8  89987522.233 7  21975859.313                    21975869.289
 110769346.503 8  86313766.78346  21078651.375                    21078656.805
 11  8 18  1 42  0.0000000  0  8G30G04G10G12G05G29G25G02
 113978545.529 8  88814354.43145  21689356.445                    21689364.797
 125916104.938 6  98116580.33343  23961018.070                    23961026.957
 116109388.386 7  90474944.99045  22094856.828                    22094864.969
 109354685.519 8  85211488.110 7  20809501.430                    20809508.617
 106897493.315 8  83296826.058 8  20341903.016                    20341910.273
 125579047.472 7  97853852.108 6  23896903.391                    23896912.527
 115436872.564 8  89950714.851 7  21966870.672                    21966880.383
 110799235.730 8  86337057.10046  21084338.914                    21084344.965
 11  8 18  1 42 30.0000000  0  8G30G04G10G12G05G29G25G02
 113949338.868 7  88791596.02945  21683798.320                    21683806.598
 125996891.944 6  98179531.27044  23976390.781                    23976400.328
 116190315.628 7  90538005.16545  22110256.547                    22110265.023
 109373976.797 8  85226520.290 7  20813172.195                    20813179.270
 106876658.931 8  83280591.507 8  20337938.438                    20337945.703
 125496579.152 6  97789591.071 6  23881210.039                    23881219.516
 115390160.328 8  89914315.719 7  21957981.219                    21957991.453
 110829254.898 8  86360448.65246  21090051.438                    21090056.926
 11  8 18  1 43  0.0000000  0  8G30G04G10G12G05G29G25G02
 113920729.351 7  88769302.93945  21678354.266                    21678362.547
 126077630.972 7  98242444.77443  23991754.695                    23991764.191
 116271641.442 7  90601375.94645  22125733.008                    22125740.820
 109393841.018 8  85241998.908 7  20816952.414                    20816959.535
 106856400.718 8  83264805.908 8  20334083.133                    20334090.766
 125414070.551 7  97725298.650 6  23865510.000                    23865518.500
 115343973.705 8  89878326.174 7  21949192.492                    21949202.613
 110859403.104 8  86383940.77346  21095788.445                    21095794.285
 11  8 18  1 43 30.0000000  0  8G30G04G10G12G05G29G25G02
 113892717.026 7  88747475.17745  21673023.859                    21673032.105
 126158320.835 6  98305319.98843  24007109.625                    24007118.719
 116353362.143 7  90665054.43345  22141283.273                    22141291.383
 109414276.981 8  85257923.037 7  20820841.047                    20820848.383
 106836718.186 8  83249468.909 8  20330337.648                    20330345.445
 125331522.163 7  97660975.237 6  23849800.961                    23849810.066
 115298313.591 8  89842746.874 7  21940503.508                    21940513.695
 110889678.668 8  86407532.12946  21101549.531                    21101555.367
 11  8 18  1 44  0.0000000  0  8G30G04G10G12G05G29G25G02
 113865303.782 7  88726114.23945  21667806.992                    21667815.504
 126238961.926 6  98368157.14443  24022455.094                    24022463.820
 116435476.192 7  90729039.42145  22156908.391                    22156916.758
 109435284.966 8  85274292.904 7  20824838.586                    20824846.172
 106817612.475 8  83234581.354 8  20326702.070                    20326709.391
 125248935.916 7  97596622.313 6  23834086.023                    23834094.652
 115253182.509 8  89807579.824 7  21931915.266                    21931925.258
 110920082.214 8  86431223.22046  21107335.234                    21107340.914
 11  8 18  1 44 30.0000000  0  8G30G04G10G12G05G29G25G02
 113838489.552 7  88705220.07545  21662704.695                    21662712.973
 126319553.092 7  98430955.42343  24037791.664                    24037799.570
 116517979.698 7  90793327.86445  22172608.797                    22172617.125
 109456863.679 8  85291107.482 7  20828945.227                    20828952.484
 106799083.119 8  83220142.925 8  20323175.648                    20323183.441
 125166312.151 7  97532240.205 6  23818363.055                    23818371.707
 115208581.240 8  89772825.619 7  21923428.117                    21923438.223
 110950612.093 8  86455012.73446  21113145.148                    21113150.117
 11  8 18  1 45  0.0000000  0  8G30G04G10G12G05G29G25G02
 113812275.067 7  88684793.25145  21657715.930                    21657724.410
 126400093.817 6  98493714.42743  24053117.547                    24053126.070
 116600869.887 7  90857917.63245  22188382.625                    22188390.875
 109479011.731 8  85308365.708 7  20833159.758                    20833167.066
 106781130.835 8  83206154.152 8  20319759.938                    20319767.539
 125083652.046 7  97467829.747 6  23802633.375                    23802642.176
 115164511.354 8  89738485.483 7  21915041.711                    21915052.426
 110981267.317 8  86478899.93746  21118978.391                    21118983.102
 11  8 18  1 45 30.0000000  0  8G30G04G10G12G05G29G25G02
 113786661.240 7  88664834.45845  21652841.883                    21652850.297
 126480583.828 6  98556433.91243  24068434.438                    24068442.727
 116684143.991 7  90922806.56444  22204228.859                    22204236.129
 109501728.641 8  85326067.186 7  20837482.461                    20837489.461
 106763755.509 8  83192614.963 8  20316453.102                    20316461.094
 125000956.353 6  97403391.575 6  23786896.648                    23786905.801
 115120974.464 8  89704560.669 7  21906757.086                    21906767.266
 111012047.225 8  86502884.28146  21124835.445                    21124840.559
 11  8 18  1 46  0.0000000  0  8G30G04G10G12G05G29G25G02
 113761648.907 8  88645344.36645  21648082.063                    21648090.125
 126561022.802 6  98619113.59443  24083742.055                    24083750.492
 116767799.684 7  90987992.81645  22220148.281                    22220156.086
 109525013.719 8  85344211.397 7  20841913.586                    20841920.930
 106746957.777 8  83179525.849 8  20313256.859                    20313264.195
 124918226.824 7  97338927.061 6  23771153.859                    23771162.785
 115077972.299 8  89671052.523 7  21898573.859                    21898584.004
 111042951.677 8  86526965.66846  21130716.313                    21130721.957
 11  8 18  1 46 30.0000000  0  8G30G04G10G12G05G29G25G02
 113737238.644 8  88626323.42145  21643437.023                    21643445.035
 126641410.076 6  98681753.01643  24099039.219                    24099047.750
 116851833.901 7  91053474.02945  22236139.820                    22236147.566
 109548865.947 8  85362797.531 7  20846452.375                    20846459.422
 106730737.237 8  83166886.479 8  20310170.172                    20310177.980
 124835464.301 7  97274436.859 6  23755404.836                    23755412.957
 115035506.128 8  89637962.049 7  21890492.820                    21890502.797
 111073979.568 8  86551143.25546  21136621.031                    21136626.617
 11  8 18  1 47  0.0000000  0  8G30G04G10G12G05G29G25G02
 113713430.896 8  88607771.94845  21638906.391                    21638914.652
 126721745.002 6  98744351.63643  24114325.813                    24114335.328
 116936243.701 7  91119247.89945  22252202.266                    22252209.328
 109573284.098 8  85381824.647 7  20851099.070                    20851106.754
 106715094.312 8  83154697.211 8  20307193.219                    20307200.813
 124752669.454 7  97209921.450 6  23739648.641                    23739657.465
 114993577.255 8  89605290.236 7  21882514.055                    21882524.059
 111105129.769 8  86575416.14846  21142548.664                    21142554.031
 11  8 18  1 47 30.0000000  0  8G30G04G10G12G05G29G25G02
 113690226.434 8  88589690.57045  21634491.063                    21634499.289
 126802027.539 6  98806909.49143  24129603.180                    24129612.934
 117021026.309 7  91185312.29245  22268335.625                    22268343.543
 109598267.417 8  85401292.155 7  20855853.336                    20855860.652
 106700029.199 8  83142958.185 8  20304326.555                    20304333.953
 124669843.866 7  97145382.119 6  23723887.672                    23723896.313
 114952187.242 8  89573038.320 7  21874637.695                    21874647.848
 111136402.185 8  86599784.27046  21148498.992                    21148505.250
 11  8 18  1 48  0.0000000  0  8G30G04G10G12G05G29G25G02
 113667625.564 8  88572079.51745  21630189.844                    21630197.961
 126882256.822 6  98869425.78643  24144870.500                    24144879.617
 117106178.501 7  91251664.65645  22284539.344                    22284547.527
 109623814.573 8  85421199.012 7  20860714.813                    20860721.887
 106685541.273 8  83131668.917 8  20301569.672                    20301577.453
 124586988.323 7  97080819.435 6  23708120.828                    23708128.742
 114911337.263 8  89541207.200 7  21866864.453                    21866874.129
 111167795.420 8  86624246.54146  21154473.242                    21154478.961
 11  8 18  1 48 30.0000000  0  8G30G04G10G12G05G29G25G02
 113645628.963 8  88554939.32745  21626004.234                    21626012.219
 126962432.520 6  98931900.30443  24160128.094                    24160135.773
 117191697.554 7  91318302.89445  22300813.766                    22300821.250
 109649924.645 8  85441544.508 7  20865683.094                    20865690.570
 106671631.034 8  83120829.787 8  20298922.625                    20298930.133
 124504103.854 7  97016234.219 6  23692347.906                    23692356.867
 114871028.781 8  89509798.031 7  21859193.617                    21859203.730
 111199308.896 8  86648802.51346  21160470.398                    21160476.207
 11  8 18  1 49  0.0000000  0  8G30G04G10G12G05G29G25G02
 113624237.310 8  88538270.51345  21621933.805                    21621941.191
 127042554.320 6  98994332.87943  24175373.180                    24175382.070
 117277581.118 7  91385225.16944  22317156.578                    22317164.594
 109676596.856 8  85462328.031 7  20870758.906                    20870766.320
 106658298.921 8  83110441.147 8  20296385.516                    20296393.051
 124421191.600 6  96951627.370 6  23676569.992                    23676579.227
 114831263.342 8  89478812.012 7  21851626.336                    21851636.449
 111230942.161 8  86673451.83246  21166489.875                    21166495.602
 11  8 18  1 49 30.0000000  0  8G30G04G10G12G05G29G25G02
 113603451.269 8  88522073.58545  21617978.461                    21617986.164
 127122621.925 6  99056723.17343  24190609.047                    24190618.938
 117363826.479 7  91452429.34444  22333567.547                    22333576.082
 109703830.099 8  85483548.726 7  20875941.234                    20875948.031
 106645544.932 8  83100502.993 8  20293958.578                    20293966.324
 124338253.232 7  96887000.174 6  23660787.406                    23660796.781
 114792042.410 8  89448250.267 7  21844163.203                    21844173.531
 111262694.700 8  86698194.07046  21172532.133                    21172537.695
 11  8 18  1 50  0.0000000  0  8G30G04G10G12G05G29G25G02
 113583271.300 8  88506348.92045  21614138.055                    21614146.082
 127202634.963 6  99119070.99643  24205835.461                    24205844.848
 117450430.433 7  91519912.97744  22350048.383                    22350056.188
 109731623.199 8  85505205.667 7  20881230.164                    20881237.219
 106633368.840 8  83091015.154 8  20291641.273                    20291648.949
 124255289.875 7  96822353.463 6  23645000.227                    23645009.527
 114753367.246 8  89418113.795 7  21836803.039                    21836813.758
 111294565.783 8  86723028.70146  21178597.172                    21178602.367
 11  8 18  1 50 30.0000000  0  8G30G04G10G12G05G29G25G02
 113563696.694 8  88491095.97045  21610412.898                    21610421.219
 127282591.992 6  99181375.16443  24221051.289                    24221060.781
 117537389.089 7  91587672.99445  22366596.203                    22366604.027
 109759974.461 7  85527297.554 7  20886625.141                    20886632.289
 106621769.632 8  83081976.826 8  20289434.258                    20289441.746
 124172301.265 6  96757687.075 6  23629208.141                    23629216.832
 114715238.085 8  89388402.769 7  21829547.688                    21829557.766
 111326553.239 7  86747954.00546  21184684.172                    21184689.891
 11  8 18  1 51  0.0000000  0  8G30G04G10G12G05G29G25G02
 113544728.913 8  88476315.85945  21606804.156                    21606811.203
 127362493.695 6  99243636.20543  24236256.961                    24236265.563
 117624700.753 7  91655708.04345  22383210.188                    22383219.625
 109788883.350 8  85549823.947 7  20892126.586                    20892133.609
 106610748.243 8  83073388.761 8  20287336.867                    20287344.113
 124089289.816 7  96693002.908 6  23613411.414                    23613419.805
 114677657.204 8  89359118.984 7  21822396.133                    21822406.121
 111358657.934 8  86772970.67546  21190792.867                    21190798.793
 11  8 18  1 51 30.0000000  0  8G30G04G10G12G05G29G25G02
 113526368.190 8  88462008.77845  21603309.961                    21603317.582
 127442339.285 6  99305853.51943  24251450.352                    24251459.934
 117712362.456 7  91724015.84745  22399892.430                    22399901.035
 109818348.524 8  85572783.815 7  20897733.453                    20897740.617
 106600304.255 8  83065250.618 8  20285349.547                    20285357.094
 124006256.565 7  96628301.737 6  23597610.281                    23597618.953
 114640625.566 8  89330263.163 7  21815349.352                    21815359.297
 111390878.720 8  86798077.81346  21196924.633                    21196930.344
 11  8 18  1 52  0.0000000  0  8G30G04G10G12G05G29G25G02
 113508615.375 8  88448175.39345  21599931.594                    21599939.840
 127522129.055 6  99368027.38043  24266633.219                    24266643.809
 117800371.659 7  91792594.43844  22416640.188                    22416648.207
 109848368.944 8  85596176.341 7  20903446.500                    20903453.641
 106590438.065 8  83057562.700 8  20283472.070                    20283479.129
 123923202.999 7  96563584.707 6  23581806.188                    23581815.375
 114604145.030 8  89301836.780 7  21808407.250                    21808417.348
 111423215.711 8  86823275.49546  21203078.188                    21203083.840
 11  8 18  1 52 30.0000000  0  9G30G04G10G12G26G05G29G25G02
 113491470.531 8  88434815.73545  21596668.852                    21596676.895
 127601862.294 6  99430157.15443  24281806.430                    24281816.199
 117888725.072 7  91861441.27844  22433453.531                    22433460.668
 109878943.467 7  85620000.639 7  20909264.258                    20909271.254
 130492000.54315 101682162.52452  24831811.977                    24831823.008
 106581149.315 8  83050324.732 8  20281704.086                    20281711.984
 123840129.864 7  96498852.461 6  23565997.781                    23566006.418
 114568216.500 8  89273840.517 7  21801570.297                    21801580.426
 111455667.876 7  86848562.92046  21209253.438                    21209258.918
 11  8 18  1 53  0.0000000  0  9G30G04G10G12G26G05G29G25G02
 113474933.250 8  88421929.50845  21593522.008                    21593530.125
 127681538.136 6  99492242.21343  24296967.859                    24296978.332
 117977419.323 7  91930553.70644  22450331.305                    22450338.965
 109910070.349 8  85644255.353 7  20915187.664                    20915194.656
 130399785.187 5 101610306.53242  24814264.500                    24814275.516
 106572437.220 8  83043536.114 8  20280046.250                    20280053.945
 123757038.007 7  96434105.592 6  23550186.383                    23550194.855
 114532840.464 8  89246274.753 7  21794838.367                    21794848.523
 111488233.235 8  86873938.54346  21215450.594                    21215455.984
 11  8 18  1 53 30.0000000  0  9G30G04G10G12G26G05G29G25G02
 113459004.967 8  88409517.83145  21590491.039                    21590498.762
 127761157.127 6  99554282.98343  24312119.688                    24312129.254
 118066452.661 7  91999930.29045  22467274.094                    22467281.422
 109941749.023 8  85668940.026 7  20921215.516                    20921223.051
 130307436.473 5 101538346.58242  24796690.039                    24796702.113
 106564302.860 8  83037197.684 8  20278498.594                    20278505.766
 123673929.708 7  96369345.875 6  23534371.234                    23534379.090
 114498019.168 8  89219141.251 7  21788212.469                    21788222.355
 111520912.999 8  86899403.31346  21221669.375                    21221675.109
 11  8 18  1 54  0.0000000  0  9G30G04G10G12G26G05G29G25G02
 113443685.342 8  88397580.43645  21587576.000                    21587583.883
 127840718.608 6  99616278.94542  24327259.117                    24327268.293
 118155821.517 7  92069568.39044  22484280.320                    22484287.922
 109973977.683 8  85694053.266 7  20927348.789                    20927356.004
 130214956.902 5 101466284.73742  24779093.266                    24779103.391
 106556745.295 8  83031308.705 8  20277060.320                    20277067.512
 123590805.741 7  96304573.968 6  23518552.875                    23518561.523
 114463753.201 8  89192440.470 7  21781691.867                    21781701.809
 111553705.788 8  86924956.16546  21227909.484                    21227914.973
 11  8 18  1 54 30.0000000  0  9G30G04G10G12G26G05G29G25G02
 113428974.401 8  88386117.34545  21584776.766                    21584784.730
 127920221.668 6  99678229.35142  24342389.344                    24342397.051
 118245523.022 7  92139465.67244  22501349.063                    22501357.371
 110006755.410 8  85719594.357 7  20933586.172                    20933593.867
 130122348.800 6 101394122.77943  24761469.383                    24761481.203
 106549763.953 8  83025868.729 8  20275731.570                    20275739.074
 123507666.838 7  96239790.447 6  23502732.172                    23502740.906
 114430043.462 8  89166173.132 7  21775277.125                    21775287.398
 111586610.667 8  86950596.34146  21234170.984                    21234176.832
 11  8 18  1 55  0.0000000  0  9G30G04G10G12G26G05G29G25G02
 113414872.014 8  88375128.46145  21582093.086                    21582101.277
 127999665.982 6  99740134.02643  24357506.852                    24357514.629
 118335553.726 7  92209619.49744  22518481.516                    22518489.426
 110040079.972 8  85745561.549 7  20939927.719                    20939934.598
 130029615.265 6 101321862.99943  24743823.148                    24743834.805
 106543358.140 8  83020877.207 8  20274512.844                    20274519.988
 123424514.302 7  96174996.256 6  23486908.516                    23486916.539
 114396890.752 8  89140339.836 7  21768968.320                    21768977.789
 111619626.702 8  86976323.14746  21240454.008                    21240459.488
 11  8 18  1 55 30.0000000  0  9G30G04G10G12G26G05G29G25G02
 113401378.600 8  88364614.10245  21579525.234                    21579533.340
 128079051.236 6  99801992.65042  24372612.758                    24372621.172
 118425911.077 7  92280027.83144  22535676.250                    22535684.789
 110073950.171 8  85771953.901 7  20946372.656                    20946380.133
 129936759.088 6 101249507.70743  24726153.219                    24726164.512
 106537527.984 8  83016334.254 8  20273403.289                    20273410.809
 123341349.430 7  96110192.476 6  23471083.211                    23471091.465
 114364296.360 8  89114941.594 7  21762765.867                    21762775.543
 111652753.404 8  87002136.18646  21246757.781                    21246763.129
 11  8 18  1 56  0.0000000  0  9G30G04G10G12G26G05G29G25G02
 113388494.210 8  88354574.32246  21577073.273                    21577081.230
 128158377.236 6  99863805.08642  24387708.227                    24387717.031
 118516592.435 6  92350688.60244  22552932.344                    22552940.762
 110108364.959 8  85798770.628 7  20952921.930                    20952929.156
 129843782.841 6 101177058.82843  24708460.555                    24708470.551
 106532273.022 8  83012239.504 8  20272403.328                    20272411.152
 123258173.389 7  96045379.987 6  23455254.938                    23455263.500
 114332261.279 8  89089979.173 7  21756669.688                    21756679.551
 111685990.303 8  87028035.07146  21253082.445                    21253087.551
 11  8 18  1 56 30.0000000  0  9G30G04G10G12G26G05G29G25G02
 113376219.287 8  88345009.44546  21574737.398                    21574745.359
 128237643.955 6  99925571.43542  24402791.094                    24402801.715
 118607594.661 7  92421599.43644  22570249.648                    22570257.492
 110143322.810 8  85826010.512 7  20959574.141                    20959581.328
 129750689.870 6 101104519.02143  24690744.766                    24690755.348
 106527593.422 8  83008593.095 8  20271512.766                    20271520.035
 123174987.765 7  95980560.049 6  23439425.094                    23439434.117
 114300786.786 8  89065453.598 7  21750680.680                    21750690.125
 111719336.656 8  87054019.25046  21259427.945                    21259433.570
 11  8 18  1 57  0.0000000  0  9G30G04G10G12G26G05G29G25G02
 113364553.557 8  88335919.27846  21572517.859                    21572525.484
 128316850.948 5  99987291.12842  24417865.180                    24417874.551
 118698914.844 6  92492758.04744  22587627.156                    22587634.988
 110178822.036 8  85853672.239 7  20966329.359                    20966336.488
 129657482.985 6 101031890.45043  24673007.453                    24673019.715
 106523488.316 8  83005394.320 8  20270731.734                    20270738.879
 123091793.531 7  95915733.397 6  23423594.672                    23423602.617
 114269873.652 8  89041365.451 7  21744798.047                    21744807.840
 111752792.183 8  87080088.49846  21265794.289                    21265799.527
 11  8 18  1 57 30.0000000  0  9G30G04G10G12G26G05G29G25G02
 113353497.306 8  88327304.03745  21570413.086                    21570421.770
 128395997.72115 100048964.00652  24432924.992                    24432936.703
 118790550.279 6  92564162.29544  22605064.086                    22605072.594
 110214861.422 8  85881754.882 7  20973187.633                    20973194.359
 129564165.003 6 100959175.30143  24655249.875                    24655260.875
 106519957.299 8  83002642.914 8  20270059.508                    20270066.766
 123008592.180 7  95850901.183 6  23407761.602                    23407770.063
 114239522.924 8  89017715.520 7  21739022.188                    21739032.254
 111786356.349 8  87106242.40346  21272181.023                    21272186.953
 11  8 18  1 58  0.0000000  0  9G30G04G10G12G26G05G29G25G02
 113343050.722 8  88319163.84745  21568425.523                    21568433.383
 128475084.42215 100110590.09252  24447974.164                    24447986.609
 118882498.366 7  92635810.14644  22622561.734                    22622570.148
 110251439.676 8  85910257.410 7  20980147.969                    20980155.324
 129470739.265 6 100886376.19043  24637471.930                    24637482.801
 106517000.423 8  83000338.877 8  20269497.055                    20269504.258
 122925385.297 7  95786064.695 6  23391928.148                    23391936.328
 114209735.870 8  88994504.840 7  21733353.844                    21733363.883
 111820028.673 8  87132480.57546  21278588.969                    21278594.594
 11  8 18  1 58 30.0000000  0  9G30G04G10G12G26G05G29G25G02
 113333213.353 8  88311498.37445  21566553.906                    21566561.656
 128554110.594 5 100172169.00842  24463012.695                    24463024.367
 118974755.480 7  92707698.81344  22640117.398                    22640125.504
 110288555.079 8  85939178.494 7  20987210.953                    20987218.020
 129377208.233 6 100813495.02643  24619673.406                    24619684.715
 106514616.824 8  82998481.546 8  20269043.352                    20269050.742
 122842173.913 7  95721224.707 6  23376092.875                    23376101.266
 114180512.922 8  88971733.721 7  21727792.930                    21727803.172
 111853808.158 8  87158802.26046  21285017.039                    21285022.664
 11  8 18  1 59  0.0000000  0  9G30G04G10G12G26G05G29G25G02
 113323985.394 8  88304307.78445  21564798.102                    21564805.781
 128633075.769 6 100233700.29742  24478040.766                    24478050.012
 119067319.316 7  92779826.45144  22657731.664                    22657739.777
 110326206.240 8  85968517.067 7  20994375.578                    20994382.906
 129283574.946 6 100740534.15043  24601855.359                    24601866.434
 106512806.266 8  82997070.746 8  20268698.680                    20268706.305
 122758959.470 7  95656382.303 6  23360257.078                    23360265.887
 114151855.094 8  88949402.969 7  21722339.711                    21722349.492
 111887694.248 8  87185207.02646  21291465.313                    21291470.758
 11  8 18  1 59 30.0000000  0  9G30G04G10G12G26G05G29G25G02
 113315366.673 8  88297591.92945  21563157.328                    21563165.141
 128711979.842 6 100295184.02742  24493055.625                    24493063.852
 119160186.790 7  92852190.71744  22675404.609                    22675411.996
 110364391.188 8  85998271.554 7  21001642.133                    21001649.047
 129189842.229 6 100667495.84943  24584018.508                    24584029.078
 106511567.924 8  82996105.826 8  20268463.141                    20268470.379
 122675743.012 7  95591538.348 6  23344421.789                    23344430.480
 114123763.269 8  88927513.258 7  21716993.875                    21717003.973
 111921686.031 7  87211694.14646  21297933.297                    21297939.012
 11  8 18  2  0  0.0000000  0  9G30G04G10G12G26G05G29G25G02
 113307357.113 8  88291350.72646  21561633.305                    21561641.391
 128790822.522 6 100356619.83842  24508058.859                    24508067.273
 119253354.804 7  92924789.17244  22693133.602                    22693140.648
 110403108.496 8  86028440.885 7  21009009.461                    21009016.816
 129096013.388 6 100594382.58843  24566164.063                    24566173.926
 106510901.328 8  82995586.426 8  20268336.555                    20268343.625
 122592525.924 7  95526693.900 6  23328586.281                    23328594.824
 114096238.286 8  88906065.241 7  21711755.820                    21711765.691
 111955783.373 8  87238263.51746  21304422.438                    21304427.746
 11  8 18  2  0 30.0000000  0  9G30G04G10G12G26G05G29G25G02
 113299956.638 8  88285584.15245  21560225.219                    21560233.320
 128869603.559 6 100418007.70942  24523050.117                    24523058.824
 119346820.644 7  92997619.67644  22710919.445                    22710927.027
 110442356.932 8  86059024.080 7  21016478.203                    21016485.680
 129002091.172 6 100521196.57142  24548290.375                    24548301.641
 106510805.997 8  82995512.159 8  20268318.313                    20268325.461
 122509309.543 7  95461850.008 6  23312750.672                    23312759.672
 114069281.006 8  88885059.600 7  21706626.242                    21706636.211
 111989986.038 8  87264914.96346  21310930.766                    21310936.234
 11  8 18  2  1  0.0000000  0  9G30G04G10G12G26G05G29G25G02
 113293165.182 8  88280292.11646  21558932.711                    21558940.629
 128948322.897 6 100479347.45242  24538029.836                    24538037.820
 119440581.503 7  93070680.07444  22728761.539                    22728769.156
 110482134.383 8  86090019.473 7  21024047.773                    21024055.168
 128908078.675 6 100447940.21342  24530400.523                    24530411.605
 106511281.478 8  82995882.686 8  20268408.555                    20268416.066
 122426095.555 6  95397007.968 6  23296915.633                    23296924.215
 114042892.322 8  88864497.029 7  21701604.711                    21701614.395
 112024293.072 8  87291647.72646  21317459.406                    21317464.813
 11  8 18  2  1 30.0000000  0  9G30G04G10G12G26G05G29G25G02
 113286982.409 8  88275474.37946  21557756.367                    21557764.023
 129026980.011 6 100540638.73842  24552997.445                    24553005.305
 119534634.222 6  93143967.92244  22746659.516                    22746666.742
 110522439.455 8  86121426.021 7  21031717.641                    21031724.641
 128813978.918 6 100374615.82842  24512493.844                    24512503.711
 106512327.032 8  82996697.427 8  20268607.203                    20268614.809
 122342885.170 6  95332168.722 6  23281081.664                    23281090.098
 114017072.803 8  88844377.942 7  21696691.219                    21696701.012
 112058703.916 8  87318461.38446  21324007.492                    21324013.191
 11  8 18  2  2  0.0000000  0  9G30G04G10G12G26G05G29G25G02
 113281408.146 8  88271130.81345  21556695.500                    21556703.133
 129105574.744 6 100601881.42442  24567952.484                    24567962.301
 119628976.004 6  93217481.01444  22764611.352                    22764620.273
 110563270.393 8  86153242.328 7  21039487.117                    21039494.727
 128719794.790 6 100301225.76842  24494570.672                    24494580.730
 106513942.249 8  82997956.059 8  20268914.891                    20268922.043
 122259679.748 7  95267333.353 6  23265247.898                    23265255.945
 113991823.294 8  88824703.025 7  21691886.617                    21691896.441
 112093218.161 8  87345355.61146  21330575.289                    21330580.949
 11  8 18  2  2 30.0000000  0  9G30G04G10G12G26G05G29G25G02
 113276442.136 8  88267261.19046  21555750.508                    21555758.594
 129184106.927 6 100663075.33342  24582897.313                    24582907.137
 119723603.894 7  93291217.01944  22782619.086                    22782626.902
 110604625.733 8  86185467.268 7  21047357.398                    21047364.348
 128625529.538 6 100227772.40043  24476633.188                    24476643.742
 106516126.223 8  82999657.878 8  20269330.570                    20269337.668
 122176480.611 6  95202502.920 6  23249415.250                    23249424.500
 113967144.448 8  88805472.803 7  21687190.102                    21687200.570
 112127835.134 8  87372329.90046  21337162.539                    21337168.078
 11  8 18  2  3  0.0000000  0  9G30G04G10G12G26G05G29G25G02
 113272084.108 8  88263865.33445  21554921.219                    21554929.027
 129262576.461 6 100724220.48643  24597829.563                    24597839.188
 119818515.038 7  93365173.75444  22800679.922                    22800687.730
 110646503.607 8  86218099.372 7  21055325.906                    21055333.637
 128531185.759 6 100154257.88443  24458679.781                    24458690.203
 106518878.409 8  83001802.456 8  20269853.930                    20269861.559
 122093289.406 7  95137678.628 6  23233584.195                    23233593.574
 113943037.022 8  88786687.819 7  21682602.711                    21682612.734
 112162554.343 7  87399383.85146  21343769.180                    21343774.586
 11  8 18  2  3 30.0000000  0  9G30G04G10G12G26G05G29G25G02
 113268333.510 8  88260942.80246  21554207.359                    21554214.996
 129340982.756 6 100785316.28743  24612750.219                    24612759.820
 119913706.423 7  93439348.86244  22818793.766                    22818802.352
 110688901.776 8  86251136.902 7  21063394.438                    21063401.605
 128436766.759 6 100080684.76543  24440712.328                    24440721.688
 106522197.702 8  83004388.950 8  20270485.789                    20270492.859
 122010107.092 7  95072861.275 6  23217755.875                    23217763.539
 113919501.343 8  88768348.369 7  21678123.773                    21678134.219
 112197374.900 7  87426516.76446  21350395.563                    21350400.836
 11  8 18  2  4  0.0000000  0  9G30G04G10G12G26G05G29G25G02
 113265190.624 8  88258493.79846  21553609.297                    21553617.355
 129419326.111 6 100846363.02142  24627658.578                    24627668.016
 120009175.651 6  93513740.48244  22836961.516                    22836969.512
 110731819.232 8  86284579.072 7  21071561.313                    21071568.223
 128342275.805 6 100007055.62543  24422730.742                    24422741.648
 106526084.256 7  83007417.444 8  20271224.938                    20271232.348
 121926935.695 7  95008052.415 6  23201928.664                    23201936.191
 113896538.701 8  88750455.423 7  21673754.094                    21673763.941
 112232297.342 8  87453729.07246  21357040.984                    21357046.070
 11  8 18  2  4 30.0000000  0  9G30G04G10G12G26G05G29G25G02
 113262654.779 7  88256517.81446  21553126.547                    21553134.871
 129497606.289 6 100907360.55842  24642554.336                    24642564.070
 120104919.345 7  93588345.95344  22855180.711                    22855188.930
 110775253.943 8  86318424.288 7  21079826.602                    21079833.973
 128247715.852 6  99933372.62243  24404737.422                    24404746.953
 106530536.629 8  83010886.855 8  20272072.523                    20272080.258
 121843776.136 6  94943252.788 6  23186103.781                    23186111.633
 113874149.393 8  88733009.221 7  21669493.688                    21669503.531
 112267320.619 8  87481019.94446  21363705.563                    21363711.398
 11  8 18  2  5  0.0000000  0  9G30G04G10G12G26G05G29G25G02
 113260725.350 7  88255014.37546  21552759.359                    21552767.539
 129575822.893 6 100968308.54142  24657439.195                    24657448.180
 120200934.691 7  93663163.09644  22873451.914                    22873460.156
 110819203.813 8  86352670.945 7  21088189.938                    21088197.391
 128153089.702 6  99859638.14643  24386729.703                    24386740.414
 106535553.976 8  83014796.501 8  20273027.359                    20273034.758
 121760630.032 7  94878463.631 6  23170281.695                    23170290.094
 113852333.781 8  88716010.053 7  21665342.125                    21665352.109
 112302443.978 8  87508388.82246  21370389.406                    21370394.766
 11  8 18  2  5 30.0000000  0  9G30G04G10G12G26G05G29G25G02
 113259402.533 8  88253983.59746  21552508.063                    21552515.805
 129653976.038 6 101029207.10342  24672311.656                    24672320.184
 120297219.008 6  93738189.82144  22891773.727                    22891782.059
 110863667.780 8  86387318.181 7  21096651.234                    21096658.363
 128058400.896 6  99785854.83543  24368711.914                    24368721.430
 106541136.197 8  83019146.297 8  20274089.461                    20274096.613
 121677499.283 7  94813686.478 6  23154462.828                    23154471.309
 113831093.023 8  88699458.817 7  21661300.195                    21661310.566
 112337667.531 8  87535835.77246  21377092.359                    21377097.316
 11  8 18  2  6  0.0000000  0  8G30G10G12G26G05G29G25G02
 113258686.043 8  88253425.29246  21552371.633                    21552379.223
 120393770.048 7  93813424.37944  22910147.195                    22910155.402
 110908644.050 8  86422364.620 7  21105209.766                    21105217.406
 127963652.758 6  99712025.28243  24350681.609                    24350691.008
 106547282.302 8  83023935.484 8  20275259.375                    20275266.512
 121594385.294 7  94748922.356 6  23138646.703                    23138654.484
 113810427.728 8  88683356.003 7  21657367.547                    21657377.676
 112372990.960 8  87563360.54346  21383813.773                    21383819.391
 11  8 18  2  6 30.0000000  0  8G30G10G12G26G05G29G25G02
 113258574.750 8  88253338.58445  21552350.398                    21552358.184
 120490583.976 7  93888863.82144  22928570.383                    22928577.824
 110954129.932 8  86457808.172 7  21113865.531                    21113873.082
 127868847.711 6  99638151.35043  24332639.891                    24332650.098
 106553990.993 8  83029163.063 8  20276535.906                    20276543.031
 121511289.181 7  94684172.162 6  23122834.133                    23122842.043
 113790337.893 8  88667701.578 7  21653544.758                    21653554.523
 112408413.260 8  87590962.36146  21390554.742                    21390559.984
 11  8 18  2  7  0.0000000  0  8G30G10G12G26G05G29G25G02
 113259068.220 8  88253723.10346  21552444.461                    21552452.520
 120587657.933 7  93964505.87344  22947042.609                    22947050.145
 111000123.817 8  86493647.535 7  21122618.000                    21122625.488
 127773989.222 7  99564235.80543  24314588.852                    24314599.336
 106561261.642 8  83034828.517 8  20277919.344                    20277926.754
 121428212.197 7  94619436.874 6  23107024.688                    23107033.168
 113770823.966 8  88652495.925 7  21649831.211                    21649842.023
 112443933.810 8  87618640.71146  21397314.039                    21397318.863
 11  8 18  2  7 30.0000000  0  8G30G10G12G26G05G29G25G02
 113260166.151 8  88254578.64346  21552652.930                    21552661.242
 120684989.119 7  94040348.38244  22965564.648                    22965571.590
 111046623.797 8  86529881.298 7  21131466.633                    21131474.113
 127679080.395 6  99490281.04843  24296527.906                    24296538.371
 106569093.582 8  83040931.354 8  20279409.898                    20279416.754
 121345156.195 7  94554717.938 6  23091219.664                    23091227.949
 113751886.685 8  88637739.596 7  21646227.539                    21646237.949
 112479552.402 8  87646395.46946  21404092.133                    21404097.234
 11  8 18  2  8  0.0000000  0  8G30G10G12G26G05G29G25G02
 113261867.944 7  88255904.72445  21552976.750                    21552984.793
 120782574.697 7  94116389.11644  22984134.188                    22984142.125
 111093628.049 8  86566507.981 7  21140411.117                    21140418.676
 127584124.264 6  99416289.42343  24278459.430                    24278469.199
 106577485.599 8  83047470.602 8  20281006.797                    20281013.734
 121262122.547 7  94490016.417 6  23075418.742                    23075427.266
 113733526.462 8  88623432.925 7  21642734.164                    21642744.215
 112515268.511 7  87674226.21546  21410888.531                    21410894.480
 11  8 18  2  8 30.0000000  0  8G30G10G12G26G05G29G25G02
 113264173.042 7  88257700.91146  21553415.789                    21553423.875
 120880411.832 7  94192625.84444  23002751.969                    23002759.473
 111141134.591 8  86603526.070 7  21149451.461                    21149458.996
 127489123.887 6  99342263.31143  24260381.055                    24260391.145
 106586436.908 8  83054445.658 8  20282710.266                    20282717.395
 121179112.909 7  94425333.610 6  23059622.320                    23059631.086
 113715743.600 8  88609576.146 7  21639349.656                    21639360.023
 112551081.724 8  87702132.64146  21417703.414                    21417708.660
 11  8 18  2  9  0.0000000  0  8G30G10G12G26G05G29G25G02
 113267080.573 7  88259966.54546  21553969.055                    21553977.168
 120978497.611 6  94269056.33244  23021417.891                    23021424.590
 111189141.431 8  86640933.994 7  21158586.875                    21158594.004
 127394082.325 6  99268205.14643  24242294.305                    24242304.770
 106595946.237 8  83061855.538 8  20284519.648                    20284526.883
 121096128.697 7  94360670.633 6  23043831.297                    23043839.086
 113698538.389 8  88596169.471 7  21636076.023                    21636086.051
 112586991.587 7  87730114.37746  21424536.906                    21424542.625
 11  8 18  2  9 30.0000000  0  8G30G10G12G26G05G29G25G02
 113270590.325 7  88262701.41946  21554636.555                    21554645.164
 121076829.541 6  94345678.63044  23040129.727                    23040137.156
 111237646.982 8  86678730.521 7  21167817.047                    21167824.273
 127299003.174 6  99194117.67543  24224200.766                    24224211.594
 106606013.287 8  83069699.999 8  20286435.125                    20286442.367
 121013171.688 7  94296028.823 6  23028044.922                    23028053.008
 113681911.521 8  88583213.478 7  21632911.922                    21632922.094
 112622997.612 8  87758171.03946  21431388.922                    21431394.266
 11  8 18  2 10  0.0000000  0  8G30G10G12G26G05G29G25G02
 113274701.263 7  88265904.75446  21555419.297                    21555427.059
 121175404.460 6  94422490.23344  23058887.180                    23058895.793
 111286648.546 8  86716913.562 7  21177142.094                    21177148.961
 127203889.426 6  99120003.21643  24206101.945                    24206112.152
 106616636.595 8  83077977.912 8  20288456.961                    20288463.770
 120930242.984 7  94231409.102 6  23012264.008                    23012272.754
 113665863.085 8  88570708.222 7  21629858.188                    21629867.738
 112659099.459 8  87786302.37246  21438258.922                    21438264.203
 11  8 18  2 10 30.0000000  0  8G30G10G12G26G05G29G25G02
 113279412.602 8  88269575.95146  21556315.773                    21556323.336
 121274219.145 6  94499488.67444  23077690.781                    23077699.348
 111336144.034 8  86755481.486 7  21186560.430                    21186567.551
 127108743.992 6  99045864.02543  24187996.375                    24188006.047
 106627814.816 8  83086688.234 8  20290583.984                    20290591.117
 120847344.187 7  94166812.691 6  22996489.172                    22996497.109
 113650393.176 8  88558653.737 7  21626914.328                    21626924.438
 112695296.617 8  87814507.96546  21445146.672                    21445152.117
 11  8 18  2 11  0.0000000  0  8G30G10G12G26G05G29G25G02
 113284723.840 8  88273714.58346  21557325.984                    21557334.492
 121373270.977 6  94576671.91844  23096539.906                    23096548.598
 111386131.977 8  86794433.137 7  21196072.844                    21196079.910
 127013570.278 6  98971702.80343  24169885.445                    24169895.082
 106639547.213 8  83095830.385 8  20292816.625                    20292823.871
 120764477.058 7  94102240.945 6  22980719.773                    22980728.066
 113635502.335 8  88547050.480 7  21624080.711                    21624090.336
 112731588.846 8  87842787.63246  21452052.648                    21452058.055
 11  8 18  2 11 30.0000000  0  8G30G10G12G26G05G29G25G02
 113290634.090 8  88278319.99046  21558451.000                    21558458.699
 121472557.140 6  94654037.72144  23115433.625                    23115442.168
 111436609.964 8  86833766.632 7  21205678.516                    21205685.910
 126918371.498 7  98897522.12743  24151769.602                    24151779.469
 106651832.663 8  83105403.481 8  20295154.352                    20295161.406
 120681642.954 7  94037694.925 6  22964956.891                    22964965.164
 113621190.662 8  88535898.561 7  21621357.070                    21621367.246
 112767975.718 8  87871141.04946  21458977.039                    21458982.008
 11  8 18  2 12  0.0000000  0  8G30G10G12G26G05G29G25G02
 113297142.827 8  88283391.73046  21559689.781                    21559697.430
 121572074.952 6  94731584.04944  23134371.344                    23134379.914
 111487575.972 8  86873480.393 7  21215376.844                    21215384.059
 126823150.743 7  98823324.24743  24133649.414                    24133658.641
 106664670.256 8  83115406.814 8  20297597.438                    20297604.762
 120598843.862 7  93973176.207 6  22949200.820                    22949208.844
 113607458.697 8  88525198.343 7  21618744.180                    21618753.457
 112804456.802 8  87899567.88746  21465918.977                    21465924.617
 11  8 18  2 12 30.0000000  0  8G30G10G12G26G05G29G25G02
 113304249.090 8  88288929.08446  21561041.617                    21561049.453
 121671821.188 7  94809308.37944  23153352.555                    23153360.793
 111539027.983 8  86913572.878 7  21225167.859                    21225175.590
 126727911.422 6  98749111.90243  24115526.352                    24115534.883
 106678058.671 8  83125839.371 8  20300144.875                    20300152.355
 120516081.105 7  93908685.785 6  22933451.789                    22933459.598
 113594306.397 8  88514949.798 7  21616241.000                    21616251.246
 112841031.751 8  87928067.84846  21472879.219                    21472884.680
 11  8 18  2 13  0.0000000  0  8G30G10G12G26G05G29G25G02
 113311952.084 7  88294931.41446  21562507.805                    21562515.645
 121771793.239 7  94887208.67644  23172376.539                    23172384.574
 111590963.871 8  86954042.387 7  21235051.000                    21235058.695
 126632656.855 7  98674887.67843  24097399.852                    24097408.355
 106691996.909 8  83136700.358 8  20302797.180                    20302804.586
 120433356.197 7  93844224.865 6  22917709.313                    22917717.813
 113581734.088 8  88505153.230 7  21613848.766                    21613858.988
 112877700.191 8  87956640.67046  21479857.102                    21479862.109
 11  8 18  2 13 30.0000000  0  8G30G10G12G26G05G29G25G02
 113320251.027 7  88301398.12446  21564087.125                    21564094.828
 121871988.185 7  94965282.63644  23191443.414                    23191450.527
 111643381.304 8  86994887.141 7  21245026.016                    21245033.281
 126537390.216 6  98600654.05843  24079271.211                    24079280.250
 106706483.814 8  83147988.875 8  20305553.953                    20305561.152
 120350670.964 7  93779794.876 6  22901975.125                    22901983.930
 113569741.902 8  88495808.680 7  21611566.781                    21611576.523
 112914461.709 7  87985286.02346  21486852.453                    21486857.566
 11  8 18  2 14  0.0000000  0  8G30G10G12G26G05G29G25G02
 113329145.186 7  88308328.61846  21565779.336                    21565787.055
 121972403.257 7  95043528.15843  23210551.711                    23210558.262
 111696278.549 8  87036105.760 7  21255091.398                    21255099.027
 126442114.750 6  98526413.54543  24061140.797                    24061149.824
 106721518.438 8  83159704.192 8  20308414.992                    20308422.363
 120268027.160 7  93715397.154 6  22886248.500                    22886256.258
 113558330.120 8  88486916.388 7  21609395.367                    21609405.098
 112951316.208 8  88014003.82846  21493865.531                    21493870.949
 11  8 18  2 14 30.0000000  0  8G30G10G12G26G05G29G25G02
 113338633.570 7  88315722.16446  21567584.852                    21567593.195
 122073035.770 7  95121943.12143  23229701.586                    23229707.523
 111749653.546 8  87077696.666 7  21265248.727                    21265256.043
 126346833.846 6  98452168.81243  24043008.898                    24043017.609
 106737099.700 8  83171845.456 8  20311379.859                    20311387.383
 120185426.429 7  93651033.009 7  22870530.070                    22870537.770
 113547498.796 8  88478476.421 7  21607334.047                    21607343.918
 112988263.327 7  88042793.80046  21500896.453                    21500901.965
 11  8 18  2 15  0.0000000  0  8G30G10G12G26G05G29G25G02
 113348715.031 7  88323577.82145  21569503.242                    21569510.969
 122173882.777 7  95200525.24343  23248891.813                    23248897.656
 111803503.692 8  87119657.819 7  21275496.125                    21275503.719
 126251550.674 6  98377922.29343  24024876.664                    24024886.340
 106753226.043 8  83184411.452 8  20314448.523                    20314455.926
 120102870.258 7  93586703.590 7  22854819.727                    22854828.277
 113537247.763 8  88470488.609 7  21605383.266                    21605392.980
 113025302.400 8  88071655.43346  21507944.563                    21507949.969
 11  8 18  2 15 30.0000000  0  8G30G10G12G26G05G29G25G02
 113359388.612 8  88331894.89046  21571534.367                    21571542.035
 122274941.288 7  95279272.17444  23268122.500                    23268128.941
 111857826.763 8  87161987.475 7  21285833.391                    21285840.730
 126156268.378 6  98303676.43443  24006745.563                    24006754.195
 106769895.866 8  83197400.935 8  20317620.992                    20317627.957
 120020359.895 7  93522409.872 7  22839118.742                    22839126.770
 113527577.114 8  88462953.066 7  21603542.891                    21603553.000
 113062433.316 8  88100588.63946  21515010.539                    21515015.988
 11  8 18  2 16  0.0000000  0  8G30G10G12G26G05G29G25G02
 113370653.199 8  88340672.48645  21573677.758                    21573685.695
 122376208.325 6  95358181.52243  23287393.016                    23287400.156
 111912620.439 8  87204683.847 7  21296260.617                    21296267.801
 126060990.155 6  98229433.75243  23988614.234                    23988623.195
 106787107.821 8  83210812.874 8  20320896.164                    20320903.281
 119937897.351 7  93458153.398 7  22823426.516                    22823434.465
 113518486.769 8  88455869.666 7  21601813.227                    21601823.012
 113099655.579 8  88129592.99046  21522093.820                    21522099.090
 11  8 18  2 16 30.0000000  0  8G30G10G12G26G05G29G25G02
 113382508.325 8  88349910.21446  21575934.422                    21575942.176
 122477681.474 6  95437251.47443  23306702.461                    23306709.547
 111967883.139 8  87247745.696 7  21306776.453                    21306783.668
 125965719.823 6  98155197.23143  23970484.891                    23970494.090
 106804861.646 8  83224647.034 8  20324274.453                    20324281.602
 119855484.695 7  93393935.797 6  22807743.617                    22807751.867
 113509977.185 8  88449238.824 7  21600193.867                    21600203.813
 113136969.133 8  88158668.49346  21529194.102                    21529199.488
 11  8 18  2 17  0.0000000  0  8G30G10G12G26G05G29G25G02
 113394952.865 8  88359607.26045  21578302.086                    21578309.762
 122579358.192 7  95516480.07544  23326050.914                    23326058.805
 112023612.417 8  87291171.104 7  21317381.406                    21317388.648
 125870460.546 6  98080969.33143  23952357.172                    23952367.254
 106823155.951 8  83238902.361 8  20327755.859                    20327763.277
 119773123.482 7  93329758.297 6  22792070.852                    22792078.758
 113502048.290 8  88443060.475 7  21598685.227                    21598695.184
 113174373.612 8  88187814.85646  21536311.516                    21536317.332
 11  8 18  2 17 30.0000000  0  8G30G10G12G26G05G29G25G02
 113407985.436 8  88369762.49546  21580782.234                    21580789.949
 122681235.134 7  95595864.71344  23345437.734                    23345444.930
 112079805.839 8  87334958.186 7  21328074.477                    21328081.797
 125775215.615 6  98006752.60843  23934232.938                    23934242.176
 106841988.846 8  83253577.349 8  20331339.648                    20331346.617
 119690815.147 7  93265621.978 6  22776408.008                    22776416.465
 113494699.784 8  88437334.366 7  21597286.758                    21597296.133
 113211868.693 8  88217031.80246  21543447.078                    21543452.336
 11  8 18  2 18  0.0000000  0  8G30G10G12G26G05G29G25G02
 113421604.929 8  88380375.06946  21583374.102                    21583381.895
 122783309.541 7  95675403.19444  23364861.555                    23364869.863
 112136460.765 8  87379104.890 7  21338855.680                    21338862.930
 125679988.243 6  97932549.55043  23916111.602                    23916121.234
 106861359.115 8  83268671.081 8  20335025.797                    20335032.613
 119608561.436 7  93201528.229 6  22760755.797                    22760763.684
 113487931.567 8  88432060.423 7  21595998.563                    21596008.594
 113249453.906 8  88246318.99046  21550599.133                    21550604.926
 11  8 18  2 18 30.0000000  0  8G30G10G12G26G05G29G25G02
 113435810.065 8  88391444.00646  21586077.539                    21586084.785
 122885578.288 6  95755093.12344  23384322.680                    23384330.852
 112193574.897 7  87423609.393 7  21349724.289                    21349731.309
 125584781.522 6  97858362.59443  23897993.867                    23898003.945
 106881264.764 8  83284182.000 8  20338813.555                    20338820.941
 119526364.054 7  93137478.376 6  22745114.070                    22745121.871
 113481743.256 8  88427238.362 7  21594821.352                    21594831.348
 113287128.887 8  88275676.13146  21557768.375                    21557774.434
 11  8 18  2 19  0.0000000  0  8G30G10G12G26G05G29G25G02
 113450600.059 8  88402968.68546  21588891.563                    21588899.570
 122988039.144 7  95834932.72544  23403820.727                    23403828.285
 112251146.284 8  87468470.217 7  21360679.641                    21360686.914
 125489599.164 6  97784194.61144  23879881.844                    23879891.379
 106901705.309 8  83300109.715 8  20342703.492                    20342710.805
 119444224.768 7  93073473.804 6  22729483.359                    22729491.367
 113476135.231 8  88422868.478 7  21593754.211                    21593763.918
 113324893.818 8  88305103.37146  21564954.609                    21564960.543
 11  8 18  2 19 30.0000000  0  8G30G10G12G26G05G29G25G02
 113465973.733 8  88414948.16846  21591817.141                    21591824.668
 123090689.472 7  95914919.99044  23423354.211                    23423362.336
 112309172.868 8  87513685.742 7  21371721.797                    21371728.852
 125394444.604 7  97710048.26143  23861774.617                    23861783.797
 106922679.575 8  83316453.316 8  20346694.414                    20346701.574
 119362145.410 7  93009515.899 6  22713864.125                    22713871.789
 113471107.226 8  88418950.537 7  21592797.313                    21592807.285
 113362748.287 8  88334600.37946  21572158.148                    21572164.066
 11  8 18  2 20  0.0000000  0  8G30G10G12G26G05G29G25G02
 113481929.637 8  88427381.34345  21594853.398                    21594861.355
 123193526.223 6  95995052.51643  23442923.156                    23442931.254
 112367651.568 7  87559253.553 7  21382849.922                    21382857.160
 125299321.082 6  97635926.12243  23843673.117                    23843682.578
 106944185.529 8  83333211.223 8  20350786.961                    20350794.152
 119280127.425 7  92945605.837 6  22698256.594                    22698264.660
 113466658.829 8  88415484.246 7  21591950.813                    21591960.684
 113400691.821 8  88364166.75646  21579378.891                    21579384.145
 11  8 18  2 20 30.0000000  0  8G30G10G12G26G05G29G25G02
 113498466.643 8  88440267.32046  21598000.688                    21598008.441
 123296546.309 7  96075327.89043  23462527.594                    23462534.805
 112426580.502 7  87605172.200 7  21394063.461                    21394070.633
 125204231.994 6  97561830.75943  23825578.195                    23825586.992
 106966221.511 8  83350382.133 8  20354980.234                    20354987.504
 119198172.523 7  92881744.929 6  22682661.422                    22682668.348
 113462789.917 8  88412469.500 7  21591214.250                    21591223.914
 113438724.152 8  88393802.34246  21586616.344                    21586621.594
 11  8 18  2 21  0.0000000  0  8G30G10G12G26G05G29G25G02
 113515583.515 8  88453605.16046  21601257.805                    21601266.016
 123399747.249 6  96155744.20244  23482165.836                    23482173.570
 112485956.782 8  87651439.421 7  21405362.523                    21405369.902
 125109180.741 6  97487764.92043  23807490.289                    23807499.406
 106988786.604 8  83367965.341 8  20359274.141                    20359281.633
 119116282.811 7  92817934.814 6  22667078.250                    22667086.375
 113459500.350 7  88409906.198 7  21590588.250                    21590598.199
 113476845.147 8  88423507.00246  21593870.484                    21593875.156
 11  8 18  2 21 30.0000000  0  8G30G10G12G26G05G29G25G02
 113533278.801 8  88467393.70846  21604624.453                    21604632.465
 123503126.211 6  96236299.20643  23501837.938                    23501846.273
 112545778.201 7  87698053.504 7  21416746.406                    21416753.480
 125014170.569 6  97413731.06844  23789410.875                    23789419.836
 107011878.985 8  83385959.427 8  20363668.453                    20363675.820
 119034459.899 7  92754176.744 6  22651507.734                    22651515.328
 113456789.615 8  88407793.933 7  21590072.430                    21590082.477
 113515054.271 8  88453280.33545  21601141.422                    21601146.574
 11  8 18  2 22  0.0000000  0  8G30G10G12G26G05G29G25G02
 113551551.205 8  88481631.95045  21608101.609                    21608110.301
 123606680.543 7  96316990.89143  23521544.273                    23521551.238
 112606042.418 8  87745012.627 7  21428214.125                    21428221.281
 124919204.861 6  97339731.87743  23771339.734                    23771348.582
 107035497.149 8  83404363.217 8  20368163.164                    20368170.082
 118952705.475 7  92690472.064 6  22635950.430                    22635958.766
 113454657.456 8  88406132.514 7  21589666.633                    21589676.469
 113553351.491 8  88483122.32145  21608429.031                    21608433.730
 11  8 18  2 22 30.0000000  0  8G30G10G12G26G05G29G25G02
 113570399.525 8  88496318.97545  21611688.828                    21611696.965
 123710407.328 7  96397816.97943  23541282.656                    23541289.977
 112666747.234 7  87792315.075 7  21439765.914                    21439773.301
 124824287.391 7  97265770.28843  23753276.555                    23753285.313
 107059639.628 8  83423175.547 8  20372756.805                    20372763.926
 118871021.032 7  92626821.907 7  22620405.625                    22620414.191
 113453103.728 8  88404921.826 7  21589371.367                    21589380.910
 113591736.819 8  88513032.97946  21615733.305                    21615738.344
 11  8 18  2 23  0.0000000  0  8G30G10G12G26G05G29G25G02
 113589822.460 8  88511453.74945  21615384.703                    21615392.461
 123814303.767 7  96478775.22143  23561053.852                    23561061.344
 112727890.052 8  87839958.824 7  21451400.758                    21451408.398
 124729421.248 6  97191848.70543  23735223.898                    23735232.898
 107084304.984 8  83442395.323 8  20377450.688                    20377457.711
 118789409.276 7  92563228.387 7  22604875.828                    22604884.273
 113452128.136 8  88404161.628 7  21589185.641                    21589195.543
 113630209.776 8  88543011.91546  21623054.969                    21623059.914
 11  8 18  2 23 30.0000000  0  9G30G15G10G12G26G05G29G25G02
 113609818.336 8  88527034.96345  21619189.406                    21619197.758
 129415759.26416 100843409.02216  24626986.172                    24626996.738
 123918367.318 7  96559863.66844  23580856.516                    23580863.559
 112789468.108 7  87887941.714 7  21463118.578                    21463126.113
 124634609.681 6  97117969.63843  23717182.039                    23717190.977
 107109491.421 8  83462021.130 8  20382243.789                    20382250.715
 118707871.465 7  92499692.470 7  22589359.422                    22589367.758
 113451729.978 8  88403851.378 7  21589109.844                    21589119.246
 113668770.179 8  88573058.97746  21630392.977                    21630397.566
 11  8 18  2 24  0.0000000  0  9G30G15G10G12G26G05G29G25G02
 113630386.237 8  88543061.92345  21623103.977                    21623111.879
 129322614.486 6 100770828.860 6  24609261.695                    24609271.770
 124022595.607 7  96641080.45843  23600690.398                    23600698.180
 112851479.281 7  87936262.110 7  21474919.211                    21474926.699
 124539856.660 6  97044136.19743  23699150.453                    23699160.672
 107135198.120 8  83482052.342 8  20387135.188                    20387142.559
 118626409.661 7  92436215.798 7  22573858.070                    22573865.738
 113451909.323 8  88403991.135 7  21589144.203                    21589153.754
 113707418.107 8  88603174.24446  21637747.297                    21637752.242
 11  8 18  2 24 30.0000000  0  9G30G15G10G12G26G05G29G25G02
 113651524.728 8  88559533.48445  21627126.391                    21627134.832
 129229340.288 6 100698147.824 6  24591511.852                    24591521.891
 124126985.623 7  96722423.30344  23620555.219                    23620562.520
 112913921.584 7  87984918.440 7  21486801.391                    21486808.801
 124445165.788 6  96970351.21844  23681132.242                    23681142.113
 107161423.434 8  83502487.668 8  20392125.891                    20392132.965
 118545025.745 7  92372799.809 7  22558370.813                    22558379.191
 113452665.836 8  88404580.638 7  21589287.680                    21589297.441
 113746153.273 8  88633357.49446  21645117.945                    21645123.051
 11  8 18  2 25  0.0000000  0  9G30G15G10G12G26G05G29G25G02
 113673231.913 8  88576448.18045  21631256.508                    21631265.273
 129135938.423 6 100625367.292 6  24573737.773                    24573747.848
 124231534.429 7  96803889.85843  23640449.477                    23640458.055
 112976791.719 8  88033908.136 7  21498765.344                    21498772.582
 124350539.950 6  96896616.88143  23663125.055                    23663134.945
 107188164.967 8  83523325.249 8  20397214.617                    20397221.668
 118463721.267 7  92309445.708 7  22542899.680                    22542907.367
 113453998.635 8  88405619.204 7  21589541.398                    21589551.230
 113784975.506 8  88663608.57546  21652505.844                    21652511.031
 11  8 18  2 25 30.0000000  0  9G30G15G10G12G26G05G29G25G02
 113695506.511 8  88593805.02745  21635495.758                    21635503.695
 129042411.401 6 100552489.214 6  24555940.352                    24555950.059
 124336239.311 6  96885478.00143  23660374.844                    23660382.664
 113040087.258 7  88083229.332 7  21510809.961                    21510817.797
 124255982.851 6  96822936.13544  23645131.703                    23645140.680
 107215421.502 8  83544564.126 8  20402401.398                    20402408.469
 118382498.152 7  92246155.008 6  22527443.438                    22527450.859
 113455907.409 8  88407106.598 7  21589904.688                    21589914.410
 113823884.440 8  88693927.21545  21659909.586                    21659914.305
 11  8 18  2 26  0.0000000  0  9G30G15G10G12G26G05G29G25G02
 113718347.048 8  88611602.86145  21639842.188                    21639850.078
 128948761.964 6 100479515.750 6  24538119.523                    24538129.719
 124441097.707 7  96967185.82843  23680328.992                    23680336.766
 113103805.992 8  88132880.286 7  21522935.203                    21522942.457
 124161497.996 7  96749311.64744  23627152.375                    23627160.871
 107243191.498 8  83566203.109 8  20407685.516                    20407692.699
 118301358.255 7  92182929.164 6  22512002.531                    22512010.402
 113458391.614 8  88409042.355 7  21590377.508                    21590387.238
 113862879.960 8  88724313.34745  21667330.102                    21667335.348
 11  8 18  2 26 30.0000000  0  9G30G15G10G12G26G05G29G25G02
 113741751.888 8  88629840.41045  21644295.922                    21644303.941
 128854992.652 6 100406448.891 6  24520275.422                    24520285.375
 124546106.952 7  97049011.18043  23700310.969                    23700318.855
 113167945.135 8  88182858.826 7  21535140.844                    21535148.148
 124067088.713 6  96675746.07143  23609185.883                    23609195.379
 107271473.224 8  83588240.846 8  20413067.695                    20413074.570
 118220303.425 7  92119769.596 7  22496578.273                    22496586.094
 113461450.651 8  88411426.031 7  21590959.859                    21590969.344
 113901961.748 8  88754766.68246  21674767.320                    21674772.824
 11  8 18  2 27  0.0000000  0  9G30G15G10G12G26G05G29G25G02
 113765719.529 8  88648516.50345  21648856.609                    21648864.594
 128761106.075 6 100333290.655 6  24502409.016                    24502419.172
 124651264.328 7  97130951.96744  23720322.094                    23720330.238
 113232502.583 8  88233163.325 7  21547425.297                    21547432.723
 123972758.674 7  96602242.22744  23591236.125                    23591244.117
 107300265.061 8  83610676.061 8  20418546.281                    20418553.629
 118139335.675 7  92056677.891 7  22481170.734                    22481178.742
 113465084.148 8  88414257.340 7  21591650.828                    21591660.867
 113941129.948 8  88785287.35546  21682220.742                    21682226.512
 11  8 18  2 27 30.0000000  0  9G30G15G10G12G26G05G29G25G02
 113790248.326 8  88667629.85445  21653524.414                    21653532.285
 128667104.517 6 100260042.822 5  24484521.750                    24484530.398
 124756566.982 7  97213005.96243  23740360.461                    23740368.316
 113297475.200 8  88283791.345 7  21559789.422                    21559796.934
 123878511.262 6  96528802.76644  23573300.750                    23573310.141
 107329565.117 8  83633507.291 8  20424122.109                    20424128.766
 118058456.568 7  91993655.274 6  22465780.227                    22465787.219
 113469291.345 8  88417535.680 7  21592451.523                    21592461.676
 113980383.969 8  88815874.90246  21689690.625                    21689696.172
 11  8 18  2 28  0.0000000  0  9G30G15G10G12G26G05G29G25G02
 113815336.388 8  88687178.99345  21658298.406                    21658306.637
 128572990.265 6 100186707.204 5  24466611.836                    24466621.320
 124862012.472 7  97295171.23843  23760426.680                    23760433.293
 113362860.111 8  88334740.608 7  21572231.523                    21572238.863
 123784349.713 7  96455430.21144  23555382.711                    23555391.766
 107359371.434 8  83656733.011 8  20429794.023                    20429801.039
 117977668.067 7  91930703.216 7  22450406.336                    22450413.973
 113474071.428 8  88421260.426 7  21593361.016                    21593371.078
 114019723.911 8  88846529.42046  21697176.750                    21697182.344
 11  8 18  2 28 30.0000000  0  9G30G15G10G12G26G05G29G25G02
 113840982.323 8  88707162.85845  21663178.344                    21663185.883
 128478766.052 6 100113285.873 6  24448682.242                    24448691.512
 124967598.015 7  97377445.63343  23780518.531                    23780525.336
 113428655.411 8  88386009.681 7  21584752.313                    21584759.605
 123690277.638 7  96382127.36744  23537482.047                    23537490.355
 107389682.292 8  83680351.877 8  20435561.656                    20435568.707
 117896971.864 7  91867823.113 6  22435050.320                    22435057.613
 113479423.944 8  88425431.233 7  21594379.750                    21594389.508
 114059149.584 8  88877250.73346  21704679.117                    21704684.785
 11  8 18  2 29  0.0000000  0  9G30G15G10G12G26G05G29G25G02
 113867184.394 7  88727580.06345  21668164.875                    21668172.707
 128384434.369 6 100039780.826 5  24430729.914                    24430740.527
 125073320.873 7  97459827.03243  23800637.352                    23800643.871
 113494857.828 8  88437595.998 7  21597350.188                    21597357.039
 123596298.493 7  96308896.93344  23519596.953                    23519606.512
 107420496.182 8  83704362.717 8  20441425.391                    20441432.539
 117816370.368 7  91805016.805 6  22419712.555                    22419719.836
 113485348.141 8  88430047.493 7  21595507.070                    21595517.359
 114098661.031 8  88908038.89746  21712197.813                    21712203.496
 11  8 18  2 29 30.0000000  0  9G30G15G10G12G26G05G29G25G02
 113893941.207 8  88748429.52445  21673256.453                    21673264.199
 128289997.983 5  99966194.199 5  24412759.555                    24412769.504
 125179178.357 6  97542313.34743  23820781.273                    23820787.957
 113561465.059 8  88489497.730 7  21610024.875                    21610032.848
 123502416.154 7  96235741.93144  23501732.094                    23501741.168
 107451811.716 8  83728764.436 8  20447384.773                    20447391.688
 117735865.545 7  91742285.812 7  22404392.281                    22404400.133
 113491843.563 8  88435108.883 7  21596743.305                    21596752.637
 114138258.062 7  88938893.72546  21719732.781                    21719738.406
 11  8 18  2 30  0.0000000  0  9G30G15G10G12G26G05G29G25G02
 113921251.005 7  88769709.89345  21678453.375                    21678461.438
 128195459.591 6  99892528.077 5  24394769.539                    24394779.801
 125285167.994 6  97624902.65943  23840949.742                    23840958.078
 113628474.749 8  88541713.070 7  21622776.789                    21622783.797
 123408634.144 7  96162665.12743  23483886.320                    23483895.098
 107483626.989 8  83753555.582 8  20453439.102                    20453445.945
 117655459.213 7  91679631.571 7  22389091.609                    22389098.781
 113498909.632 8  88440614.924 7  21598087.523                    21598097.652
 114177940.596 7  88969815.19245  21727284.477                    21727289.727
 11  8 18  2 30 30.0000000  0  9G30G15G10G12G26G05G29G25G02
 113949111.734 7  88791419.54545  21683755.242                    21683763.082
 128100821.510 6  99818784.249 6  24376760.273                    24376770.672
 125391286.959 6  97707592.74243  23861143.586                    23861151.938
 113695883.844 8  88594239.647 7  21635604.195                    21635611.359
 123314955.461 7  96089668.82444  23466060.188                    23466068.844
 107515939.576 8  83778734.227 8  20459587.867                    20459594.695
 117575152.915 7  91617055.285 7  22373809.875                    22373817.727
 113506545.137 8  88446564.676 7  21599540.797                    21599550.883
 114217708.218 7  89000802.96145  21734851.484                    21734857.055
 11  8 18  2 31  0.0000000  0  9G30G15G10G12G26G05G29G25G02
 113977521.941 7  88813557.38545  21689161.555                    21689169.402
 128006086.379 6  99744964.832 6  24358733.063                    24358742.723
 125497532.793 6  97790381.65543  23881361.461                    23881370.047
 113763690.025 7  88647075.637 7  21648506.703                    21648514.586
 123221384.197 6  96016756.20943  23448252.922                    23448262.637
 107548748.325 8  83804299.500 8  20465831.164                    20465837.996
 117494948.972 7  91554558.755 7  22358547.852                    22358555.473
 113514749.611 8  88452957.786 8  21601101.859                    21601111.945
 114257561.058 7  89031857.12645  21742435.492                    21742441.344
 11  8 18  2 31 30.0000000  0  9G30G15G10G12G26G05G29G25G02
 114006479.845 7  88836121.98645  21694671.703                    21694679.957
 127911256.830 6  99671071.817 6  24340687.055                    24340697.223
 125603902.707 6  97873267.26843  23901603.305                    23901611.305
 113831890.440 8  88700218.796 7  21661485.766                    21661492.922
 123127923.791 7  95943929.98244  23430468.523                    23430477.227
 107582051.283 8  83830249.862 8  20472168.578                    20472175.410
 117414849.250 7  91492143.438 7  22343305.258                    22343313.125
 113523522.316 8  88459793.668 7  21602771.172                    21602781.250
 114297499.161 8  89062977.74946  21750035.484                    21750041.391
 11  8 18  2 32  0.0000000  0  9G30G15G10G12G26G05G29G25G02
 114035983.577 8  88859111.92145  21700286.125                    21700294.234
 127816335.503 7  99597107.282 6  24322624.789                    24322634.824
 125710394.152 6  97956247.56643  23921867.984                    23921875.773
 113900482.414 8  88753667.092 7  21674537.617                    21674545.148
 123034577.681 7  95871192.81244  23412705.547                    23412714.320
 107615846.692 8  83856583.954 8  20478599.289                    20478606.461
 117334855.820 7  91429810.920 7  22328082.648                    22328090.504
 113532862.306 8  88467071.589 7  21604548.859                    21604558.656
 114337522.533 7  89094164.80445  21757651.313                    21757657.480
 11  8 18  2 32 30.0000000  0  9G30G15G10G12G26G05G29G25G02
 114066031.402 7  88882525.82045  21706004.078                    21706011.797
 127721325.104 6  99523073.321 6  24304544.500                    24304554.117
 125817004.559 6  98039320.58743  23942155.734                    23942163.023
 113969463.858 7  88807418.857 7  21687664.852                    21687672.141
 122941349.581 6  95798547.60944  23394964.391                    23394973.090
 107650132.708 8  83883300.339 8  20485123.938                    20485131.051
 117254970.645 7  91367562.772 7  22312881.000                    22312889.340
 113542768.878 8  88474791.003 7  21606434.055                    21606443.848
 114377630.770 8  89125417.98745  21765284.281                    21765289.828
 11  8 18  2 33  0.0000000  0  9G30G15G10G12G26G05G29G25G02
 114096621.039 7  88906361.92145  21711824.914                    21711833.258
 127626227.949 6  99448971.751 6  24286447.914                    24286457.527
 125923731.274 7  98122484.25043  23962465.289                    23962472.805
 114038830.850 7  88861471.054 7  21700864.625                    21700872.230
 122848242.560 7  95725996.71644  23377246.648                    23377255.512
 107684907.017 8  83910397.219 8  20491741.352                    20491748.383
 117175195.507 7  91305400.377 7  22297700.445                    22297708.453
 113553240.773 8  88482950.931 7  21608426.391                    21608436.586
 114417823.641 8  89156737.11645  21772932.680                    21772937.727
 11  8 18  2 33 30.0000000  0  9G30G15G10G12G26G05G29G25G02
 114127750.763 7  88930618.84545  21717748.844                    21717756.453
 127531046.468 7  99374804.511 6  24268335.734                    24268345.258
 126030571.679 6  98205736.47543  23982796.477                    23982802.504
 114108580.848 7  88915821.679 7  21714137.844                    21714145.414
 122755260.390 7  95653543.14444  23359553.102                    23359562.797
 107720167.576 8  83937872.980 8  20498451.289                    20498458.059
 117095532.172 7  91243325.074 7  22282541.594                    22282549.246
 113564277.164 8  88491550.727 7  21610526.727                    21610537.027
 114458101.126 8  89188122.17645  21780596.688                    21780602.465
 11  8 18  2 34  0.0000000  0  9G30G15G10G12G26G05G29G25G02
 114159419.180 7  88955295.54945  21723775.258                    21723782.770
 127435784.065 7  99300574.243 6  24250207.867                    24250216.879
 126137523.440 6  98289075.50143  24003147.898                    24003154.895
 114178711.796 8  88970469.174 7  21727483.375                    21727490.660
 122662407.069 7  95581189.98844  23341883.227                    23341892.105
 107755913.422 8  83965726.883 8  20505253.195                    20505260.570
 117015982.962 7  91181338.722 7  22267402.852                    22267410.582
 113575877.597 8  88500590.037 7  21612734.148                    21612744.109
 114498463.474 7  89219573.34645  21788277.719                    21788282.961
 11  8 18  2 34 30.0000000  0  9G30G15G10G12G26G05G29G25G02
 114191624.019 7  88980390.22845  21729903.711                    21729911.730
 127340442.877 6  99226282.541 6  24232064.906                    24232073.605
 126244583.864 7  98372499.23943  24023521.367                    24023528.102
 114249220.771 7  89025411.209 7  21740900.836                    21740907.980
 122569686.096 7  95508939.92144  23324239.211                    23324247.309
 107792142.140 8  83993957.058 8  20512147.422                    20512154.438
 116936549.801 7  91119442.775 7  22252288.188                    22252295.180
 113588040.883 8  88510067.935 7  21615048.703                    21615059.094
 114538910.579 7  89251090.59445  21795974.586                    21795979.766
 11  8 18  2 35  0.0000000  0  9G30G15G10G12G26G05G29G25G02
 114224363.096 7  89005901.19445  21736133.500                    21736141.305
 127245025.707 7  99151931.679 6  24213907.531                    24213916.566
 126351750.065 7  98456005.38543  24043913.586                    24043921.223
 114320104.752 8  89080645.479 7  21754389.195                    21754396.762
 122477100.491 6  95436795.30644  23306620.773                    23306629.473
 107828851.489 8  84022561.749 8  20519133.094                    20519139.668
 116857234.636 7  91057638.777 7  22237194.719                    22237202.582
 113600765.737 8  88519983.421 7  21617470.141                    21617480.352
 114579442.220 7  89282673.70345  21803687.531                    21803693.102
 11  8 18  2 35 30.0000000  0  9G30G15G10G12G26G05G29G25G02
 114257634.748 8  89031827.15645  21742465.055                    21742472.422
 127149535.147 7  99077523.584 6  24195736.586                    24195744.559
 126459019.525 7  98539591.96843  24064326.719                    24064334.809
 114391361.173 7  89136169.945 7  21767949.203                    21767956.555
 122384654.268 7  95364759.37144  23289028.563                    23289037.523
 107866039.740 8  84051539.608 8  20526209.953                    20526216.465
 116778039.668 7  90995928.438 7  22222123.969                    22222131.984
 113614051.457 8  88530335.948 7  21619998.672                    21620007.980
 114620058.353 7  89314322.63345  21811416.219                    21811421.676
 11  8 18  2 36  0.0000000  0  9G30G15G10G12G26G05G29G25G02
 114291437.209 7  89058166.73745  21748897.297                    21748905.668
 127053974.168 6  99003060.606 5  24177551.047                    24177559.484
 126566389.804 6  98623257.11943  24084758.594                    24084767.504
 114462987.284 7  89191982.499 7  21781579.242                    21781586.730
 122292351.045 7  95292834.83144  23271463.727                    23271472.746
 107903705.349 8  84080889.435 8  20533377.430                    20533384.238
 116698967.046 7  90934313.435 7  22207076.773                    22207084.809
 113627897.164 8  88541124.818 7  21622633.227                    21622643.352
 114660759.215 8  89346037.61145  21819161.813                    21819166.348
 11  8 18  2 36 30.0000000  0  9G30G15G10G12G26G05G29G25G02
 114325768.255 8  89084918.20745  21755430.094                    21755438.160
 126958345.374 6  98928544.831 6  24159353.328                    24159362.648
 126673858.550 6  98706998.98143  24105209.281                    24105218.176
 114534980.632 7  89248081.189 7  21795278.914                    21795286.320
 122200194.575 7  95221024.64344  23253927.305                    23253936.168
 107941846.148 8  84110609.544 8  20540635.313                    20540641.777
 116620018.733 7  90872795.299 7  22192054.094                    22192061.461
 113642301.742 8  88552349.181 7  21625373.961                    21625383.836
 114701544.647 8  89377818.46145  21826922.500                    21826927.809
 11  8 18  2 37  0.0000000  0  9G30G15G10G12G26G05G29G25G02
 114360625.790 8  89112079.91745  21762063.453                    21762071.047
 126862651.167 6  98853978.030 6  24141143.828                    24141151.637
 126781423.290 6  98790815.69243  24125677.586                    24125686.664
 114607338.173 7  89304463.671 7  21809048.305                    21809055.680
 122108188.234 7  95149331.43844  23236418.344                    23236427.715
 107980459.916 8  84140698.193 8  20547983.367                    20547990.406
 116541196.469 7  90811375.366 7  22177054.508                    22177061.793
 113657263.982 8  88564008.075 7  21628221.148                    21628231.105
 114742414.240 7  89409664.90645  21834699.984                    21834704.891
 11  8 18  2 37 30.0000000  0  9G30G15G10G12G26G05G29G25G02
 114396007.829 8  89139650.33145  21768796.680                    21768804.309
 126766894.457 6  98779362.573 5  24122921.445                    24122930.445
 126889081.297 6  98874705.05843  24146164.688                    24146173.250
 114680056.697 7  89361127.448 7  21822886.031                    21822893.160
 122016335.514 7  95077757.92644  23218940.047                    23218948.594
 108019544.755 8  84171153.917 8  20555420.945                    20555427.563
 116462502.416 7  90750055.358 7  22162079.516                    22162087.297
 113672782.769 8  88576100.647 7  21631174.430                    21631184.016
 114783368.577 7  89441577.38345  21842493.281                    21842498.328
 11  8 18  2 38  0.0000000  0  9G30G15G10G12G26G05G29G25G02
 114431912.543 8  89167628.03645  21775629.180                    21775636.918
 126671077.809 6  98704700.374 5  24104688.320                    24104696.141
 126996830.169 6  98958665.22343  24166668.031                    24166676.559
 114753133.940 7  89418070.755 7  21836792.164                    21836799.324
 121924640.394 7  95006307.23244  23201491.219                    23201499.250
 108059099.017 8  84201975.426 8  20562947.563                    20562954.598
 116383938.933 7  90688837.089 7  22147129.102                    22147136.742
 113688857.319 8  88588626.281 8  21634233.578                    21634243.941
 114824407.700 8  89473555.91845  21850302.586                    21850308.336
 11  8 18  2 38 30.0000000  0  9G30G15G10G12G26G05G29G25G02
 114468337.196 7  89196010.88045  21782560.273                    21782567.859
 126575203.815 6  98629993.470 6  24086444.008                    24086452.539
 127104667.236 6  99042694.07243  24187188.883                    24187196.648
 114826566.470 7  89475290.888 7  21850765.828                    21850773.152
 121833105.949 7  94934981.74844  23184072.242                    23184081.172
 108099119.895 7  84233160.524 8  20570563.406                    20570569.844
 116305507.653 7  90627721.870 7  22132203.836                    22132211.773
 113705485.815 8  88601583.559 7  21637397.500                    21637407.402
 114865530.971 7  89505600.02545  21858128.305                    21858133.828
 11  8 18  2 39  0.0000000  0  9G30G15G10G12G26G05G29G25G02
 114505280.152 8  89224797.59545  21789590.688                    21789598.305
 126479275.640 7  98555244.392 6  24068189.188                    24068198.438
 127212589.930 6  99126789.65743  24207727.047                    24207734.496
 114900351.924 7  89532786.010 7  21864806.500                    21864813.918
 121741736.213 7  94863784.62144  23166684.797                    23166694.180
 108139606.039 8  84264708.169 8  20578267.688                    20578274.543
 116227211.118 7  90566711.621 7  22117304.734                    22117312.484
 113722667.615 8  88614971.980 7  21640667.523                    21640677.039
 114906738.652 7  89537709.92445  21865969.891                    21865975.020
 11  8 18  2 39 30.0000000  0  9G30G15G10G12G26G05G29G25G02
 114542739.019 8  89253986.30945  21796718.438                    21796726.434
 126383295.463 7  98480454.783 6  24049925.148                    24049933.063
 127320595.749 6  99210950.04143  24228279.867                    24228287.457
 114974487.041 7  89590553.628 7  21878914.102                    21878921.438
 121650534.419 7  94792718.36244  23149330.055                    23149339.023
 108180554.764 8  84296616.284 8  20586059.789                    20586066.703
 116149050.949 7  90505807.638 7  22102431.531                    22102438.965
 113740401.113 8  88628790.298 7  21644041.891                    21644052.070
 114948030.763 7  89569885.59545  21873827.508                    21873832.840
 11  8 18  2 40  0.0000000  0  9G30G15G10G12G26G05G29G25G02
 114580711.744 8  89283575.44545  21803944.523                    21803952.012
 126287266.361 7  98405627.006 6  24031650.750                    24031659.445
 127428682.235 6  99295173.31843  24248847.961                    24248856.375
 115048969.333 7  89648591.762 7  21893088.031                    21893095.066
 121559504.423 7  94721785.94544  23132007.672                    23132016.023
 108221964.267 8  84328883.431 8  20593939.773                    20593947.004
 116071029.137 7  90445011.473 7  22087584.180                    22087591.648
 113758685.393 8  88643037.803 7  21647521.430                    21647530.980
 114989407.417 7  89602127.14545  21881701.227                    21881706.105
 11  8 18  2 40 30.0000000  0  9G30G15G10G12G26G05G29G25G02
 114619196.403 7  89313563.48345  21811267.656                    21811275.645
 126191191.207 6  98330763.355 6  24013368.414                    24013377.316
 127536847.135 6  99379457.66843  24269430.516                    24269438.402
 115123795.944 7  89706898.218 7  21907326.883                    21907333.844
 121468650.043 7  94650990.35444  23114718.273                    23114727.762
 108263832.762 8  84361508.231 8  20601907.063                    20601914.238
 115993148.236 7  90384325.123 7  22072764.063                    22072771.469
 113777519.156 8  88657713.457 7  21651105.398                    21651114.820
 115030868.642 7  89634434.59945  21889590.719                    21889596.098
 11  8 18  2 41  0.0000000  0  9G30G15G10G12G26G05G29G25G02
 114658190.384 7  89343948.40645  21818688.281                    21818696.004
 126095072.395 7  98255865.713 6  23995077.164                    23995086.496
 127645087.738 6  99463801.01943  24290028.242                    24290036.707
 115198963.742 7  89765470.500 7  21921630.664                    21921638.117
 121377974.662 7  94580334.26544  23097463.664                    23097471.230
 108306157.538 8  84394488.591 8  20609961.398                    20609968.434
 115915409.961 7  90323749.893 7  22057971.055                    22057978.387
 113796900.921 8  88672816.132 7  21654793.305                    21654803.141
 115072414.311 7  89666807.84445  21897496.742                    21897502.078
 11  8 18  2 41 30.0000000  0  9G30G15G10G12G26G05G29G25G02
 114697691.868 8  89374728.79745  21826205.234                    21826213.328
 125998913.053 7  98180936.417 6  23976778.578                    23976787.219
 127753401.577 6  99548201.45443  24310639.891                    24310647.453
 115274470.267 7  89824306.757 7  21935999.461                    21936006.785
 121287482.201 7  94509820.69644  23080243.063                    23080251.137
 108348937.106 8  84427823.324 8  20618102.180                    20618108.633
 115837816.712 7  90263287.662 7  22043205.398                    22043212.867
 113816829.697 8  88688345.052 7  21658585.484                    21658595.625
 115114044.606 7  89699247.03045  21905418.766                    21905423.742
 11  8 18  2 42  0.0000000  0  9G30G15G10G12G26G05G29G25G02
 114737698.559 7  89405902.83545  21833818.250                    21833826.211
 125902715.792 6  98105977.597 6  23958473.117                    23958481.574
 127861786.564 6  99632657.32543  24331264.266                    24331271.547
 115350312.399 7  89883404.514 7  21950431.641                    21950439.344
 121197176.197 7  94439452.43844  23063058.570                    23063066.441
 108392169.566 8  84461510.968 8  20626329.016                    20626335.629
 115760370.571 7  90202940.085 7  22028467.570                    22028475.555
 113837304.108 8  88704299.134 7  21662481.867                    21662491.770
 115155759.836 7  89731752.40145  21913357.203                    21913362.398
 11  8 18  2 42 30.0000000  0  9G30G15G10G12G26G05G29G25G02
 114778207.937 8  89437468.59045  21841526.914                    21841534.652
 125806483.304 6  98030991.373 6  23940159.617                    23940169.164
 127970240.183 6  99717166.64943  24351902.852                    24351909.352
 115426487.216 7  89942761.504 7  21964927.070                    21964934.641
 121107059.998 7  94369232.07344  23045909.781                    23045917.594
 108435852.172 8  84495549.367 8  20634641.344                    20634648.309
 115683073.432 7  90142708.596 7  22013758.961                    22013766.098
 113858322.666 8  88720677.225 7  21666481.727                    21666491.656
 115197559.375 7  89764323.48645  21921311.289                    21921316.238
 11  8 18  2 43  0.0000000  0  9G30G15G10G12G26G05G29G25G02
 114819218.073 7  89469424.53945  21849330.859                    21849339.117
 125710218.589 6  97955980.024 6  23921841.445                    23921850.734
 128078759.855 6  99801727.42143  24372553.203                    24372560.758
 115502991.988 8  90002375.595 7  21979485.492                    21979492.738
 121017137.581 7  94299162.70844  23028798.133                    23028806.547
 108479983.138 7  84529937.144 8  20643039.367                    20643045.715
 115605927.762 7  90082595.145 7  21999078.055                    21999085.734
 113879884.158 8  88737478.405 7  21670584.367                    21670594.496
 115239443.721 8  89796960.64745  21929281.266                    21929286.703
 11  8 18  2 43 30.0000000  0  9G30G15G10G12G26G05G29G25G02
 114860726.627 7  89501768.86545  21857229.664                    21857237.750
 125613924.389 6  97880945.670 6  23903517.891                    23903526.320
 128187342.955 6  99886337.63743  24393215.109                    24393223.504
 115579823.699 8  90062244.479 7  21994105.789                    21994112.844
 120927412.729 7  94229247.26944  23011724.203                    23011732.223
 108524560.262 8  84564672.568 7  20651521.758                    20651528.660
 115528935.613 7  90022601.314 7  21984427.383                    21984434.457
 113901987.238 8  88754701.564 7  21674790.852                    21674800.469
 115281412.915 8  89829663.93045  21937267.625                    21937273.684
 11  8 18  2 44  0.0000000  0  9G30G15G10G12G26G05G29G25G02
 114902731.204 8  89534499.71045  21865222.883                    21865230.836
 125517603.492 6  97805890.517 6  23885188.305                    23885197.105
 128295987.415 6  99970995.62843  24413889.641                    24413898.648
 115656979.520 7  90122365.873 7  22008788.305                    22008796.203
 120837889.006 7  94159488.56044  22994687.656                    22994696.707
 108569581.439 8  84599754.008 7  20660089.070                    20660096.363
 115452099.033 7  89962728.709 7  21969805.680                    21969812.922
 113924630.429 8  88772345.620 7  21679099.633                    21679109.719
 115323466.992 7  89862433.33545  21945270.313                    21945276.145
 11  8 18  2 44 30.0000000  0  9G30G15G10G12G26G05G29G25G02
 114945229.333 8  89567615.14645  21873309.984                    21873318.074
 125421258.679 6  97730816.732 6  23866854.148                    23866862.664
 128404690.346 6 100055699.23843  24434575.148                    24434584.113
 115734456.224 8  90182737.326 7  22023531.719                    22023538.793
 120748569.729 7  94089889.19844  22977691.664                    22977699.988
 108615044.091 8  84635179.471 8  20668740.602                    20668747.664
 115375420.127 7  89902978.949 7  21955213.852                    21955221.566
 113947812.129 8  88790409.276 7  21683510.641                    21683520.996
 115365605.857 8  89895268.81445  21953289.328                    21953295.074
 11  8 18  2 45  0.0000000  0  9G30G15G10G12G26G05G29G25G02
 114988218.897 8  89601113.50445  21881490.289                    21881497.902
 125324892.953 6  97655726.649 6  23848515.930                    23848524.941
 128513449.556 6 100140446.65343  24455271.844                    24455281.344
 115812250.992 8  90243356.605 7  22038335.367                    22038342.715
 120659459.016 7  94020452.32844  22960734.094                    22960742.824
 108660946.479 8  84670947.572 8  20677475.258                    20677482.395
 115298901.301 7  89843353.950 7  21940652.594                    21940660.688
 113971531.129 8  88808891.612 7  21688024.453                    21688034.246
 115407830.009 8  89928170.75045  21961324.547                    21961329.613
 11  8 18  2 45 30.0000000  0 10G30G15G10G12G26G05G29G25G02G21
 115031697.305 8  89634992.79445  21889764.328                    21889771.672
 125228509.013 6  97580622.374 6  23830174.992                    23830183.602
 128622262.973 6 100225236.35642  24475978.008                    24475987.488
 115890361.320 8  90304221.804 7  22053199.531                    22053206.703
 120570560.358 7  93951180.69844  22943817.641                    22943825.789
 108707286.358 8  84707056.586 8  20686293.445                    20686300.293
 115222544.526 7  89783855.207 7  21926122.219                    21926130.137
 113995785.688 8  88827791.280 7  21692639.859                    21692649.789
 115450139.444 7  89961139.15145  21969375.773                    21969380.633
 132325360.69316 103110723.78052  25180684.844                    25180692.750
 11  8 18  2 46  0.0000000  0 10G30G15G10G12G26G05G29G25G02G21
 115075662.749 7  89669251.56145  21898130.344                    21898138.418
 125132110.051 6  97505506.361 6  23811830.422                    23811838.938
 128731128.451 6 100310066.56342  24496694.961                    24496703.637
 115968784.228 8  90365330.537 7  22068122.789                    22068130.262
 120481877.736 7  93882077.41745  22926941.617                    22926950.730
 108754062.049 8  84743505.183 8  20695194.484                    20695201.590
 115146352.288 7  89724484.660 7  21911623.805                    21911631.348
 114020574.883 8  88847107.535 7  21697357.094                    21697366.742
 115492534.411 7  89994174.20245  21977442.734                    21977448.270
 132268890.089 6 103066720.70842  25169938.750                    25169946.152
 11  8 18  2 46 30.0000000  0 10G30G15G10G12G26G05G29G25G02G21
 115120112.781 7  89703887.95745  21906589.063                    21906597.047
 125035698.761 6  97430380.765 6  23793484.063                    23793492.770
 128840043.321 6 100394935.20842  24517421.016                    24517428.820
 116047516.843 8  90426680.621 7  22083105.305                    22083112.305
 120393414.777 7  93813145.30144  22910107.914                    22910116.684
 108801271.174 8  84780291.531 8  20704178.617                    20704185.535
 115070326.792 7  89665244.066 7  21897156.336                    21897163.773
 114045897.070 8  88866839.117 7  21702175.867                    21702185.461
 115535014.996 8  90027275.94745  21985526.891                    21985532.066
 132212430.687 6 103022726.51043  25159194.047                    25159202.883
 11  8 18  2 47  0.0000000  0 10G30G15G10G12G26G05G29G25G02G21
 115165044.362 7  89738899.58445  21915139.297                    21915146.734
 124939277.675 7  97355247.524 6  23775135.766                    23775144.504
 128949005.066 6 100479840.40542  24538156.414                    24538163.398
 116126555.503 8  90488269.196 7  22098145.914                    22098152.617
 120305174.645 7  93744386.81144  22893316.367                    22893324.852
 108848910.693 8  84817413.240 8  20713243.953                    20713250.902
 114994469.838 7  89606134.771 7  21882721.539                    21882728.730
 114071750.176 8  88886984.402 7  21707095.469                    21707104.941
 115577580.930 7  90060444.21645  21993627.188                    21993632.180
 132155981.253 6 102978739.90842  25148452.398                    25148460.801
 11  8 18  2 47 30.0000000  0 10G30G15G10G12G26G05G29G25G02G21
 115210455.282 7  89774284.71745  21923780.406                    21923788.148
 124842849.776 7  97280108.987 6  23756786.734                    23756795.000
 129058011.527 6 100564780.47842  24558898.539                    24558905.441
 116205897.900 8  90550094.439 7  22113243.969                    22113251.227
 120217161.134 7  93675804.91344  22876567.523                    22876576.074
 108896978.747 8  84854868.878 8  20722390.766                    20722398.035
 114918783.604 8  89547158.519 7  21868318.727                    21868326.023
 114098132.774 8  88907542.285 7  21712115.953                    21712125.551
 115620232.106 7  90093678.88545  22001743.234                    22001748.551
 132099541.487 6 102934761.00342  25137711.430                    25137720.605
 11  8 18  2 48  0.0000000  0 10G30G15G10G12G26G05G29G25G02G21
 115256342.962 7  89810041.36045  21932512.461                    21932520.637
 124746417.658 7  97204967.132 6  23738435.992                    23738443.887
 129167060.173 5 100649753.45152  24579650.438                    24579656.918
 116285540.409 8  90612153.504 7  22128400.008                    22128406.883
 120129377.969 7  93607402.51044  22859862.852                    22859871.813
 108945473.042 7  84892656.656 8  20731618.781                    20731626.188
 114843270.097 7  89488316.828 7  21853948.820                    21853956.352
 114125043.159 8  88928511.420 7  21717236.727                    21717246.824
 115662969.108 7  90126980.44745  22009875.555                    22009880.875
 132043110.697 6 102890789.03342  25126973.328                    25126982.004
 11  8 18  2 48 30.0000000  0  9G30G15G12G26G05G29G25G02G21
 115302706.731 7  89846168.96845  21941335.461                    21941343.242
 124649986.162 7  97129825.742 6  23720085.703                    23720094.070
 116365482.140 7  90674445.723 7  22143612.391                    22143619.391
 120041830.413 7  93539183.70144  22843202.883                    22843211.387
 108994393.279 8  84930776.330 8  20740927.930                    20740935.133
 114767933.664 8  89429613.141 7  21839613.008                    21839620.383
 114152481.507 8  88949891.942 7  21722457.938                    21722467.746
 115705793.528 7  90160350.11345  22018025.031                    22018030.234
 131986690.281 6 102846825.14943  25116236.953                    25116245.715
 11  8 18  2 49  0.0000000  0  9G30G15G12G26G05G29G25G02G21
 115349542.312 7  89882664.22645  21950247.852                    21950256.105
 124553556.366 7  97054685.694 6  23701735.516                    23701743.773
 116445718.164 8  90736967.291 7  22158880.523                    22158887.898
 119954520.622 7  93471150.13345  22826588.859                    22826596.855
 109043735.309 8  84969224.683 8  20750317.414                    20750324.535
 114692774.473 8  89371047.537 7  21825311.000                    21825317.703
 114180444.420 8  88971681.229 7  21727779.516                    21727789.379
 115748703.800 7  90193786.68445  22026190.594                    22026195.570
 131930277.628 6 102802867.25342  25105501.680                    25105510.934
 11  8 18  2 49 30.0000000  0  9G30G15G12G26G05G29G25G02G21
 115396847.052 7  89919525.05145  21959250.094                    21959257.754
 124457130.891 7  96979549.019 6  23683386.422                    23683395.156
 116526245.421 8  90799715.766 7  22174204.430                    22174211.484
 119867451.906 7  93403304.42344  22810020.453                    22810028.527
 109093496.441 7  85007999.588 7  20759786.664                    20759793.820
 114617794.500 7  89312621.597 7  21811042.383                    21811049.918
 114208929.984 8  88993877.779 7  21733199.867                    21733209.695
 115791699.866 7  90227290.09745  22034372.133                    22034377.840
 131873872.156 6 102758915.01242  25094767.875                    25094776.609
 11  8 18  2 50  0.0000000  0  9G30G15G12G26G05G29G25G02G21
 115444618.695 7  89956749.71945  21968340.813                    21968348.277
 124360713.014 6  96904418.294 6  23665038.711                    23665047.387
 116607061.305 7  90862689.156 7  22189583.320                    22189590.531
 119780628.255 7  93335649.69644  22793497.813                    22793506.438
 109143675.135 8  85047099.897 7  20769335.398                    20769342.453
 114542996.443 8  89254337.405 7  21796808.734                    21796815.996
 114237936.860 8  89016480.537 7  21738719.695                    21738729.789
 115834782.035 7  90260860.62145  22042570.563                    22042576.090
 131817473.552 6 102714968.18342  25084035.602                    25084044.809
 11  8 18  2 50 30.0000000  0  9G30G15G12G26G05G29G25G02G21
 115492854.660 7  89994336.17945  21977519.305                    21977527.117
 124264305.575 6  96829295.680 6  23646692.617                    23646701.238
 116688162.612 7  90925884.947 7  22205016.352                    22205024.215
 119694053.446 7  93268188.82844  22777023.336                    22777031.602
 109194268.948 7  85086523.649 7  20778963.328                    20778969.965
 114468382.604 8  89196196.752 7  21782610.281                    21782617.684
 114267463.274 8  89039488.143 7  21744338.313                    21744348.160
 115877950.400 7  90294498.29345  22050785.242                    22050790.605
 131761081.126 6 102671026.12942  25073304.750                    25073313.496
 11  8 18  2 51  0.0000000  0  9G30G15G12G26G05G29G25G02G21
 115541552.026 7  90032282.18645  21986786.461                    21986793.746
 124167911.011 6  96754183.072 6  23628349.336                    23628357.699
 116769546.014 7  90989300.559 7  22220502.922                    22220510.383
 119607730.524 7  93200924.24044  22760596.438                    22760604.852
 109245274.785 8  85126268.472 7  20788669.305                    20788676.145
 114393954.486 8  89138200.832 7  21768447.289                    21768454.805
 114297507.073 8  89062898.894 7  21750055.953                    21750065.516
 115921205.061 7  90328203.22045  22059016.461                    22059021.457
 131704693.873 6 102627088.09942  25062574.266                    25062583.082
 11  8 18  2 51 30.0000000  0  9G30G15G12G26G05G29G25G02G21
 115590708.343 7  90070585.81745  21996140.602                    21996148.609
 124071532.469 6  96679082.973 6  23610008.758                    23610017.680
 116851208.874 7  91052933.928 7  22236043.141                    22236050.500
 119521663.517 7  93133859.08044  22744218.719                    22744226.711
 109296690.805 8  85166332.908 7  20798453.313                    20798460.031
 114319714.702 8  89080351.664 7  21754319.750                    21754326.832
 114328066.754 8  89086711.625 7  21755870.844                    21755880.359
 115964546.281 8  90361975.60145  22067264.141                    22067269.422
 131648311.603 6 102583153.96942  25051844.734                    25051854.230
 11  8 18  2 52  0.0000000  0  9G30G15G12G26G05G29G25G02G21
 115640321.331 7  90109245.28345  22005581.094                    22005589.281
 123975173.184 6  96603997.857 6  23591672.148                    23591680.648
 116933148.446 7  91116782.931 7  22251635.367                    22251643.027
 119435856.418 7  93066996.44844  22727890.383                    22727898.160
 109348515.065 8  85206715.449 8  20808315.305                    20808322.164
 114245665.767 8  89022651.206 7  21740228.875                    21740236.086
 114359140.796 8  89110925.164 7  21761784.109                    21761793.801
 116007974.223 8  90395815.55245  22075527.875                    22075533.277
 131591933.809 6 102539223.36843  25041117.086                    25041125.340
 11  8 18  2 52 30.0000000  0  9G30G15G12G26G05G29G25G02G21
 115690387.822 7  90148258.12345  22015109.188                    22015116.676
 123878835.500 6  96528929.585 6  23573339.828                    23573348.586
 117015360.860 7  91180844.535 7  22267280.008                    22267287.461
 119350312.291 7  93000338.70744  22711611.531                    22711619.352
 109400744.717 8  85247413.895 7  20818254.438                    20818260.777
 114171809.436 8  88965100.832 7  21726174.172                    21726181.789
 114390726.796 8  89135537.628 7  21767794.773                    21767804.637
 116051488.737 7  90429722.95645  22083808.258                    22083814.012
 131535559.695 6 102495295.61543  25030389.844                    25030397.473
 11  8 18  2 53  0.0000000  0  9G30G15G12G26G05G29G25G02G21
 115740905.801 7  90187622.77745  22024721.977                    22024730.141
 123782523.010 6  96453880.922 6  23555012.578                    23555020.777
 117097843.872 7  91245117.004 7  22282975.883                    22282983.477
 119265035.354 7  92933889.16844  22695383.789                    22695391.188
 109453377.864 8  85288426.737 7  20828269.883                    20828276.773
 114098148.542 8  88907702.760 7  21712156.914                    21712164.594
 114422823.541 8  89160548.055 7  21773902.461                    21773912.770
 116095090.450 7  90463698.29845  22092105.711                    22092110.898
 131479188.629 6 102451370.25243  25019662.227                    25019670.348
 11  8 18  2 53 30.0000000  0  9G30G15G12G26G05G29G25G02G21
 115791872.580 7  90227337.13045  22034420.477                    22034428.660
 123686238.364 7  96378853.976 6  23536689.992                    23536698.484
 117180594.375 7  91309597.877 7  22298723.133                    22298730.867
 119180029.134 7  92867650.61244  22679207.320                    22679215.531
 109506412.185 8  85329752.189 7  20838362.172                    20838368.906
 114024685.147 8  88850458.595 7  21698177.313                    21698184.797
 114455429.034 8  89185954.934 7  21780107.367                    21780117.043
 116138779.454 7  90497741.66345  22100419.320                    22100424.691
 131422820.263 6 102407446.99143  25008935.125                    25008943.711
 11  8 18  2 54  0.0000000  0  9G30G15G12G26G05G29G25G02G21
 115843285.082 7  90267398.78645  22044204.164                    22044211.910
 123589984.447 7  96303850.957 6  23518374.305                    23518382.035
 117263608.730 7  91374284.364 7  22314519.820                    22314527.488
 119095297.029 7  92801625.60944  22663083.438                    22663091.770
 109559844.977 8  85371388.138 7  20848529.844                    20848536.621
 113951421.076 8  88793369.745 7  21684235.383                    21684243.430
 114488541.132 8  89211756.547 7  21786408.414                    21786417.918
 116182555.705 7  90531853.02445  22108749.914                    22108754.270
 131366454.048 6 102363525.42043  24998209.625                    24998217.602
 11  8 18  2 54 30.0000000  0  9G30G15G12G26G05G29G25G02G21
 115895140.985 7  90307805.98545  22054072.430                    22054080.059
 123493764.341 7  96228874.328 6  23500063.227                    23500071.918
 117346884.711 7  91439174.717 7  22330366.828                    22330374.547
 119010843.162 7  92735817.44644  22647012.563                    22647020.715
 109613673.960 8  85413332.808 7  20858773.086                    20858780.535
 113878359.258 8  88736438.511 7  21670332.445                    21670339.512
 114522158.329 8  89237951.771 7  21792805.359                    21792815.531
 116226419.731 7  90566032.79645  22117096.406                    22117102.070
 131310089.194 6 102319604.92743  24987482.313                    24987490.617
 11  8 18  2 55  0.0000000  0  9G30G15G12G26G05G29G25G02G21
 115947437.983 7  90348556.87245  22064023.859                    22064031.426
 123397581.325 7  96153926.563 6  23481760.156                    23481768.223
 117430419.393 7  91504266.657 7  22346262.945                    22346270.633
 118926671.304 7  92670229.01544  22630995.188                    22631003.266
 109667897.593 8  85455585.001 8  20869091.453                    20869098.910
 113805502.012 8  88679666.679 7  21656467.945                    21656475.609
 114556278.992 8  89264539.293 7  21799298.055                    21799307.848
 116270371.791 7  90600281.15145  22125460.680                    22125466.012
 131253725.829 6 102275685.54543  24976757.414                    24976765.668
 11  8 18  2 55 30.0000000  0  9G30G15G12G26G05G29G25G02G21
 116000173.083 7  90389649.13345  22074059.117                    22074067.215
 123301438.275 7  96079009.954 6  23463464.984                    23463472.477
 117514209.326 7  91569557.479 7  22362207.734                    22362215.203
 118842784.952 7  92604863.05545  22615032.367                    22615040.879
 109722513.262 8  85498142.671 7  20879484.648                    20879491.500
 113732851.261 8  88623055.749 7  21642642.844                    21642650.172
 114590900.932 8  89291517.399 7  21805886.586                    21805896.375
 116314412.085 8  90634598.24145  22133841.672                    22133846.957
 131197362.808 6 102231766.43443  24966031.289                    24966040.277
 11  8 18  2 56  0.0000000  0  9G30G15G12G26G05G29G25G02G21
 116053343.594 7  90431080.68645  22084177.195                    22084185.227
 123205337.879 7  96004126.573 6  23445177.680                    23445184.840
 117598251.641 7  91635044.983 7  22378200.102                    22378207.465
 118759187.874 7  92539722.51745  22599124.016                    22599132.145
 109777518.155 8  85541003.625 7  20889951.836                    20889958.574
 113660409.519 8  88566607.684 7  21628857.703                    21628865.184
 114626022.172 8  89318884.585 7  21812570.016                    21812579.574
 116358540.740 8  90668984.20545  22142239.172                    22142243.766
 131140999.551 6 102187847.17343  24955305.633                    24955314.551
 11  8 18  2 56 30.0000000  0  9G30G15G12G26G05G29G25G02G21
 116106947.038 7  90472849.58245  22094377.547                    22094385.355
 123109283.542 6  95929279.114 6  23426899.219                    23426906.367
 117682543.459 7  91700726.888 7  22394241.016                    22394248.555
 118675883.848 7  92474810.33845  22583271.594                    22583279.445
 109832910.621 7  85584166.583 7  20900492.672                    20900499.574
 113588179.316 8  88510324.458 7  21615112.781                    21615120.094
 114661641.027 8  89346639.526 7  21819348.203                    21819357.906
 116402757.953 7  90703439.16945  22150653.375                    22150657.574
 131084635.906 6 102143927.58743  24944580.414                    24944588.934
 11  8 18  2 57  0.0000000  0  9G30G15G12G26G05G29G25G02G21
 116160980.153 8  90514953.28445  22104659.906                    22104668.004
 123013277.717 6  95854469.431 6  23408629.211                    23408637.391
 117767080.923 7  91766600.214 7  22410327.797                    22410334.883
 118592875.947 7  92410128.89644  22567476.391                    22567483.598
 109888687.340 8  85627628.956 7  20911106.805                    20911113.434
 113516162.277 8  88454207.319 7  21601408.461                    21601415.316
 114697754.910 8  89374780.201 7  21826220.297                    21826229.840
 116447063.790 7  90737963.18745  22159083.938                    22159088.984
 131028270.810 6 102100006.83143  24933854.758                    24933862.820
 11  8 18  2 57 30.0000000  0  9G30G15G12G26G05G29G25G02G21
 116215440.344 7  90557389.78245  22115022.844                    22115031.359
 122917323.680 7  95779700.136 6  23390369.492                    23390378.285
 117851861.670 7  91832663.120 7  22426461.148                    22426468.473
 118510168.503 7  92345681.56045  22551736.984                    22551745.777
 109944846.570 8  85671389.397 7  20921793.195                    20921799.883
 113444361.084 8  88398258.387 7  21587745.094                    21587752.516
 114734362.151 8  89403305.304 7  21833186.602                    21833197.023
 116491458.736 7  90772556.65345  22167531.742                    22167537.293
 130971903.900 6 102056084.74043  24923127.938                    24923136.391
 11  8 18  2 58  0.0000000  0  9G30G15G12G26G05G29G25G02G21
 116270325.202 7  90600157.17645  22125467.453                    22125475.555
 122821424.293 6  95704973.422 6  23372121.086                    23372128.684
 117936882.739 7  91898913.285 7  22442640.039                    22442647.203
 118427764.964 7  92281471.05944  22536055.477                    22536064.516
 110001386.000 7  85715446.099 7  20932552.414                    20932558.941
 113372778.098 8  88342479.487 7  21574122.969                    21574130.520
 114771460.886 8  89432213.392 7  21840246.313                    21840256.164
 116535943.162 8  90807219.82645  22175997.375                    22176002.000
 130915534.748 7 102012160.89043  24912401.398                    24912409.375
 11  8 18  2 58 30.0000000  0  9G30G15G12G26G05G29G25G02G21
 116325631.582 7  90643253.04145  22135992.164                    22136000.027
 122725582.524 6  95630291.587 6  23353882.633                    23353891.164
 118022140.721 7  91965348.056 7  22458863.938                    22458871.559
 118345668.892 7  92217500.15045  22520433.695                    22520441.637
 110058302.704 7  85759796.781 7  20943383.273                    20943390.316
 113301415.286 8  88286872.130 7  21560543.281                    21560550.547
 114809048.827 8  89461502.671 7  21847399.008                    21847409.629
 116580516.939 8  90841952.62945  22184479.391                    22184484.191
 130859162.590 6 101968234.66943  24901674.500                    24901681.141
 11  8 18  2 59  0.0000000  0  9G30G15G12G26G05G29G25G02G21
 116381356.725 7  90686675.20945  22146596.156                    22146604.129
 122629801.576 6  95555657.163 6  23335655.938                    23335664.785
 118107632.759 7  92031965.201 7  22475133.133                    22475140.488
 118263883.787 7  92153771.55745  22504870.688                    22504878.688
 110115594.414 7  85804439.678 7  20954285.422                    20954292.367
 113230275.092 8  88231438.253 7  21547005.461                    21547012.949
 114847123.935 8  89491171.567 7  21854644.313                    21854654.582
 116625180.352 8  90876755.27345  22192978.531                    22192984.621
 130802787.036 6 101924305.81243  24890945.281                    24890952.734
 11  8 18  2 59 30.0000000  0  9G30G15G12G26G05G29G25G02G21
 116437497.930 7  90730421.59045  22157279.086                    22157287.020
 122534084.183 7  95481072.266 6  23317441.906                    23317450.309
 118193355.741 7  92098762.317 7  22491444.789                    22491452.863
 118182413.640 7  92090288.34845  22489366.883                    22489375.063
 110173258.953 8  85849373.084 7  20965258.648                    20965265.262
 113159359.983 8  88176179.763 7  21533511.102                    21533518.414
 114885684.149 8  89521218.484 7  21861981.883                    21861992.117
 116669933.708 8  90911628.01245  22201494.977                    22201499.973
 130746407.610 6 101880373.89043  24880216.742                    24880224.234
 11  8 18  3  0  0.0000000  0  9G30G15G12G26G05G29G25G02G21
 116494052.707 7  90774490.23045  22168041.555                    22168048.797
 122438433.893 6  95406539.639 6  23299239.578                    23299247.898
 118279306.754 7  92165737.108 7  22507801.195                    22507808.633
 118101262.194 7  92027053.48845  22473924.320                    22473932.113
 110231294.257 8  85894595.398 7  20976302.383                    20976309.371
 113088672.723 8  88121098.797 7  21520059.664                    21520067.188
 114924727.748 8  89551642.042 7  21869411.805                    21869421.285
 116714777.346 8  90946571.09845  22210028.555                    22210033.660
 130690023.783 6 101836438.59143  24869487.891                    24869494.820
 11  8 18  3  0 30.0000000  0  9G30G15G12G26G05G29G25G02G21
 116551017.937 7  90818878.70045  22178881.563                    22178889.824
 122342853.144 7  95332061.196 6  23281051.453                    23281060.008
 118365482.841 7  92232887.311 7  22524199.758                    22524207.441
 118020433.112 7  91964069.83744  22458543.219                    22458551.141
 110289697.668 8  85940104.547 7  20987416.156                    20987422.879
 113018215.099 8  88066196.772 7  21506652.172                    21506659.133
 114964252.321 8  89582440.396 7  21876933.164                    21876943.129
 116759711.638 8  90981584.83445  22218579.570                    22218584.336
 130633634.916 6 101792499.36643  24858757.016                    24858764.621
 11  8 18  3  1  0.0000000  0  9G30G15G12G26G05G29G25G02G21
 116608390.626 7  90863584.66445  22189799.203                    22189807.289
 122247345.199 7  95257639.495 6  23262876.977                    23262885.164
 118451880.523 7  92300210.147 7  22540640.680                    22540648.879
 117939929.529 7  91901339.82045  22443223.977                    22443232.180
 110348466.040 8  85985898.089 7  20998599.656                    20998606.469
 112947989.542 8  88011475.581 7  21493288.727                    21493295.762
 115004255.453 8  89613611.648 7  21884545.656                    21884555.207
 116804736.634 7  91016669.25745  22227146.547                    22227152.168
 130577239.935 6 101748555.38743  24848025.008                    24848033.316
 11  8 18  3  1 30.0000000  0  9G30G15G12G26G05G29G25G02G21
 116666168.045 7  90908606.00745  22200793.281                    22200801.797
 122151913.016 7  95183276.842 6  23244716.508                    23244724.695
 118538496.920 7  92367703.444 7  22557123.609                    22557130.953
 117859755.387 7  91838866.49145  22427967.391                    22427975.313
 110407597.511 7  86031974.552 7  21009851.852                    21009858.742
 112877998.234 8  87956936.910 7  21479969.539                    21479977.008
 115044735.250 8  89645154.344 7  21892248.828                    21892258.742
 116849852.330 8  91051824.34045  22235732.211                    22235737.285
 130520838.904 6 101704606.64943  24837292.758                    24837300.168
 11  8 18  3  2  0.0000000  0  9G30G15G12G26G05G29G25G02G21
 116724347.393 7  90953940.56045  22211865.039                    22211873.324
 122056559.760 7  95108975.680 6  23226571.758                    23226579.449
 118625328.845 7  92435364.670 7  22573646.414                    22573655.063
 117779914.362 7  91776652.74445  22412773.961                    22412782.602
 110467090.034 8  86078332.358 7  21021172.930                    21021179.785
 112808243.430 8  87902582.543 7  21466695.805                    21466702.609
 115085689.549 8  89677066.775 7  21900041.953                    21900051.668
 116895059.513 8  91087050.70345  22244334.633                    22244339.711
 130464431.186 6 101660652.70443  24826557.336                    24826565.602
 11  8 18  3  2 30.0000000  0  9G30G15G12G26G05G29G25G02G21
 116782925.475 7  90999585.80045  22223011.969                    22223020.645
 121961288.396 7  95034738.302 6  23208441.930                    23208449.988
 118712373.185 7  92503191.406 7  22590210.930                    22590218.777
 117700409.809 7  91714701.17945  22397644.539                    22397653.004
 110526940.524 8  86124969.099 7  21032562.156                    21032569.156
 112738727.590 8  87848414.365 7  21453467.422                    21453474.520
 115127115.857 8  89709347.018 7  21907925.070                    21907934.730
 116940358.093 7  91122348.30445  22252954.906                    22252958.852
 130408015.975 6 101616692.95543  24815822.883                    24815829.707
 11  8 18  3  3  0.0000000  0  9G30G15G12G26G05G29G25G02G21
 116841899.705 7  91045539.70645  22234234.461                    22234242.363
 121866101.747 7  94960566.933 6  23190328.469                    23190336.242
 118799627.009 7  92571181.375 7  22606814.719                    22606822.379
 117621245.453 7  91653014.70745  22382580.195                    22382587.566
 110587146.903 8  86171883.156 7  21044018.953                    21044026.352
 112669452.745 8  87794433.966 7  21440284.891                    21440292.242
 115169012.147 8  89741993.460 7  21915897.680                    21915908.027
 116985748.599 7  91157717.51145  22261592.211                    22261597.371
 130351592.951 6 101572727.09443  24805085.555                    24805093.344
 11  8 18  3  3 30.0000000  0  9G30G15G12G26G05G29G25G02G21
 116901267.165 7  91091800.06845  22245531.938                    22245539.586
 121771002.967 7  94886464.049 6  23172231.875                    23172239.695
 118887087.085 7  92639332.059 7  22623457.969                    22623465.977
 117542425.183 7  91591596.33145  22367581.203                    22367589.176
 110647706.959 8  86219072.819 7  21055543.297                    21055550.520
 112600421.587 8  87740643.465 7  21427148.508                    21427155.988
 115211376.310 8  89775004.478 7  21923959.422                    21923969.418
 117031231.281 8  91193158.55245  22270248.023                    22270252.438
 130295161.619 6 101528754.74443  24794347.180                    24794354.906
 11  8 18  3  4  0.0000000  0  9G30G15G12G26G05G29G25G02G21
 116961025.191 7  91138364.73645  22256903.297                    22256911.027
 121675995.520 7  94812432.334 6  23154152.320                    23154160.059
 118974750.860 7  92707641.481 7  22640139.719                    22640147.102
 117463952.571 7  91530448.86945  22352648.406                    22352656.527
 110708617.955 8  86266535.929 7  21067134.188                    21067140.965
 112531636.670 8  87687044.836 7  21414059.180                    21414066.391
 115254206.284 8  89808378.472 7  21932109.508                    21932119.711
 117076806.293 7  91228671.54945  22278919.945                    22278924.953
 130238721.522 6 101484775.60143  24783606.180                    24783615.063
 11  8 18  3  4 30.0000000  0  9G30G15G12G26G05G29G25G02G21
 117021170.348 7  91185231.08145  22268348.742                    22268356.414
 121581081.996 7  94738473.792 6  23136091.063                    23136098.648
 119062614.793 7  92776106.878 7  22656859.688                    22656867.422
 117385830.854 7  91469574.85345  22337782.383                    22337790.320
 110769877.236 8  86314270.439 7  21078791.477                    21078798.301
 112463100.009 8  87633639.643 7  21401017.039                    21401024.324
 115297499.283 8  89842113.260 7  21940348.102                    21940357.590
 117122473.904 7  91264256.68245  22287610.555                    22287615.379
 130182271.853 6 101440788.96443  24772864.602                    24772872.406
 11  8 18  3  5  0.0000000  0  9G30G15G12G26G05G29G25G02G21
 117081699.874 7  91232396.92645  22279867.078                    22279874.918
 121486265.509 7  94664590.866 6  23118048.258                    23118056.199
 119150675.752 7  92844725.792 6  22673617.195                    22673624.445
 117308063.825 7  91408977.20645  22322983.406                    22322991.594
 110831482.450 8  86362274.496 7  21090514.617                    21090521.344
 112394813.846 8  87580429.657 7  21388022.523                    21388030.457
 115341253.171 8  89876207.202 7  21948674.055                    21948683.859
 117168234.304 7  91299914.12745  22296318.414                    22296324.020
 130125812.120 6 101396794.49143  24762119.891                    24762127.750
 11  8 18  3  5 30.0000000  0  9G30G15G12G26G05G29G25G02G21
 117142610.996 6  91279860.12944  22291457.906                    22291465.531
 121391549.209 6  94590786.010 6  23100024.039                    23100032.199
 119238930.673 6  92913495.839 7  22690411.875                    22690419.293
 117230655.179 6  91348658.77743  22308253.273                    22308260.664
 110893431.478 7  86410546.465 7  21102303.453                    21102309.898
 112326780.936 6  87527417.004 7  21375076.289                    21375083.355
 115385465.873 7  89910658.657 7  21957087.680                    21957097.176
 117214088.042 6  91335644.30144  22305043.273                    22305049.363
 130069341.984 5 101352791.83142  24751375.203                    24751382.277
 11  8 18  3  6  0.0000000  0  9G30G15G12G26G05G29G25G02G21
 117203900.760 7  91327618.38545  22303121.055                    22303128.891
 121296936.196 7  94517061.637 6  23082019.266                    23082027.832
 119327376.835 7  92982414.909 6  22707242.711                    22707250.113
 117153608.486 7  91288622.44745  22293591.320                    22293599.363
 110955721.811 8  86459084.383 7  21114156.383                    21114163.336
 112259003.418 8  87474603.351 7  21362179.117                    21362185.996
 115430134.984 8  89945465.759 7  21965587.820                    21965597.496
 117260035.462 7  91371447.47845  22313787.469                    22313792.496
 130012860.894 6 101308780.69143  24740625.945                    24740634.652
 11  8 18  3  6 30.0000000  0  9G30G15G12G26G05G29G25G02G21
 117265566.183 7  91375669.34545  22314855.641                    22314863.207
 121202429.608 7  94443420.184 6  23064035.594                    23064043.465
 119416010.991 7  93051480.476 7  22724108.883                    22724116.582
 117076927.483 7  91228871.07645  22278999.953                    22279007.535
 111018351.091 8  86507886.439 7  21126074.539                    21126081.547
 112191483.997 8  87421990.826 7  21349330.203                    21349337.301
 115475258.228 8  89980626.701 7  21974174.578                    21974184.277
 117306076.965 7  91407323.97145  22322548.766                    22322554.313
 129956368.323 6 101264760.62043  24729876.602                    24729884.086
 11  8 18  3  7  0.0000000  0  9G30G15G12G26G05G29G25G02G21
 117327604.337 7  91424010.74645  22326660.953                    22326669.523
 121108032.454 7  94369863.999 6  23046072.461                    23046080.637
 119504829.999 7  93120690.080 6  22741010.453                    22741017.852
 117000615.716 7  91169407.39745  22264478.195                    22264485.988
 111081316.640 8  86556950.490 7  21138056.539                    21138063.301
 112124224.884 8  87369581.130 7  21336531.430                    21336538.570
 115520833.298 8  90016139.738 7  21982847.117                    21982857.148
 117352212.622 7  91443273.80645  22331327.992                    22331332.934
 129899863.732 6 101220731.18443  24719123.891                    24719130.730
 11  8 18  3  7 30.0000000  0  9G30G15G12G26G05G29G25G02G21
 117390011.959 7  91472640.06545  22338537.094                    22338544.734
 121013747.370 7  94296395.150 6  23028130.734                    23028138.762
 119593830.625 7  93190041.197 6  22757946.789                    22757954.449
 116924676.481 7  91110233.97545  22250027.422                    22250035.074
 111144615.865 8  86606274.574 7  21150102.195                    21150108.789
 112057227.768 8  87317375.604 7  21323781.984                    21323789.508
 115566857.336 8  90052002.610 7  21991605.211                    21991615.254
 117398442.614 7  91479297.17245  22340125.570                    22340130.793
 129843346.348 6 101176691.72943  24708368.820                    24708376.387
 11  8 18  3  8  0.0000000  0  9G30G15G12G26G05G29G25G02G21
 117452786.243 7  91521555.06445  22350482.359                    22350490.730
 120919577.967 7  94223016.456 6  23010210.805                    23010218.426
 119683010.052 7  93259531.624 7  22774917.586                    22774925.066
 116849113.365 7  91051353.67045  22235648.078                    22235656.133
 111208246.458 8  86655856.854 7  21162210.391                    21162216.742
 111990495.536 8  87265376.465 7  21311083.383                    21311090.297
 115613328.376 8  90088213.801 7  22000448.297                    22000458.203
 117444767.589 7  91515394.53045  22348941.203                    22348946.578
 129786815.749 6 101132642.01543  24697611.742                    24697618.250
 11  8 18  3  8 30.0000000  0  9G30G15G12G26G05G29G25G02G21
 117515924.194 7  91570753.44745  22362497.477                    22362505.254
 120825527.321 7  94149730.281 6  22992313.258                    22992320.953
 119772365.102 7  93329158.919 7  22791921.172                    22791929.113
 116773930.176 7  90992769.39445  22221341.664                    22221349.523
 111272206.057 8  86705695.508 7  21174381.555                    21174387.949
 111924030.615 8  87213585.618 7  21298435.289                    21298442.352
 115660243.979 8  90124771.391 7  22009376.273                    22009385.793
 117491187.732 7  91551566.03045  22357774.305                    22357779.875
 129730271.708 6 101088581.86243  24686851.547                    24686857.941
 11  8 18  3  9  0.0000000  0 10G30G15G18G12G26G05G29G25G02G21
 117579422.673 7  91620232.78145  22374580.305                    22374588.535
 120731598.287 7  94076538.884 6  22974439.391                    22974446.758
 129719471.77616 101080184.88252  24684803.789                    24684814.063
 119861892.820 7  93398920.769 6  22808957.547                    22808965.090
 116699130.146 7  90934483.68545  22207107.242                    22207115.707
 111336492.031 8  86755788.482 7  21186614.508                    21186620.934
 111857834.952 8  87162004.591 7  21285838.609                    21285846.090
 115707601.511 8  90161673.353 7  22018388.219                    22018397.746
 117537703.364 7  91587811.95145  22366626.406                    22366631.613
 129673713.446 6 101044510.57143  24676088.602                    24676095.531
 11  8 18  3  9 30.0000000  0 10G30G15G18G12G26G05G29G25G02G21
 117643278.402 7  91669990.45645  22386731.664                    22386739.848
 120637793.617 7  94003444.385 6  22956589.422                    22956596.703
 129629729.752 6 101010256.29442  24667725.625                    24667735.938
 119951589.587 7  93468814.339 6  22826026.070                    22826033.973
 116624716.575 7  90876499.11645  22192947.023                    22192954.871
 111401101.544 8  86806133.559 7  21198909.078                    21198915.750
 111791910.861 8  87110635.180 7  21273294.000                    21273301.594
 115755398.324 8  90198917.602 7  22027483.609                    22027493.148
 117584314.400 7  91624132.21845  22375496.414                    22375501.570
 129617140.304 6 101000427.72443  24665322.633                    24665330.828
 11  8 18  3 10  0.0000000  0 10G30G15G18G12G26G05G29G25G02G21
 117707488.531 7  91720024.32945  22398951.039                    22398958.660
 120544116.869 7  93930449.581 6  22938762.727                    22938770.898
 129540150.358 6 100940454.38643  24650679.703                    24650689.203
 120041452.594 7  93538837.426 6  22843126.758                    22843134.711
 116550693.291 7  90818818.66945  22178861.156                    22178868.105
 111466032.540 8  86856729.159 7  21211265.211                    21211272.477
 111726260.899 8  87059479.385 7  21260800.875                    21260808.609
 115803632.182 8  90236502.417 7  22036661.734                    22036671.621
 117631021.437 7  91660527.31045  22384384.102                    22384389.613
 129560551.905 6 100956332.99543  24654554.055                    24654560.703
 11  8 18  3 10 30.0000000  0 10G30G15G18G12G26G05G29G25G02G21
 117772050.162 7  91770332.07945  22411236.148                    22411244.227
 120450571.146 7  93857556.861 6  22920961.695                    22920969.551
 129450735.101 6 100870780.39643  24633663.664                    24633673.578
 120131478.406 7  93608987.394 6  22860258.031                    22860265.629
 116477063.903 7  90761445.15145  22164849.469                    22164857.137
 111531282.383 8  86907573.187 7  21223681.664                    21223688.477
 111660887.441 8  87008539.041 7  21248361.250                    21248368.391
 115852300.650 8  90274425.879 7  22045923.000                    22045933.133
 117677824.745 7  91696997.39745  22393290.664                    22393295.914
 129503947.888 6 100912226.04143  24643782.758                    24643789.586
 11  8 18  3 11  0.0000000  0 10G30G15G18G12G26G05G29G25G02G21
 117836960.638 7  91820911.64845  22423588.516                    22423596.711
 120357159.591 7  93784768.686 6  22903185.664                    22903193.660
 129361485.606 6 100801235.55642  24616679.672                    24616689.125
 120221664.765 7  93679262.467 7  22877419.820                    22877427.645
 116403832.305 7  90704381.59845  22150913.813                    22150921.832
 111596849.070 8  86958664.109 7  21236158.914                    21236165.352
 111595793.261 8  86957816.309 7  21235973.883                    21235981.305
 115901401.749 8  90312686.455 7  22055267.164                    22055277.141
 117724725.107 7  91733543.14445  22402215.148                    22402220.504
 129447327.916 6 100868106.65843  24633008.195                    24633015.445
 11  8 18  3 11 30.0000000  0 10G30G15G18G12G26G05G29G25G02G21
 117902216.621 7  91871760.48445  22436005.984                    22436014.246
 120263885.148 7  93712087.353 6  22885436.000                    22885443.891
 129272402.729 5 100731820.61042  24599727.469                    24599736.383
 120312008.378 7  93749660.065 6  22894611.813                    22894619.344
 116331001.825 7  90647630.61145  22137054.680                    22137063.301
 111662729.971 8  87009999.878 7  21248695.508                    21248702.457
 111530980.575 8  86907312.936 7  21223640.484                    21223647.672
 115950932.625 8  90351281.923 7  22064692.477                    22064702.789
 117771722.828 7  91770164.71645  22411159.000                    22411163.672
 129390691.453 6 100823974.44543  24622230.922                    24622238.188
 11  8 18  3 12  0.0000000  0 10G30G15G18G12G26G05G29G25G02G21
 117967815.047 7  91922876.12145  22448489.336                    22448497.555
 120170751.042 7  93639515.403 6  22867713.344                    22867721.074
 129183487.999 6 100662536.64943  24582806.711                    24582817.340
 120402506.114 7  93820177.778 6  22911833.305                    22911840.316
 116258575.869 7  90591194.82845  22123272.023                    22123280.254
 111728922.194 8  87061578.236 7  21261291.836                    21261298.117
 111466451.734 8  86857030.728 7  21211360.992                    21211368.574
 116000890.733 8  90390210.298 7  22074198.844                    22074208.719
 117818818.197 7  91806862.41145  22420120.352                    22420125.879
 129334037.832 6 100779828.84243  24611449.727                    24611457.047
 11  8 18  3 12 30.0000000  0 10G30G15G18G12G26G05G29G25G02G21
 118033752.745 7  91974256.15145  22461036.938                    22461044.367
 120077760.367 7  93567055.168 6  22850018.016                    22850025.578
 129094742.660 6 100593384.62143  24565920.688                    24565929.559
 120493155.000 7  93890813.269 6  22929082.922                    22929090.063
 116186557.829 7  90535076.91545  22109567.969                    22109575.781
 111795423.640 8  87113397.551 7  21273946.539                    21273952.988
 111402208.958 8  86806971.428 7  21199136.195                    21199143.254
 116051273.637 8  90429469.671 7  22083786.555                    22083796.391
 117866011.332 7  91843636.25745  22429100.961                    22429106.137
 129277366.666 6 100735669.53343  24600665.617                    24600673.453
 11  8 18  3 13  0.0000000  0 10G30G15G18G12G26G05G29G25G02G21
 118100026.800 7  92025898.26945  22473648.641                    22473656.578
 119984915.949 7  93494708.891 6  22832349.914                    22832358.117
 129006167.684 6 100524365.37143  24549064.984                    24549074.246
 120583951.790 7  93961564.002 6  22946360.578                    22946367.777
 116114951.181 7  90479279.56145  22095941.445                    22095949.473
 111862232.013 8  87165456.026 7  21286659.813                    21286666.887
 111338254.849 8  86757137.075 7  21186966.008                    21186973.305
 116102078.706 8  90469058.022 7  22093454.703                    22093464.707
 117913302.890 7  91880486.79545  22438099.719                    22438105.453
 129220677.569 6 100691496.32043  24589878.023                    24589886.070
 11  8 18  3 13 30.0000000  0 10G30G15G18G12G26G05G29G25G02G21
 118166634.392 7  92077800.27045  22486323.820                    22486331.637
 119892221.735 7  93422479.686 7  22814711.195                    22814719.184
 128917765.062 6 100455480.40543  24532242.109                    24532251.395
 120674893.898 7  94032427.976 6  22963666.500                    22963673.605
 116043759.703 7  90423805.73345  22082394.141                    22082402.387
 111929344.993 8  87217751.856 7  21299430.789                    21299437.609
 111274591.980 8  86707529.653 7  21174851.531                    21174858.984
 116153303.746 8  90508973.615 7  22103202.492                    22103212.109
 117960693.464 7  91917414.48945  22447118.344                    22447122.938
 129163969.858 6 100647308.59943  24579086.211                    24579094.094
 11  8 18  3 14  0.0000000  0 10G30G15G18G12G26G05G29G25G02G21
 118233572.176 7  92129959.58745  22499061.273                    22499069.262
 119799680.319 7  93350369.530 6  22797101.391                    22797108.805
 128829535.494 6 100386730.28343  24515452.352                    24515461.043
 120765977.915 7  94103402.522 6  22980998.953                    22981006.723
 115972986.755 7  90368658.01645  22068926.203                    22068935.105
 111996759.792 8  87270282.871 7  21312259.172                    21312266.055
 111211222.438 8  86658150.808 7  21162792.320                    21162799.566
 116204945.956 8  90549214.282 7  22113029.602                    22113039.547
 118008183.178 7  91954419.43545  22456155.992                    22456160.328
 129107243.239 6 100603106.09743  24568291.891                    24568299.438
 11  8 18  3 14 30.0000000  0 10G30G15G18G12G26G05G29G25G02G21
 118300837.003 7  92182373.69645  22511861.383                    22511869.383
 119707294.674 7  93278380.758 7  22779520.586                    22779528.586
 128741480.459 6 100318116.18443  24498696.313                    24498704.922
 120857200.525 7  94174485.040 6  22998358.453                    22998365.707
 115902635.797 7  90313839.11545  22055539.133                    22055546.758
 112064473.828 8  87323047.057 7  21325144.570                    21325151.590
 111148148.350 8  86609002.169 7  21150790.039                    21150796.988
 116257002.679 8  90589777.955 7  22122935.703                    22122945.758
 118055772.090 7  91991501.67045  22465211.438                    22465216.281
 129050497.261 6 100558888.54443  24557493.211                    24557500.496
 11  8 18  3 15  0.0000000  0 10G30G15G18G12G26G05G29G25G02G21
 118368425.862 7  92235040.32345  22524723.359                    22524731.457
 119615068.239 7  93206516.063 6  22761970.602                    22761978.703
 128653601.182 6 100249639.01743  24481973.453                    24481981.633
 120948558.919 7  94245673.395 6  23015743.281                    23015751.230
 115832710.208 7  90259351.67645  22042232.961                    22042240.441
 112132485.005 8  87376042.777 7  21338087.102                    21338094.066
 111085372.511 8  86560085.945 7  21138844.070                    21138851.742
 116309471.482 8  90630662.712 7  22132920.391                    22132930.504
 118103460.865 7  92028661.71245  22474286.672                    22474291.508
 128993731.437 6 100514655.46143  24546691.203                    24546698.063
 11  8 18  3 15 30.0000000  0 10G30G15G18G12G26G05G29G25G02G21
 118436335.452 8  92287956.87345  22537645.875                    22537654.078
 119523003.888 7  93134777.644 7  22744450.914                    22744458.676
 128565898.870 6 100181299.72442  24465283.672                    24465292.031
 121040049.960 7  94316965.093 6  23033153.242                    23033160.980
 115763213.285 7  90205198.24645  22029007.648                    22029015.898
 112200790.333 8  87429267.715 7  21351084.938                    21351091.844
 111022896.883 8  86511403.639 7  21126955.273                    21126962.414
 116362349.473 8  90671866.318 7  22142982.305                    22142992.488
 118151249.834 7  92065899.81445  22483379.953                    22483386.027
 128936944.986 6 100470406.34443  24535884.719                    24535892.137
 11  8 18  3 16  0.0000000  0 10G30G15G18G12G26G05G29G25G02G21
 118504562.568 7  92341120.83845  22550629.266                    22550637.082
 119431104.526 7  93063167.809 6  22726963.297                    22726970.793
 128478374.500 6 100113099.18342  24448627.375                    24448636.766
 121131670.458 6  94388357.687 6  23050588.016                    23050596.004
 115694148.514 7  90151381.55845  22015865.180                    22015872.902
 112269387.426 8  87482719.993 7  21364138.898                    21364146.293
 110960723.861 8  86462957.146 7  21115124.180                    21115131.133
 116415633.963 8  90713386.679 7  22153122.055                    22153132.199
 118199139.277 7  92103216.23745  22492493.508                    22492498.949
 128880137.721 7 100426140.95343  24525074.875                    24525082.277
 11  8 18  3 16 30.0000000  0 10G30G15G18G12G26G05G29G25G02G21
 118573104.245 7  92394529.94445  22563672.078                    22563679.664
 119339373.398 7  92991689.072 7  22709506.820                    22709514.734
 128391029.462 5 100045038.33042  24432006.055                    24432015.793
 121223417.466 7  94459848.817 6  23068047.078                    23068055.188
 115625519.084 7  90097904.10645  22002805.336                    22002813.852
 112338273.968 8  87536397.832 7  21377247.422                    21377254.824
 110898855.822 8  86414748.299 7  21103351.219                    21103358.473
 116469322.460 8  90755221.849 7  22163338.875                    22163348.930
 118247129.678 7  92140611.32645  22501625.391                    22501631.125
 128823309.071 6 100381858.95543  24514261.063                    24514268.355
 11  8 18  3 17  0.0000000  0 10G30G15G18G12G26G05G29G25G02G21
 118641957.423 7  92448181.74745  22576774.570                    22576782.453
 119247813.831 7  92920344.016 6  22692083.883                    22692091.891
 128303865.171 6  99977118.31643  24415419.234                    24415428.066
 121315287.837 7  94531436.083 6  23085529.602                    23085537.227
 115557328.844 7  90044768.87445  21989829.492                    21989837.012
 112407447.414 8  87590299.224 7  21390410.742                    21390418.020
 110837295.310 8  86366779.081 7  21091636.453                    21091643.777
 116523412.357 8  90797369.804 7  22173631.938                    22173641.453
 118295221.337 7  92178085.33445  22510777.031                    22510782.793
 128766458.729 6 100337560.01243  24503443.031                    24503449.738
 11  8 18  3 17 30.0000000  0 10G30G15G18G12G26G05G29G25G02G21
 118711119.247 7  92502074.07645  22589935.945                    22589943.371
 119156429.099 7  92849135.177 7  22674693.719                    22674701.668
 128216883.210 6  99909340.37642  24398867.438                    24398876.551
 121407279.093 7  94603117.550 6  23103035.336                    23103043.055
 115489581.112 7  89991978.46345  21976937.484                    21976945.523
 112476905.454 8  87644422.383 7  21403628.117                    21403634.938
 110776045.158 8  86319051.714 7  21079980.922                    21079988.250
 116577901.332 8  90839828.746 7  22184000.992                    22184010.270
 118343414.644 7  92215638.54645  22519948.070                    22519953.840
 128709586.314 6 100293243.93043  24492620.273                    24492627.652
 11  8 18  3 18  0.0000000  0 10G30G15G18G12G26G05G29G25G02G21
 118780586.240 7  92556204.19345  22603154.648                    22603162.566
 119065222.206 7  92778064.917 6  22657337.945                    22657345.410
 128130083.926 6  99841704.72043  24382349.195                    24382358.480
 121499387.495 7  94674890.319 6  23120562.977                    23120570.406
 115422279.013 7  89939535.30345  21964130.180                    21964138.004
 112546645.603 8  87698765.346 7  21416899.352                    21416905.898
 110715107.195 8  86271567.604 7  21068384.844                    21068391.996
 116632786.328 8  90882596.251 7  22194445.391                    22194455.422
 118391710.282 7  92253271.47745  22529138.719                    22529143.863
 128652691.209 6 100248910.15043  24481793.031                    24481800.793
 11  8 18  3 18 30.0000000  0 10G30G15G18G12G26G05G29G25G02G21
 118850355.301 7  92610569.68444  22616430.781                    22616439.070
 118974195.878 7  92707135.373 7  22640016.016                    22640023.496
 128043468.893 6  99774212.62643  24365868.039                    24365875.957
 121591610.358 7  94746752.285 6  23138112.094                    23138119.824
 115355426.188 7  89887442.21745  21951408.430                    21951416.125
 112616665.495 8  87753326.299 7  21430223.586                    21430230.430
 110654483.752 8  86224328.572 7  21056848.594                    21056855.895
 116688064.600 8  90925670.226 7  22204964.102                    22204974.188
 118440108.264 7  92290984.15545  22538348.344                    22538354.430
 128595773.145 6 100204558.48543  24470961.273                    24470968.922
 11  8 18  3 19  0.0000000  0 10G30G15G18G12G26G05G29G25G02G21
 118920422.875 7  92665167.79144  22629764.352                    22629772.230
 118883353.176 7  92636348.881 6  22622729.234                    22622736.641
 127957038.858 6  99706864.71543  24349420.500                    24349428.570
 121683943.988 7  94818700.552 6  23155682.773                    23155690.430
 115289025.479 7  89835701.42045  21938772.359                    21938780.531
 112686962.181 8  87808102.921 7  21443600.414                    21443607.152
 110594177.047 8  86177336.350 7  21045372.805                    21045379.859
 116743733.242 7  90969048.371 7  22215557.906                    22215567.297
 118488609.220 7  92328777.06945  22547578.109                    22547583.629
 128538831.414 6 100160188.38143  24460126.281                    24460134.285
 11  8 18  3 19 30.0000000  0 10G30G15G18G12G26G05G29G25G02G21
 118990786.453 7  92719996.53745  22643153.961                    22643161.977
 118792697.817 7  92565708.377 6  22605478.250                    22605485.473
 127870795.635 7  99639662.37543  24333008.414                    24333017.328
 121776386.065 7  94890733.338 6  23173273.820                    23173281.273
 115223080.863 7  89784316.03945  21926223.602                    21926232.043
 112757533.523 8  87863093.578 7  21457029.578                    21457036.668
 110534189.887 8  86130593.126 7  21033957.383                    21033964.770
 116799790.094 8  91012729.018 7  22226224.820                    22226234.746
 118537213.545 7  92366650.52145  22556827.477                    22556832.559
 128481865.656 6 100115799.53843  24449286.180                    24449293.516
